Temp     Hi    Low   Out    Dew  Wind  Wind   Wind    Hi    Hi   Wind   Heat    THW   THSW                Rain  Solar   Solar Hi Solar   UV    UV    Hi     Heat    Cool    In     In    In     In           Wind  Wind    ISS   Arc.
  Date    Time     Out   Temp   Temp   Hum    Pt. Speed   Dir    Run Speed   Dir  Chill  Index  Index  Index   Bar    Rain  Rate   Rad.  Energy    Rad.  Index  Dose   UV     D-D     D-D    Temp   Hum    Dew   Heat     ET   Samp   Tx   Recept  Int.
---------------------------------------------------------------------------------------------------------------------------------------------------------------------------------------------------------------------------------------------------------
 1/11/22   0.15   11.6   11.8   11.6    83    8.8   0.0   ---   0.00   0.0   ---   11.6   11.5   11.5   10.1   568.7  0.00   0.0     0     0.00      0     0.0  0.00   0.0   0.070   0.000   19.7    60   11.7   19.5    0.00   350    1    100.0   15 
 1/11/22   0.30   11.1   11.7   11.1    84    8.5   0.0   ---   0.00   0.0   ---   11.1   11.1   11.1    9.7   568.7  0.00   0.0     0     0.00      0     0.0  0.00   0.0   0.075   0.000   19.6    60   11.6   19.4    0.00   349    1    100.0   15 
 1/11/22   0.45   11.3   11.3   10.9    84    8.7   0.0   ---   0.00   0.0   ---   11.3   11.2   11.2    9.8   568.7  0.00   0.0     0     0.00      0     0.0  0.00   0.0   0.073   0.000   19.6    59   11.4   19.3    0.00   351    1    100.0   15 
 1/11/22   1.00   11.2   11.3   11.1    85    8.8   0.0   ---   0.00   0.0   ---   11.2   11.2   11.2    9.8   568.7  0.00   0.0     0     0.00      0     0.0  0.00   0.0   0.074   0.000   19.6    59   11.4   19.3    0.00   351    1    100.0   15 
 1/11/22   1.15   11.4   11.6   11.2    84    8.8   0.0   ---   0.00   0.0   ---   11.4   11.4   11.4    9.9   568.7  0.00   0.0     0     0.00      0     0.0  0.00   0.0   0.072   0.000   19.5    59   11.3   19.2    0.00   351    1    100.0   15 
 1/11/22   1.30   11.1   11.5   11.1    84    8.5   0.0   ---   0.00   0.0   ---   11.1   11.1   11.1    9.7   568.7  0.00   0.0     0     0.00      0     0.0  0.00   0.0   0.075   0.000   19.5    59   11.3   19.2    0.00   351    1    100.0   15 
 1/11/22   1.45   11.1   11.2   11.0    85    8.7   0.0   ---   0.00   0.0   ---   11.1   11.1   11.1    9.7   568.7  0.00   0.0     0     0.00      0     0.0  0.00   0.0   0.075   0.000   19.5    59   11.3   19.2    0.00   351    1    100.0   15 
 1/11/22   2.00   10.8   11.2   10.8    85    8.4   0.0   ---   0.00   0.0   ---   10.8   10.8   10.8    9.4   568.7  0.00   0.0     0     0.00      0     0.0  0.00   0.0   0.078   0.000   19.4    59   11.2   19.1    0.00   352    1    100.0   15 
 1/11/22   2.15   11.1   11.2   10.8    85    8.6   0.0   ---   0.00   0.0   ---   11.1   11.1   11.1    9.6   568.7  0.00   0.0     0     0.00      0     0.0  0.00   0.0   0.076   0.000   19.4    59   11.2   19.1    0.00   351    1    100.0   15 
 1/11/22   2.30   11.9   12.3   10.9    86    9.6   0.0   ---   0.00   0.0   ---   11.9   11.8   11.8   10.4   568.7  0.00   0.0     0     0.00      0     0.0  0.00   0.0   0.067   0.000   19.4    59   11.2   19.1    0.00   351    1    100.0   15 
 1/11/22   2.45   11.3   11.9   11.2    86    9.0   0.0   ---   0.00   0.0   ---   11.3   11.3   11.3    9.9   568.7  0.00   0.0     0     0.00      0     0.0  0.00   0.0   0.073   0.000   19.3    59   11.1   19.0    0.00   351    1    100.0   15 
 1/11/22   3.00   11.1   11.2   10.8    86    8.8   0.0   ---   0.00   0.0   ---   11.1   11.1   11.1    9.6   568.7  0.00   0.0     0     0.00      0     0.0  0.00   0.0   0.076   0.000   19.3    58   10.9   18.9    0.00   352    1    100.0   15 
 1/11/22   3.15   11.9   11.9   11.1    86    9.6   0.0   ---   0.00   0.0   ---   11.9   11.8   11.8   10.4   568.7  0.00   0.0     0     0.00      0     0.0  0.00   0.0   0.067   0.000   19.3    58   10.9   18.9    0.00   351    1    100.0   15 
 1/11/22   3.30   12.3   12.4   11.9    85    9.8   0.0   ---   0.00   0.0   ---   12.3   12.2   12.2   10.8   568.7  0.00   0.0     0     0.00      0     0.0  0.00   0.0   0.063   0.000   19.3    59   11.1   19.0    0.00   351    1    100.0   15 
 1/11/22   3.45   11.8   12.2   11.8    85    9.4   0.0   ---   0.00   0.0   ---   11.8   11.8   11.8   10.4   568.7  0.00   0.0     0     0.00      0     0.0  0.00   0.0   0.068   0.000   19.3    59   11.1   18.9    0.00   350    1    100.0   15 
 1/11/22   4.00   11.9   12.2   11.7    85    9.5   0.0   ---   0.00   0.0   ---   11.9   11.9   11.9   10.5   568.7  0.00   0.0     0     0.00      0     0.0  0.00   0.0   0.067   0.000   19.3    59   11.1   18.9    0.00   351    1    100.0   15 
 1/11/22   4.15   11.3   12.1   11.3    85    8.9   0.0   ---   0.00   0.0   ---   11.3   11.3   11.3    9.9   568.7  0.00   0.0     0     0.00      0     0.0  0.00   0.0   0.073   0.000   19.3    59   11.1   18.9    0.00   350    1    100.0   15 
 1/11/22   4.30   12.1   12.1   11.1    87   10.0   0.0   ---   0.00   0.0   ---   12.1   12.1   12.1   10.7   568.7  0.00   0.0     0     0.00      0     0.0  0.00   0.0   0.065   0.000   19.2    59   11.0   18.8    0.00   351    1    100.0   15 
 1/11/22   4.45   12.1   12.3   11.8    86    9.8   0.0   ---   0.00   0.0   ---   12.1   12.1   12.1   10.7   568.7  0.00   0.0     0     0.00      0     0.0  0.00   0.0   0.065   0.000   19.2    59   11.0   18.8    0.00   351    1    100.0   15 
 1/11/22   5.00   11.8   12.1   11.8    87    9.7   0.0   ---   0.00   0.0   ---   11.8   11.8   11.8   10.4   568.7  0.00   0.0     0     0.00      0     0.0  0.00   0.0   0.068   0.000   19.2    59   11.0   18.8    0.00   351    1    100.0   15 
 1/11/22   5.15   12.4   12.7   11.7    87   10.3   0.0   ---   0.00   0.0   ---   12.4   12.4   12.4   11.0   568.7  0.00   0.0     0     0.00      0     0.0  0.00   0.0   0.062   0.000   19.2    59   11.0   18.8    0.00   351    1    100.0   15 
 1/11/22   5.30   12.6   12.6   12.2    88   10.6   0.0   ---   0.00   0.0   ---   12.6   12.6   12.6   11.2   568.7  0.00   0.0     0     0.00      0     0.0  0.00   0.0   0.060   0.000   19.2    59   11.0   18.8    0.00   351    1    100.0   15 
 1/11/22   5.45   12.3   12.6   12.2    88   10.4   0.0   ---   0.00   0.0   ---   12.3   12.3   12.3   10.9   568.7  0.00   0.0     0     0.00      0     0.0  0.00   0.0   0.062   0.000   19.1    59   10.9   18.7    0.00   351    1    100.0   15 
 1/11/22   6.00   12.2   12.4   12.2    88   10.3   0.0   ---   0.00   0.0   ---   12.2   12.2   12.2   10.8   568.7  0.00   0.0     0     0.00      0     0.0  0.00   0.0   0.064   0.000   19.1    59   10.9   18.7    0.00   351    1    100.0   15 
 1/11/22   6.15   11.7   12.2   11.7    88    9.7   0.0   ---   0.00   0.0   ---   11.7   11.7   11.7   10.3   568.7  0.00   0.0     0     0.00      0     0.0  0.00   0.0   0.069   0.000   19.1    59   10.9   18.7    0.00   352    1    100.0   15 
 1/11/22   6.30   12.1   12.1   11.7    89   10.4   0.0   ---   0.00   0.0   ---   12.1   12.2   12.2   10.8   568.7  0.00   0.0     0     0.00      0     0.0  0.00   0.0   0.065   0.000   19.0    59   10.8   18.6    0.00   351    1    100.0   15 
 1/11/22   6.45   11.7   12.1   11.4    88    9.7   0.0   ---   0.00   0.0   ---   11.7   11.7   11.7   10.3   568.7  0.00   0.0     0     0.00      0     0.0  0.00   0.0   0.069   0.000   19.0    59   10.8   18.6    0.00   351    1    100.0   15 
 1/11/22   7.00   12.4   12.4   11.7    89   10.7   0.0   ---   0.00   0.0   ---   12.4   12.5   12.5   11.3   568.7  0.00   0.0     9     0.19     14     0.0  0.00   0.0   0.061   0.000   19.0    59   10.8   18.6    0.00   351    1    100.0   15 
 1/11/22   7.15   12.2   12.6   12.1    89   10.5   0.0   ---   0.00   0.0   ---   12.2   12.3   12.3   11.2   568.7  0.00   0.0    20     0.43     28     0.0  0.00   0.0   0.064   0.000   19.0    60   11.1   18.6    0.00   349    1    100.0   15 
 1/11/22   7.30   12.6   12.7   12.2    89   10.8   0.0   ---   0.00   0.0   ---   12.6   12.7   12.7   11.8   568.7  0.00   0.0    37     0.80     44     0.0  0.00   0.0   0.060   0.000   19.0    60   11.1   18.6    0.00   352    1    100.0   15 
 1/11/22   7.45   12.9   12.9   12.6    89   11.1   0.0     N   0.00   1.6     N   12.9   12.9   12.9   12.3   568.7  0.00   0.0    49     1.05     58     0.0  0.00   0.0   0.057   0.000   19.0    60   11.1   18.6    0.00   351    1    100.0   15 
 1/11/22   8.00   13.2   13.2   12.9    89   11.4   0.0   ---   0.00   0.0   ---   13.2   13.2   13.2   13.8   568.7  0.00   0.0    65     1.40    127     0.0  0.00   0.0   0.054   0.000   19.0    61   11.3   18.7    0.03   351    1    100.0   15 
 1/11/22   8.15   13.6   13.6   13.0    90   11.9   0.0    NE   0.00   1.6    NE   13.6   13.6   13.6   14.5   568.7  0.00   0.0    76     1.63    118     0.0  0.00   0.0   0.050   0.000   19.0    61   11.3   18.7    0.00   350    1    100.0   15 
 1/11/22   8.30   14.2   14.2   13.5    90   12.6   0.0   ---   0.00   0.0   ---   14.2   14.3   14.3   15.8   568.7  0.00   0.0   107     2.30    186     0.0  0.00   0.0   0.043   0.000   19.0    62   11.6   18.7    0.00   351    1    100.0   15 
 1/11/22   8.45   15.2   15.2   14.2    90   13.6   0.0   ---   0.00   0.0   ---   15.2   15.3   15.3   16.9   568.7  0.00   0.0   109     2.34    167     0.0  0.00   0.0   0.032   0.000   19.0    62   11.6   18.7    0.00   350    1    100.0   15 
 1/11/22   9.00   16.2   16.2   15.2    90   14.5   0.0   ---   0.00   0.0   ---   16.2   16.4   16.4   18.6   568.7  0.00   0.0   140     3.01    190     0.0  0.00   0.0   0.023   0.000   19.1    63   11.8   18.9    0.05   351    1    100.0   15 
 1/11/22   9.15   17.9   17.9   16.2    90   16.3   0.0   ---   0.00   0.0   ---   17.9   18.4   18.4   21.9   568.7  0.00   0.0   212     4.56    406     0.0  0.00   0.0   0.004   0.000   19.1    64   12.1   18.9    0.00   351    1    100.0   15 
 1/11/22   9.30   19.2   19.2   17.9    90   17.5   0.0   ---   0.00   0.0   ---   19.2   20.0   20.0   24.3   568.7  0.00   0.0   270     5.81    446     0.0  0.00   0.0   0.000   0.009   19.2    64   12.2   19.1    0.00   351    1    100.0   15 
 1/11/22   9.45   20.0   20.0   19.2    88   18.0   1.6    SE   0.40   9.7    SE   20.0   20.9   20.9   24.9   568.7  0.00   0.0   261     5.61    378     0.0  0.00   0.0   0.000   0.017   19.3    64   12.3   19.2    0.00   350    1    100.0   15 
 1/11/22  10.00   20.5   20.6   20.0    84   17.7   3.2    SE   0.80   8.0    SE   20.5   21.4   21.4   26.2   568.7  0.00   0.0   323     6.95    496     0.0  0.00   0.0   0.000   0.023   19.3    64   12.3   19.3    0.15   351    1    100.0   15 
 1/11/22  10.15   20.9   21.0   20.4    82   17.7   1.6    SE   0.40   9.7   ESE   20.9   21.7   21.7   27.3   568.7  0.00   0.0   413     8.88    529     0.0  0.00   0.0   0.000   0.027   19.4    64   12.5   19.4    0.00   351    1    100.0   15 
 1/11/22  10.30   20.6   20.9   20.6    83   17.6   4.8    SE   1.21  14.5   ESE   20.6   21.5   21.5   25.6   568.7  0.00   0.0   290     6.24    383     0.0  0.00   0.0   0.000   0.024   19.5    64   12.5   19.4    0.00   350    1    100.0   15 
 1/11/22  10.45   20.8   20.8   20.6    82   17.6   6.4    SE   1.61  14.5   SSE   20.8   21.6   21.6   27.1   568.7  0.00   0.0   414     8.90    483     0.0  0.00   0.0   0.000   0.026   19.6    65   12.8   19.7    0.00   352    1    100.0   15 
 1/11/22  11.00   20.8   20.9   20.8    82   17.6   3.2   SSE   0.80  11.3    SE   20.8   21.6   21.6   25.7   568.7  0.00   0.0   302     6.49    396     0.0  0.00   0.0   0.000   0.026   19.7    65   13.0   19.8    0.20   351    1    100.0   15 
 1/11/22  11.15   20.6   20.8   20.5    83   17.6   3.2    SE   0.80  14.5    SE   20.6   21.5   21.5   25.1   568.7  0.00   0.0   275     5.91    330     0.0  0.00   0.0   0.000   0.024   19.8    65   13.0   19.8    0.00   350    1    100.0   15 
 1/11/22  11.30   20.7   20.7   20.5    83   17.7   4.8    SE   1.21   9.7    SE   20.7   21.6   21.6   24.9   568.7  0.00   0.0   262     5.63    339     0.0  0.00   0.0   0.000   0.024   19.8    65   13.0   19.8    0.00   351    1    100.0   15 
 1/11/22  11.45   20.6   20.7   20.6    83   17.6   4.8   SSE   1.21  11.3   SSE   20.6   21.5   21.5   23.5   568.7  0.00   0.0   173     3.72    218     0.0  0.00   0.0   0.000   0.023   19.9    66   13.3   20.0    0.00   352    1    100.0   15 
 1/11/22  12.00   20.7   20.7   20.6    82   17.5   3.2     S   0.80  11.3   SSE   20.7   21.6   21.6   24.1   568.7  0.00   0.0   214     4.60    232     0.0  0.00   0.0   0.000   0.025   19.8    66   13.2   19.9    0.15   350    1    100.0   15 
 1/11/22  12.15   20.8   20.8   20.7    82   17.6   3.2   SSE   0.80   9.7   SSE   20.8   21.6   21.6   24.6   568.7  0.00   0.0   238     5.12    258     0.0  0.00   0.0   0.000   0.026   19.9    66   13.3   20.0    0.00   351    1    100.0   15 
 1/11/22  12.30   20.9   20.9   20.8    81   17.6   3.2   SSE   0.80   9.7    SE   20.9   21.7   21.7   24.5   568.7  0.00   0.0   232     4.99    257     0.0  0.00   0.0   0.000   0.027   19.9    67   13.6   20.1    0.00   351    1    100.0   15 
 1/11/22  12.45   20.8   20.9   20.8    81   17.5   3.2    SE   0.80   9.7     S   20.8   21.6   21.6   24.0   568.7  0.00   0.0   204     4.39    281     0.0  0.00   0.0   0.000   0.026   19.9    67   13.6   20.1    0.00   352    1    100.0   15 
 1/11/22  13.00   20.8   20.9   20.8    81   17.5   4.8   SSE   1.21   9.7   SSE   20.8   21.6   21.6   24.2   568.7  0.00   0.0   214     4.60    302     0.0  0.00   0.0   0.000   0.026   20.0    67   13.7   20.2    0.15   351    1    100.0   15 
 1/11/22  13.15   21.3   21.3   20.8    80   17.7   3.2   SSE   0.80   9.7     S   21.3   21.9   21.9   25.9   568.7  0.00   0.0   310     6.67    390     0.0  0.00   0.0   0.000   0.031   20.1    68   14.0   20.3    0.00   350    1    100.0   15 
 1/11/22  13.30   21.5   21.5   21.3    78   17.5   4.8   SSE   1.21  14.5   ESE   21.5   22.1   22.1   26.8   568.7  0.00   0.0   371     7.98    432     0.0  0.00   0.0   0.000   0.033   20.2    68   14.1   20.4    0.00   350    1    100.0   15 
 1/11/22  13.45   21.6   21.7   21.5    76   17.2   0.0     S   0.00   8.0     S   21.6   22.1   22.1   26.7   568.7  0.00   0.0   356     7.65    387     0.0  0.00   0.0   0.000   0.034   20.3    68   14.2   20.5    0.00   351    1    100.0   15 
 1/11/22  14.00   21.8   21.9   21.6    75   17.2   0.0   ---   0.00   0.0   ---   21.8   22.3   22.3   26.6   568.7  0.00   0.0   325     6.99    475     0.0  0.00   0.0   0.000   0.036   20.4    68   14.3   20.6    0.20   351    1    100.0   15 
 1/11/22  14.15   21.7   21.8   21.6    75   17.0   0.0   ---   0.00   0.0   ---   21.7   22.1   22.1   25.9   568.7  0.00   0.0   281     6.04    415     0.0  0.00   0.0   0.000   0.035   20.4    68   14.3   20.6    0.00   351    1    100.0   15 
 1/11/22  14.30   21.7   21.7   21.5    75   17.0   0.0    SE   0.00   6.4    SE   21.7   22.1   22.1   25.6   568.7  0.00   0.0   253     5.44    294     0.0  0.00   0.0   0.000   0.035   20.4    68   14.3   20.6    0.00   350    1    100.0   15 
 1/11/22  14.45   21.6   21.8   21.6    75   17.0   0.0   ---   0.00   0.0   ---   21.6   22.1   22.1   25.1   568.7  0.00   0.0   214     4.60    315     0.0  0.00   0.0   0.000   0.034   20.4    69   14.6   20.6    0.00   351    1    100.0   15 
 1/11/22  15.00   21.4   21.7   21.4    74   16.6   0.0   ---   0.00   0.0   ---   21.4   21.8   21.8   25.1   568.7  0.00   0.0   229     4.92    260     0.0  0.00   0.0   0.000   0.032   20.4    69   14.6   20.6    0.15   350    1    100.0   15 
 1/11/22  15.15   21.2   21.4   21.2    76   16.8   0.0   ---   0.00   0.0   ---   21.2   21.6   21.6   23.4   568.7  0.00   0.0   136     2.92    192     0.0  0.00   0.0   0.000   0.030   20.3    69   14.5   20.6    0.00   350    1    100.0   15 
 1/11/22  15.30   21.1   21.2   21.1    77   16.9   0.0   ---   0.00   0.0   ---   21.1   21.5   21.5   22.7   568.7  0.00   0.0    99     2.13    118     0.0  0.00   0.0   0.000   0.028   20.3    69   14.5   20.6    0.00   351    1    100.0   15 
 1/11/22  15.45   20.9   21.1   20.8    78   16.9   0.0     S   0.00   3.2     S   20.9   21.5   21.5   22.2   568.7  0.00   0.0    70     1.51     83     0.0  0.00   0.0   0.000   0.027   20.3    69   14.4   20.5    0.00   351    1    100.0   15 
 1/11/22  16.00   20.7   20.9   20.7    78   16.7   0.0   ---   0.00   0.0   ---   20.7   21.4   21.4   21.8   568.7  0.00   0.0    58     1.25     62     0.0  0.00   0.0   0.000   0.025   20.3    69   14.4   20.5    0.05   351    1    100.0   15 
 1/11/22  16.15   20.7   20.8   20.7    78   16.7   0.0   ---   0.00   0.0   ---   20.7   21.3   21.3   21.6   568.7  0.00   0.0    48     1.03     53     0.0  0.00   0.0   0.000   0.024   20.3    69   14.4   20.5    0.00   351    1    100.0   15 
 1/11/22  16.30   20.6   20.7   20.6    78   16.6   0.0   ---   0.00   0.0   ---   20.6   21.3   21.3   21.1   568.7  0.00   0.0    26     0.56     37     0.0  0.00   0.0   0.000   0.023   20.3    69   14.4   20.5    0.00   351    1    100.0   15 
 1/11/22  16.45   20.3   20.6   20.3    79   16.6   0.0   ---   0.00   0.0   ---   20.3   21.1   21.1   20.5   568.7  0.00   0.0    14     0.30     18     0.0  0.00   0.0   0.000   0.021   20.2    69   14.3   20.4    0.00   351    1    100.0   15 
 1/11/22  17.00   20.2   20.4   20.2    80   16.6   0.0   ---   0.00   0.0   ---   20.2   20.9   20.9   20.2   568.7  0.00   0.0     8     0.17     12     0.0  0.00   0.0   0.000   0.019   20.2    70   14.5   20.4    0.03   351    1    100.0   15 
 1/11/22  17.15   19.8   20.2   19.8    81   16.5   0.0   ---   0.00   0.0   ---   19.8   20.6   20.6   19.5   568.7  0.00   0.0     0     0.00      0     0.0  0.00   0.0   0.000   0.016   20.2    70   14.5   20.4    0.00   351    1    100.0   15 
 1/11/22  17.30   19.6   19.9   19.6    82   16.4   0.0   ---   0.00   0.0   ---   19.6   20.2   20.2   19.2   568.7  0.00   0.0     0     0.00      0     0.0  0.00   0.0   0.000   0.013   20.1    69   14.2   20.3    0.00   351    1    100.0   15 
 1/11/22  17.45   19.1   19.6   19.1    83   16.2   0.0   ---   0.00   0.0   ---   19.1   19.7   19.7   18.7   568.7  0.00   0.0     0     0.00      0     0.0  0.00   0.0   0.000   0.008   20.1    70   14.4   20.4    0.00   351    1    100.0   15 
 1/11/22  18.00   18.6   19.1   18.6    83   15.7   0.0   ---   0.00   0.0   ---   18.6   19.1   19.1   18.0   568.7  0.00   0.0     0     0.00      0     0.0  0.00   0.0   0.000   0.003   20.1    70   14.4   20.4    0.00   349    1    100.0   15 
 1/11/22  18.15   18.4   18.6   18.4    84   15.6   0.0   ---   0.00   0.0   ---   18.4   18.8   18.8   17.7   568.7  0.00   0.0     0     0.00      0     0.0  0.00   0.0   0.000   0.001   20.1    70   14.4   20.4    0.00   351    1    100.0   15 
 1/11/22  18.30   18.3   18.4   18.3    84   15.6   0.0   ---   0.00   0.0   ---   18.3   18.8   18.8   17.7   568.7  0.00   0.0     0     0.00      0     0.0  0.00   0.0   0.000   0.000   20.1    70   14.4   20.4    0.00   351    1    100.0   15 
 1/11/22  18.45   18.4   18.5   18.3    84   15.7   0.0   ---   0.00   0.0   ---   18.4   18.9   18.9   17.8   568.7  0.00   0.0     0     0.00      0     0.0  0.00   0.0   0.000   0.001   20.0    71   14.6   20.4    0.00   351    1    100.0   15 
 1/11/22  19.00   18.3   18.5   18.3    84   15.6   0.0   ---   0.00   0.0   ---   18.3   18.8   18.8   17.7   568.7  0.00   0.0     0     0.00      0     0.0  0.00   0.0   0.000   0.000   20.0    70   14.4   20.3    0.03   351    1    100.0   15 
 1/11/22  19.15   18.2   18.4   18.2    84   15.5   0.0   ---   0.00   0.0   ---   18.2   18.6   18.6   17.5   568.7  0.00   0.0     0     0.00      0     0.0  0.00   0.0   0.001   0.000   20.0    71   14.6   20.4    0.00   352    1    100.0   15 
 1/11/22  19.30   18.2   18.3   18.2    85   15.6   0.0   ---   0.00   0.0   ---   18.2   18.6   18.6   17.4   568.7  0.00   0.0     0     0.00      0     0.0  0.00   0.0   0.002   0.000   20.0    71   14.6   20.4    0.00   351    1    100.0   15 
 1/11/22  19.45   18.3   18.3   17.9    85   15.7   0.0   ---   0.00   0.0   ---   18.3   18.7   18.7   17.6   568.7  0.00   0.0     0     0.00      0     0.0  0.00   0.0   0.001   0.000   20.0    71   14.6   20.4    0.00   351    1    100.0   15 
 1/11/22  20.00   18.2   18.3   18.1    85   15.6   0.0   ---   0.00   0.0   ---   18.2   18.6   18.6   17.4   568.7  0.00   0.0     0     0.00      0     0.0  0.00   0.0   0.002   0.000   20.0    71   14.6   20.4    0.03   351    1    100.0   15 
 1/11/22  20.15   18.1   18.3   18.0    85   15.5   0.0   ---   0.00   0.0   ---   18.1   18.5   18.5   17.4   568.7  0.00   0.0     0     0.00      0     0.0  0.00   0.0   0.002   0.000   20.0    71   14.6   20.4    0.00   351    1    100.0   15 
 1/11/22  20.30   18.0   18.2   17.9    86   15.6   0.0   ---   0.00   0.0   ---   18.0   18.4   18.4   17.3   568.7  0.00   0.0     0     0.00      0     0.0  0.00   0.0   0.003   0.000   19.9    71   14.5   20.2    0.00   351    1    100.0   15 
 1/11/22  20.45   17.9   18.1   17.9    86   15.6   0.0   ---   0.00   0.0   ---   17.9   18.3   18.3   17.2   568.7  0.00   0.0     0     0.00      0     0.0  0.00   0.0   0.004   0.000   19.9    71   14.5   20.2    0.00   351    1    100.0   15 
 1/11/22  21.00   17.8   18.0   17.8    86   15.5   0.0   ---   0.00   0.0   ---   17.8   18.2   18.2   17.1   568.7  0.00   0.0     0     0.00      0     0.0  0.00   0.0   0.005   0.000   19.9    71   14.5   20.2    0.00   351    1    100.0   15 
 1/11/22  21.15   17.8   17.8   17.7    86   15.4   0.0   ---   0.00   0.0   ---   17.8   18.1   18.1   17.0   568.7  0.00   0.0     0     0.00      0     0.0  0.00   0.0   0.006   0.000   19.9    72   14.7   20.3    0.00   351    1    100.0   15 
 1/11/22  21.30   17.7   17.7   17.7    86   15.3   0.0   ---   0.00   0.0   ---   17.7   18.0   18.0   16.9   568.7  0.00   0.0     0     0.00      0     0.0  0.00   0.0   0.007   0.000   19.9    72   14.7   20.3    0.00   352    1    100.0   15 
 1/11/22  21.45   17.5   17.7   17.4    87   15.3   0.0   ---   0.00   0.0   ---   17.5   17.8   17.8   16.7   568.7  0.00   0.0     0     0.00      0     0.0  0.00   0.0   0.009   0.000   19.9    72   14.7   20.3    0.00   351    1    100.0   15 
 1/11/22  22.00   17.3   17.5   17.3    87   15.1   0.0   ---   0.00   0.0   ---   17.3   17.7   17.7   16.6   568.7  0.00   0.0     0     0.00      0     0.0  0.00   0.0   0.010   0.000   19.9    72   14.7   20.3    0.00   351    1    100.0   15 
 1/11/22  22.15   17.1   17.3   17.1    87   14.9   0.0   ---   0.00   0.0   ---   17.1   17.3   17.3   16.2   568.7  0.00   0.0     0     0.00      0     0.0  0.00   0.0   0.013   0.000   19.9    72   14.7   20.3    0.00   351    1    100.0   15 
 1/11/22  22.30   17.1   17.2   17.1    88   15.1   0.0   ---   0.00   0.0   ---   17.1   17.4   17.4   16.3   568.7  0.00   0.0     0     0.00      0     0.0  0.00   0.0   0.013   0.000   19.9    72   14.7   20.3    0.00   352    1    100.0   15 
 1/11/22  22.45   16.9   17.1   16.9    87   14.8   0.0   ---   0.00   0.0   ---   16.9   17.2   17.2   16.1   568.7  0.00   0.0     0     0.00      0     0.0  0.00   0.0   0.014   0.000   19.8    73   14.8   20.2    0.00   351    1    100.0   15 
 1/11/22  23.00   16.7   16.9   16.7    88   14.7   0.0   ---   0.00   0.0   ---   16.7   16.9   16.9   15.8   568.7  0.00   0.0     0     0.00      0     0.0  0.00   0.0   0.017   0.000   19.8    73   14.8   20.2    0.00   351    1    100.0   15 
 1/11/22  23.15   16.3   16.7   16.2    88   14.3   0.0   ---   0.00   0.0   ---   16.3   16.6   16.6   15.4   568.7  0.00   0.0     0     0.00      0     0.0  0.00   0.0   0.021   0.000   19.8    73   14.8   20.2    0.00   350    1    100.0   15 
 1/11/22  23.30   16.3   16.4   16.2    88   14.3   0.0   ---   0.00   0.0   ---   16.3   16.6   16.6   15.4   568.7  0.00   0.0     0     0.00      0     0.0  0.00   0.0   0.021   0.000   19.7    73   14.7   20.1    0.00   351    1    100.0   15 
 1/11/22  23.45   16.3   16.4   16.2    88   14.3   0.0   ---   0.00   0.0   ---   16.3   16.6   16.6   15.4   568.7  0.00   0.0     0     0.00      0     0.0  0.00   0.0   0.021   0.000   19.7    73   14.7   20.1    0.00   351    1    100.0   15 
 2/11/22  00.00   16.1   16.4   16.1    88   14.1   0.0   ---   0.00   0.0   ---   16.1   16.2   16.2   15.1   568.7  0.00   0.0     0     0.00      0     0.0  0.00   0.0   0.024   0.000   19.7    72   14.5   20.1    0.00   351    1    100.0   15 
 1/11/22  12.06   14.1   21.4   19.3    73    9.2 102.7  Plea   0.00  95.1   ENE    7.7   13.7    7.3  370.6  ------1658.621376.7   730     0.00    680     8.1  0.00   0.3   0.000   0.000   17.7    57    9.1   17.1    0.00   720    6      0.0    0 
 1/11/22-530.-49   18.3  100.5    ---    58    9.7 118.3  Wind 502.72  92.5     N   12.7   17.7   12.2   95.2  ------2146.301402.1   574   209.82    638     0.0  0.00   0.0   0.010   0.000  -14.4    64  -19.7  -14.6    0.00   725    1     12.5  255 
 1/11/22   0.15   15.6   16.1   15.6    88   13.6   0.0   ---   0.00   0.0   ---   15.6   15.7   15.7   14.5   568.7  0.00   0.0     0     0.00      0     0.0  0.00   0.0   0.028   0.000   19.7    72   14.5   20.1    0.00   348    1    100.0   15 
 1/11/22   0.30   15.4   15.7   15.4    88   13.4   0.0   ---   0.00   0.0   ---   15.4   15.5   15.5   14.3   568.7  0.00   0.0     0     0.00      0     0.0  0.00   0.0   0.031   0.000   19.7    72   14.5   20.1    0.00   351    1    100.0   15 
 1/11/22   0.45   15.2   15.4   15.1    88   13.2   0.0   ---   0.00   0.0   ---   15.2   15.2   15.2   14.0   568.7  0.00   0.0     0     0.00      0     0.0  0.00   0.0   0.033   0.000   19.6    72   14.4   19.9    0.00   351    1    100.0   15 
 1/11/22   1.00   15.3   15.5   15.0    89   13.5   0.0   ---   0.00   0.0   ---   15.3   15.4   15.4   14.2   568.7  0.00   0.0     0     0.00      0     0.0  0.00   0.0   0.031   0.000   19.6    72   14.4   19.9    0.00   352    1    100.0   15 
 1/11/22   1.15   15.1   15.3   14.9    89   13.3   0.0   ---   0.00   0.0   ---   15.1   15.2   15.2   14.0   568.7  0.00   0.0     0     0.00      0     0.0  0.00   0.0   0.034   0.000   19.6    72   14.4   19.9    0.00   350    1    100.0   15 
 1/11/22   1.30   14.7   15.2   14.7    88   12.8   0.0   ---   0.00   0.0   ---   14.7   14.8   14.8   13.5   568.7  0.00   0.0     0     0.00      0     0.0  0.00   0.0   0.038   0.000   19.6    72   14.4   19.9    0.00   351    1    100.0   15 
 1/11/22   1.45   14.9   14.9   14.6    89   13.1   0.0   ---   0.00   0.0   ---   14.9   14.9   14.9   13.7   568.7  0.00   0.0     0     0.00      0     0.0  0.00   0.0   0.036   0.000   19.6    71   14.2   19.9    0.00   351    1    100.0   15 
 1/11/22   2.00   15.0   15.1   14.9    89   13.2   0.0   ---   0.00   0.0   ---   15.0   15.1   15.1   13.9   568.7  0.00   0.0     0     0.00      0     0.0  0.00   0.0   0.035   0.000   19.5    71   14.1   19.8    0.00   352    1    100.0   15 
 1/11/22   2.15   14.4   15.2   14.4    89   12.7   0.0   ---   0.00   0.0   ---   14.4   14.5   14.5   13.2   568.7  0.00   0.0     0     0.00      0     0.0  0.00   0.0   0.041   0.000   19.5    71   14.1   19.8    0.00   351    1    100.0   15 
 1/11/22   2.30   14.6   14.7   14.3    89   12.8   0.0   ---   0.00   0.0   ---   14.6   14.7   14.7   13.4   568.7  0.00   0.0     0     0.00      0     0.0  0.00   0.0   0.039   0.000   19.5    71   14.1   19.8    0.00   351    1    100.0   15 
 1/11/22   2.45   14.2   14.6   14.2    89   12.4   0.0   ---   0.00   0.0   ---   14.2   14.3   14.3   13.0   568.7  0.00   0.0     0     0.00      0     0.0  0.00   0.0   0.043   0.000   19.5    70   13.9   19.7    0.00   350    1    100.0   15 
 1/11/22   3.00   14.5   14.5   14.2    89   12.7   0.0   ---   0.00   0.0   ---   14.5   14.6   14.6   13.3   568.7  0.00   0.0     0     0.00      0     0.0  0.00   0.0   0.040   0.000   19.5    70   13.9   19.7    0.00   350    1    100.0   15 
 1/11/22   3.15   14.9   15.1   14.5    89   13.1   0.0   ---   0.00   0.0   ---   14.9   14.9   14.9   13.7   568.7  0.00   0.0     0     0.00      0     0.0  0.00   0.0   0.036   0.000   19.4    70   13.8   19.7    0.00   352    1    100.0   15 
 1/11/22   3.30   14.9   14.9   14.8    89   13.1   0.0   ---   0.00   0.0   ---   14.9   14.9   14.9   13.7   568.7  0.00   0.0     0     0.00      0     0.0  0.00   0.0   0.036   0.000   19.4    70   13.8   19.7    0.00   351    1    100.0   15 
 1/11/22   3.45   14.6   14.9   14.1    89   12.8   0.0   ---   0.00   0.0   ---   14.6   14.6   14.6   13.3   568.7  0.00   0.0     0     0.00      0     0.0  0.00   0.0   0.039   0.000   19.4    69   13.6   19.6    0.00   351    1    100.0   15 
 1/11/22   4.00   14.1   14.8   14.1    89   12.3   0.0   ---   0.00   0.0   ---   14.1   14.2   14.2   12.9   568.7  0.00   0.0     0     0.00      0     0.0  0.00   0.0   0.044   0.000   19.4    69   13.6   19.6    0.00   351    1    100.0   15 
 1/11/22   4.15   14.8   14.8   14.1    90   13.2   0.0   ---   0.00   0.0   ---   14.8   14.9   14.9   13.7   568.7  0.00   0.0     0     0.00      0     0.0  0.00   0.0   0.036   0.000   19.3    69   13.5   19.5    0.00   351    1    100.0   15 
 1/11/22   4.30   15.2   15.3   14.8    90   13.6   0.0   ---   0.00   0.0   ---   15.2   15.3   15.3   14.1   568.7  0.00   0.0     0     0.00      0     0.0  0.00   0.0   0.032   0.000   19.3    69   13.5   19.5    0.00   351    1    100.0   15 
 1/11/22   4.45   14.7   15.2   14.6    90   13.0   0.0   ---   0.00   0.0   ---   14.7   14.7   14.7   13.5   568.7  0.00   0.0     0     0.00      0     0.0  0.00   0.0   0.038   0.000   19.3    69   13.5   19.5    0.00   351    1    100.0   15 
 1/11/22   5.00   15.5   15.5   14.7    90   13.9   0.0   ---   0.00   0.0   ---   15.5   15.7   15.7   14.4   568.7  0.00   0.0     0     0.00      0     0.0  0.00   0.0   0.030   0.000   19.3    69   13.5   19.5    0.00   350    1    100.0   15 
 1/11/22   5.15   15.6   15.6   15.4    90   13.9   0.0   ---   0.00   0.0   ---   15.6   15.7   15.7   14.6   568.7  0.00   0.0     0     0.00      0     0.0  0.00   0.0   0.029   0.000   19.3    69   13.5   19.5    0.00   350    1    100.0   15 
 1/11/22   5.30   15.4   15.9   15.4    90   13.8   0.0   ---   0.00   0.0   ---   15.4   15.6   15.6   14.4   568.7  0.00   0.0     0     0.00      0     0.0  0.00   0.0   0.030   0.000   19.3    69   13.5   19.5    0.00   350    1    100.0   15 
 1/11/22   5.45   15.1   15.5   15.1    90   13.4   0.0   ---   0.00   0.0   ---   15.1   15.2   15.2   13.9   568.7  0.00   0.0     0     0.00      0     0.0  0.00   0.0   0.034   0.000   19.3    69   13.5   19.5    0.00   351    1    100.0   15 
 1/11/22   6.00   15.7   15.7   14.9    90   14.0   0.0   ---   0.00   0.0   ---   15.7   15.8   15.8   14.7   568.7  0.00   0.0     0     0.00      0     0.0  0.00   0.0   0.028   0.000   19.3    69   13.4   19.4    0.00   350    1    100.0   15 
 1/11/22   6.15   15.9   16.0   15.7    91   14.5   0.0   ---   0.00   0.0   ---   15.9   16.2   16.2   15.0   568.7  0.00   0.0     0     0.00      0     0.0  0.00   0.0   0.025   0.000   19.3    68   13.2   19.4    0.00   351    1    100.0   15 
 1/11/22   6.30   15.7   16.1   15.7    90   14.1   0.0   ---   0.00   0.0   ---   15.7   15.9   15.9   14.7   568.7  0.00   0.0     0     0.00      0     0.0  0.00   0.0   0.027   0.000   19.3    68   13.2   19.4    0.00   352    1    100.0   15 
 1/11/22   6.45   15.4   15.7   14.9    90   13.8   0.0   ---   0.00   0.0   ---   15.4   15.6   15.6   14.4   568.7  0.00   0.0     1     0.02      7     0.0  0.00   0.0   0.031   0.000   19.3    68   13.2   19.4    0.00   351    1    100.0   15 
 1/11/22   7.00   15.4   15.4   15.1    90   13.8   0.0   ---   0.00   0.0   ---   15.4   15.6   15.6   14.5   568.7  0.00   0.0    11     0.24     12     0.0  0.00   0.0   0.031   0.000   19.3    68   13.2   19.4    0.00   350    1    100.0   15 
 1/11/22   7.15   15.4   15.6   15.4    91   14.0   0.0   ---   0.00   0.0   ---   15.4   15.6   15.6   14.7   568.7  0.00   0.0    16     0.34     21     0.0  0.00   0.0   0.030   0.000   19.3    68   13.2   19.4    0.00   351    1    100.0   15 
 1/11/22   7.30   15.4   15.7   15.4    91   13.9   0.0   ---   0.00   0.0   ---   15.4   15.6   15.6   14.8   568.7  0.00   0.0    30     0.65     35     0.0  0.00   0.0   0.031   0.000   19.3    69   13.4   19.4    0.00   352    1    100.0   15 
 1/11/22   7.45   15.4   15.4   15.2    91   14.0   0.0   ---   0.00   0.0   ---   15.4   15.6   15.6   15.2   568.7  0.00   0.0    58     1.25     69     0.0  0.00   0.0   0.030   0.000   19.3    69   13.4   19.4    0.00   350    1    100.0   15 
 1/11/22   8.00   16.8   16.8   15.4    91   15.3   0.0   ---   0.00   0.0   ---   16.8   17.1   17.1   18.1   568.7  0.00   0.0    79     1.70     97     0.0  0.00   0.0   0.016   0.000   19.3    69   13.4   19.4    0.03   351    1    100.0   15 
 1/11/22   8.15   16.6   16.9   16.4    91   15.1   0.0   ---   0.00   0.0   ---   16.6   16.8   16.8   17.8   568.7  0.00   0.0    74     1.59    130     0.0  0.00   0.0   0.019   0.000   19.3    70   13.7   19.4    0.00   351    1    100.0   15 
 1/11/22   8.30   17.5   17.5   16.5    91   16.0   0.0   ---   0.00   0.0   ---   17.5   17.9   17.9   19.3   568.7  0.00   0.0    92     1.98    179     0.0  0.00   0.0   0.009   0.000   19.3    70   13.7   19.4    0.00   352    1    100.0   15 
 1/11/22   8.45   18.7   18.7   17.4    91   17.2   0.0    SE   0.00   6.4     E   18.7   19.3   19.3   22.1   568.7  0.00   0.0   157     3.38    251     0.0  0.00   0.0   0.000   0.003   19.3    70   13.7   19.6    0.00   350    1    100.0   15 
 1/11/22   9.00   19.7   19.7   18.7    91   18.2   3.2    SE   0.80  16.1    SE   19.7   20.6   20.6   24.4   568.7  0.00   0.0   222     4.77    301     0.0  0.00   0.0   0.000   0.014   19.4    71   14.0   19.7    0.08   351    1    100.0   15 
 1/11/22   9.15   20.2   20.2   19.7    90   18.5   6.4    SE   1.61  19.3   SSE   20.2   21.2   21.2   25.5   568.7  0.00   0.0   256     5.50    288     0.0  0.00   0.0   0.000   0.019   19.4    71   14.0   19.7    0.00   350    1    100.0   15 
 1/11/22   9.30   20.6   20.6   20.2    87   18.3   6.4   SSE   1.61  16.1    SE   20.6   21.6   21.6   26.5   568.7  0.00   0.0   309     6.64    359     0.0  0.00   0.0   0.000   0.023   19.5    70   13.9   19.7    0.00   351    1    100.0   15 
 1/11/22   9.45   21.1   21.1   20.6    84   18.2   4.8    SE   1.21  16.1    SE   21.1   21.9   21.9   27.3   568.7  0.00   0.0   366     7.87    383     0.0  0.00   0.0   0.000   0.028   19.6    70   14.0   19.9    0.00   352    1    100.0   15 
 1/11/22  10.00   21.1   21.2   21.0    83   18.1   4.8    SE   1.21  17.7    SE   21.1   21.8   21.8   27.1   568.7  0.00   0.0   361     7.76    394     0.0  0.00   0.0   0.000   0.029   19.6    71   14.2   19.9    0.20   351    1    100.0   15 
 1/11/22  10.15   20.7   21.1   20.7    83   17.7   4.8    SE   1.21  14.5    SE   20.7   21.6   21.6   24.4   568.7  0.00   0.0   204     4.39    343     0.0  0.00   0.0   0.000   0.024   19.7    71   14.3   20.1    0.00   351    1    100.0   15 
 1/11/22  10.30   20.9   20.9   20.7    83   17.9   4.8    SE   1.21  16.1    SE   20.9   21.7   21.7   26.2   568.7  0.00   0.0   316     6.79    485     0.0  0.00   0.0   0.000   0.027   19.7    71   14.3   20.1    0.00   350    1    100.0   15 
 1/11/22  10.45   20.9   21.0   20.9    82   17.8   4.8   SSE   1.21  16.1   ESE   20.9   21.7   21.7   26.7   568.7  0.00   0.0   368     7.91    459     0.0  0.00   0.0   0.000   0.027   19.8    71   14.4   20.1    0.00   352    1    100.0   15 
 1/11/22  11.00   20.6   20.9   20.6    83   17.6   4.8    SE   1.21  14.5    SE   20.6   21.5   21.5   23.2   568.7  0.00   0.0   143     3.07    271     0.0  0.00   0.0   0.000   0.024   19.8    71   14.4   20.1    0.15   350    1    100.0   15 
 1/11/22  11.15   20.6   20.8   20.6    82   17.4   6.4    SE   1.61  16.1    SE   20.6   21.5   21.5   23.7   568.7  0.00   0.0   180     3.87    295     0.0  0.00   0.0   0.000   0.024   19.9    71   14.5   20.2    0.00   351    1    100.0   15 
 1/11/22  11.30   20.7   20.9   20.6    82   17.5   6.4    SE   1.61  14.5   ESE   20.7   21.6   21.6   24.1   568.7  0.00   0.0   204     4.39    589     0.0  0.00   0.0   0.000   0.025   19.9    72   14.7   20.3    0.00   351    1    100.0   15 
 1/11/22  11.45   21.4   21.4   20.7    81   18.0   4.8    SE   1.21  14.5    SE   21.4   22.1   22.1   27.7   568.7  0.00   0.0   453     9.74    649     0.0  0.00   0.0   0.000   0.032   20.0    72   14.8   20.4    0.00   352    1    100.0   15 
 1/11/22  12.00   21.4   21.6   21.4    80   17.8   4.8   SSE   1.21  11.3    SE   21.4   22.1   22.1   25.7   568.7  0.00   0.0   285     6.13    577     0.0  0.00   0.0   0.000   0.032   20.1    72   14.9   20.4    0.18   351    1    100.0   15 
 1/11/22  12.15   21.8   21.8   21.4    79   18.0   6.4   SSE   1.61  14.5    SE   21.8   22.5   22.5   28.0   568.7  0.00   0.0   450     9.68    608     0.0  0.00   0.0   0.000   0.036   20.2    72   15.0   20.6    0.00   351    1    100.0   15 
 1/11/22  12.30   22.4   22.5   21.8    75   17.7   3.2   SSW   0.80  14.5   SSW   22.4   23.1   23.1   29.2   568.7  0.00   0.0   554    11.91    626     0.0  0.00   0.0   0.000   0.042   20.3    72   15.1   20.7    0.00   351    1    100.0   15 
 1/11/22  12.45   22.5   22.5   22.1    72   17.2   0.0   SSW   0.00  17.7   SSW   22.5   23.1   23.1   28.6   568.7  0.00   0.0   466    10.02    473     0.0  0.00   0.0   0.000   0.043   20.6    71   15.1   20.8    0.00   352    1    100.0   15 
 1/11/22  13.00   22.3   22.6   22.3    73   17.2   0.0     S   0.00   8.0   SSE   22.3   22.8   22.8   28.3   568.7  0.00   0.0   460     9.89    469     0.0  0.00   0.0   0.000   0.041   20.7    71   15.3   20.9    0.30   351    1    100.0   15 
 1/11/22  13.15   22.3   22.4   22.2    74   17.4   0.0   ---   0.00   0.0   ---   22.3   22.8   22.8   28.3   568.7  0.00   0.0   443     9.53    461     0.0  0.00   0.0   0.000   0.041   20.9    71   15.5   21.1    0.00   351    1    100.0   15 
 1/11/22  13.30   22.3   22.3   22.2    74   17.4   0.0   ---   0.00   0.0   ---   22.3   22.8   22.8   28.2   568.7  0.00   0.0   424     9.12    461     0.0  0.00   0.0   0.000   0.041   21.1    71   15.6   21.2    0.00   351    1    100.0   15 
 1/11/22  13.45   21.6   22.2   21.6    75   16.9   0.0     S   0.00   8.0   SSW   21.6   22.0   22.0   24.8   568.7  0.00   0.0   222     4.77    483     0.0  0.00   0.0   0.000   0.034   21.1    71   15.6   21.2    0.00   351    1    100.0   15 
 1/11/22  14.00   21.7   21.8   21.6    75   17.0   0.0   SSE   0.00   8.0    SE   21.7   22.1   22.1   26.9   568.7  0.00   0.0   361     7.76    468     0.0  0.00   0.0   0.000   0.035   21.1    71   15.6   21.2    0.20   352    1    100.0   15 
 1/11/22  14.15   21.9   22.2   21.7    73   16.9   0.0   SSE   0.00   9.7     S   21.9   22.4   22.4   27.7   568.7  0.00   0.0   407     8.75    448     0.0  0.00   0.0   0.000   0.038   21.3    70   15.6   21.4    0.00   351    1    100.0   15 
 1/11/22  14.30   21.8   22.0   21.7    75   17.1   1.6     S   0.40  11.3     S   21.8   22.2   22.2   27.1   568.7  0.00   0.0   350     7.53    362     0.0  0.00   0.0   0.000   0.036   21.4    70   15.7   21.6    0.00   351    1    100.0   15 
 1/11/22  14.45   21.8   21.9   21.7    74   17.0   0.0    SE   0.00   6.4    SE   21.8   22.3   22.3   26.9   568.7  0.00   0.0   325     6.99    352     0.0  0.00   0.0   0.000   0.036   21.4    70   15.7   21.6    0.00   351    1    100.0   15 
 1/11/22  15.00   21.7   21.8   21.7    74   16.9   0.0   ---   0.00   0.0   ---   21.7   22.1   22.1   26.4   568.7  0.00   0.0   291     6.26    309     0.0  0.00   0.0   0.000   0.035   21.3    70   15.6   21.4    0.20   352    1    100.0   15 
 1/11/22  15.15   21.8   21.9   21.7    74   16.9   0.0   ---   0.00   0.0   ---   21.8   22.2   22.2   26.2   568.7  0.00   0.0   259     5.57    276     0.0  0.00   0.0   0.000   0.036   21.1    70   15.4   21.2    0.00   351    1    100.0   15 
 1/11/22  15.30   21.7   21.8   21.7    75   17.1   0.0   ---   0.00   0.0   ---   21.7   22.2   22.2   25.7   568.7  0.00   0.0   223     4.80    241     0.0  0.00   0.0   0.000   0.035   21.0    71   15.5   21.2    0.00   351    1    100.0   15 
 1/11/22  15.45   21.6   21.7   21.6    76   17.1   0.0   ---   0.00   0.0   ---   21.6   22.1   22.1   25.2   568.7  0.00   0.0   192     4.13    216     0.0  0.00   0.0   0.000   0.034   20.9    71   15.5   21.1    0.00   351    1    100.0   15 
 1/11/22  16.00   21.3   21.6   21.3    76   16.9   0.0   ESE   0.00   1.6   ESE   21.3   21.8   21.8   23.4   568.7  0.00   0.0   111     2.39    158     0.0  0.00   0.0   0.000   0.031   20.8    71   15.4   21.1    0.13   352    1    100.0   15 
 1/11/22  16.15   21.1   21.3   21.1    77   16.9   0.0   ---   0.00   0.0   ---   21.1   21.6   21.6   22.6   568.7  0.00   0.0    76     1.63     97     0.0  0.00   0.0   0.000   0.029   20.7    72   15.5   21.0    0.00   351    1    100.0   15 
 1/11/22  16.30   20.9   21.1   20.9    78   17.0   0.0   ---   0.00   0.0   ---   20.9   21.5   21.5   21.9   568.7  0.00   0.0    51     1.10     62     0.0  0.00   0.0   0.000   0.027   20.6    72   15.4   20.9    0.00   351    1    100.0   15 
 1/11/22  16.45   20.7   20.9   20.7    79   16.9   0.0   ---   0.00   0.0   ---   20.7   21.4   21.4   21.4   568.7  0.00   0.0    32     0.69     33     0.0  0.00   0.0   0.000   0.024   20.6    72   15.4   20.9    0.00   351    1    100.0   15 
 1/11/22  17.00   20.4   20.7   20.4    79   16.7   0.0     W   0.00   1.6     W   20.4   21.2   21.2   20.9   568.7  0.00   0.0    20     0.43     30     0.0  0.00   0.0   0.000   0.022   20.6    72   15.3   20.9    0.03   351    1    100.0   15 
 1/11/22  17.15   19.8   20.4   19.8    80   16.3   0.0   ---   0.00   0.0   ---   19.8   20.5   20.5   19.4   568.7  0.00   0.0     1     0.02      7     0.0  0.00   0.0   0.000   0.016   20.6    72   15.3   20.9    0.00   350    1    100.0   15 
 1/11/22  17.30   19.0   19.9   19.0    81   15.7   0.0   ---   0.00   0.0   ---   19.0   19.6   19.6   18.4   568.7  0.00   0.0     0     0.00      0     0.0  0.00   0.0   0.000   0.007   20.4    72   15.2   20.8    0.00   351    1    100.0   15 
 1/11/22  17.45   18.5   18.9   18.5    83   15.6   0.0   ---   0.00   0.0   ---   18.5   18.9   18.9   17.8   568.7  0.00   0.0     0     0.00      0     0.0  0.00   0.0   0.000   0.002   20.4    73   15.4   20.9    0.00   351    1    100.0   15 
 1/11/22  18.00   18.3   18.5   18.2    83   15.3   0.0   ---   0.00   0.0   ---   18.3   18.7   18.7   17.5   568.7  0.00   0.0     0     0.00      0     0.0  0.00   0.0   0.001   0.000   20.3    73   15.3   20.8    0.00   350    1    100.0   15 
 1/11/22  18.15   17.9   18.3   17.9    84   15.2   0.0   ---   0.00   0.0   ---   17.9   18.3   18.3   17.1   568.7  0.00   0.0     0     0.00      0     0.0  0.00   0.0   0.004   0.000   20.3    73   15.3   20.8    0.00   352    1    100.0   15 
 1/11/22  18.30   17.6   17.9   17.6    84   14.9   0.0   ---   0.00   0.0   ---   17.6   17.9   17.9   16.7   568.7  0.00   0.0     0     0.00      0     0.0  0.00   0.0   0.008   0.000   20.3    73   15.3   20.8    0.00   351    1    100.0   15 
 1/11/22  18.45   17.4   17.7   17.4    85   14.9   0.0   ---   0.00   0.0   ---   17.4   17.7   17.7   16.6   568.7  0.00   0.0     0     0.00      0     0.0  0.00   0.0   0.009   0.000   20.3    73   15.3   20.7    0.00   351    1    100.0   15 
 1/11/22  19.00   16.9   17.4   16.9    85   14.4   0.0   ---   0.00   0.0   ---   16.9   17.2   17.2   15.9   568.7  0.00   0.0     0     0.00      0     0.0  0.00   0.0   0.014   0.000   20.3    73   15.3   20.7    0.03   351    1    100.0   15 
 1/11/22  19.15   16.5   16.9   16.5    86   14.1   0.0   ---   0.00   0.0   ---   16.5   16.7   16.7   15.4   568.7  0.00   0.0     0     0.00      0     0.0  0.00   0.0   0.019   0.000   20.2    73   15.2   20.6    0.00   349    1    100.0   15 
 1/11/22  19.30   16.3   16.5   16.3    86   14.0   0.0   ---   0.00   0.0   ---   16.3   16.5   16.5   15.3   568.7  0.00   0.0     0     0.00      0     0.0  0.00   0.0   0.021   0.000   20.2    73   15.2   20.6    0.00   351    1    100.0   15 
 1/11/22  19.45   16.2   16.3   16.1    86   13.8   0.0   ---   0.00   0.0   ---   16.2   16.3   16.3   15.1   568.7  0.00   0.0     0     0.00      0     0.0  0.00   0.0   0.023   0.000   20.2    73   15.2   20.6    0.00   350    1    100.0   15 
 1/11/22  20.00   16.4   16.4   16.2    87   14.3   0.0   ---   0.00   0.0   ---   16.4   16.6   16.6   15.4   568.7  0.00   0.0     0     0.00      0     0.0  0.00   0.0   0.020   0.000   20.1    73   15.1   20.5    0.00   350    1    100.0   15 
 1/11/22  20.15   16.2   16.5   16.2    87   14.0   0.0   ---   0.00   0.0   ---   16.2   16.3   16.3   15.1   568.7  0.00   0.0     0     0.00      0     0.0  0.00   0.0   0.023   0.000   20.1    72   14.9   20.4    0.00   352    1    100.0   15 
 1/11/22  20.30   15.7   16.2   15.7    87   13.5   0.0   ---   0.00   0.0   ---   15.7   15.8   15.8   14.6   568.7  0.00   0.0     0     0.00      0     0.0  0.00   0.0   0.028   0.000   20.1    72   14.9   20.4    0.00   351    1    100.0   15 
 1/11/22  20.45   15.5   15.7   15.5    87   13.3   0.0   ---   0.00   0.0   ---   15.5   15.6   15.6   14.4   568.7  0.00   0.0     0     0.00      0     0.0  0.00   0.0   0.030   0.000   20.0    72   14.8   20.4    0.00   350    1    100.0   15 
 1/11/22  21.00   15.6   15.6   15.5    87   13.5   0.0   ---   0.00   0.0   ---   15.6   15.7   15.7   14.5   568.7  0.00   0.0     0     0.00      0     0.0  0.00   0.0   0.028   0.000   20.0    72   14.8   20.4    0.00   351    1    100.0   15 
 1/11/22  21.15   15.5   15.6   15.2    88   13.5   0.0   ---   0.00   0.0   ---   15.5   15.6   15.6   14.4   568.7  0.00   0.0     0     0.00      0     0.0  0.00   0.0   0.030   0.000   20.0    72   14.8   20.4    0.00   351    1    100.0   15 
 1/11/22  21.30   15.4   15.6   15.3    87   13.2   0.0   ---   0.00   0.0   ---   15.4   15.5   15.5   14.2   568.7  0.00   0.0     0     0.00      0     0.0  0.00   0.0   0.031   0.000   19.9    72   14.7   20.3    0.00   352    1    100.0   15 
 1/11/22  21.45   15.4   15.7   15.3    88   13.5   0.0   ---   0.00   0.0   ---   15.4   15.6   15.6   14.3   568.7  0.00   0.0     0     0.00      0     0.0  0.00   0.0   0.030   0.000   19.9    72   14.7   20.3    0.00   350    1    100.0   15 
 1/11/22  22.00   15.1   15.5   15.0    88   13.1   0.0   ---   0.00   0.0   ---   15.1   15.1   15.1   13.8   568.7  0.00   0.0     0     0.00      0     0.0  0.00   0.0   0.034   0.000   19.9    71   14.5   20.2    0.00   351    1    100.0   15 
 1/11/22  22.15   15.2   15.3   15.1    88   13.2   0.0   ---   0.00   0.0   ---   15.2   15.3   15.3   14.1   568.7  0.00   0.0     0     0.00      0     0.0  0.00   0.0   0.032   0.000   19.8    71   14.4   20.1    0.00   350    1    100.0   15 
 1/11/22  22.30   14.6   15.3   14.6    88   12.6   0.0   ---   0.00   0.0   ---   14.6   14.6   14.6   13.3   568.7  0.00   0.0     0     0.00      0     0.0  0.00   0.0   0.039   0.000   19.8    71   14.4   20.1    0.00   351    1    100.0   15 
 1/11/22  22.45   14.8   14.9   14.6    88   12.8   0.0   ---   0.00   0.0   ---   14.8   14.8   14.8   13.6   568.7  0.00   0.0     0     0.00      0     0.0  0.00   0.0   0.037   0.000   19.8    71   14.4   20.1    0.00   350    1    100.0   15 
 1/11/22  23.00   15.3   15.4   14.6    89   13.5   0.0   ---   0.00   0.0   ---   15.3   15.4   15.4   14.2   568.7  0.00   0.0     0     0.00      0     0.0  0.00   0.0   0.032   0.000   19.7    71   14.3   20.1    0.00   351    1    100.0   15 
 1/11/22  23.15   15.0   15.4   14.9    89   13.2   0.0   ---   0.00   0.0   ---   15.0   15.1   15.1   13.8   568.7  0.00   0.0     0     0.00      0     0.0  0.00   0.0   0.035   0.000   19.7    71   14.3   20.1    0.00   351    1    100.0   15 
 1/11/22  23.30   15.5   15.6   14.9    89   13.7   0.0   ---   0.00   0.0   ---   15.5   15.7   15.7   14.4   568.7  0.00   0.0     0     0.00      0     0.0  0.00   0.0   0.030   0.000   19.7    71   14.3   20.1    0.00   352    1    100.0   15 
 1/11/22  23.45   15.5   15.6   15.0    89   13.7   0.0   ---   0.00   0.0   ---   15.5   15.7   15.7   14.4   568.7  0.00   0.0     0     0.00      0     0.0  0.00   0.0   0.030   0.000   19.6    71   14.2   19.9    0.00   351    1    100.0   15 
 2/11/22  00.00   15.0   15.5   14.9    89   13.2   0.0   ---   0.00   0.0   ---   15.0   15.1   15.1   13.8   568.7  0.00   0.0     0     0.00      0     0.0  0.00   0.0   0.035   0.000   19.7    71   14.3   20.1    0.00   351    1    100.0   15 
 2/11/22   0.15   15.0   15.1   14.9    89   13.2   0.0   ---   0.00   0.0   ---   15.0   15.1   15.1   13.8   568.7  0.00   0.0     0     0.00      0     0.0  0.00   0.0   0.035   0.000   19.6    71   14.2   19.9    0.00   350    1    100.0   15 
 2/11/22   0.30   15.0   15.1   14.8    89   13.2   0.0   ---   0.00   0.0   ---   15.0   15.1   15.1   13.8   568.7  0.00   0.0     0     0.00      0     0.0  0.00   0.0   0.035   0.000   19.7    70   14.1   20.0    0.00   351    1    100.0   15 
 2/11/22   0.45   14.8   15.2   14.8    89   13.0   0.0   ---   0.00   0.0   ---   14.8   14.8   14.8   13.6   568.7  0.00   0.0     0     0.00      0     0.0  0.00   0.0   0.037   0.000   19.6    70   14.0   19.9    0.00   351    1    100.0   15 
 2/11/22   1.00   14.5   14.8   14.5    89   12.7   0.0   ---   0.00   0.0   ---   14.5   14.6   14.6   13.3   568.7  0.00   0.0     0     0.00      0     0.0  0.00   0.0   0.040   0.000   19.6    70   14.0   19.9    0.00   352    1    100.0   15 
 2/11/22   1.15   14.3   14.5   14.0    89   12.5   0.0   ---   0.00   0.0   ---   14.3   14.4   14.4   13.1   568.7  0.00   0.0     0     0.00      0     0.0  0.00   0.0   0.042   0.000   19.6    70   14.0   19.9    0.00   350    1    100.0   15 
 2/11/22   1.30   14.5   14.5   14.2    90   12.9   0.0   ---   0.00   0.0   ---   14.5   14.6   14.6   13.3   568.7  0.00   0.0     0     0.00      0     0.0  0.00   0.0   0.040   0.000   19.5    70   13.9   19.7    0.00   351    1    100.0   15 
 2/11/22   1.45   14.3   14.7   14.3    90   12.7   0.0   ---   0.00   0.0   ---   14.3   14.4   14.4   13.1   568.7  0.00   0.0     0     0.00      0     0.0  0.00   0.0   0.042   0.000   19.5    70   13.9   19.7    0.00   351    1    100.0   15 
 2/11/22   2.00   14.7   14.7   14.1    90   13.0   0.0   ---   0.00   0.0   ---   14.7   14.7   14.7   13.4   568.7  0.00   0.0     0     0.00      0     0.0  0.00   0.0   0.038   0.000   19.5    70   13.9   19.7    0.00   350    1    100.0   15 
 2/11/22   2.15   14.2   14.7   14.1    90   12.5   0.0   ---   0.00   0.0   ---   14.2   14.2   14.2   12.9   568.7  0.00   0.0     0     0.00      0     0.0  0.00   0.0   0.043   0.000   19.5    70   13.9   19.7    0.00   351    1    100.0   15 
 2/11/22   2.30   14.9   14.9   14.2    90   13.3   0.0   ---   0.00   0.0   ---   14.9   15.0   15.0   13.7   568.7  0.00   0.0     0     0.00      0     0.0  0.00   0.0   0.036   0.000   19.5    70   13.9   19.7    0.00   351    1    100.0   15 
 2/11/22   2.45   13.9   14.9   13.6    90   12.3   0.0   ---   0.00   0.0   ---   13.9   14.0   14.0   12.7   568.7  0.00   0.0     0     0.00      0     0.0  0.00   0.0   0.046   0.000   19.4    69   13.6   19.6    0.00   351    1    100.0   15 
 2/11/22   3.00   14.2   14.3   14.0    90   12.6   0.0   ---   0.00   0.0   ---   14.2   14.3   14.3   13.0   568.7  0.00   0.0     0     0.00      0     0.0  0.00   0.0   0.043   0.000   19.4    69   13.6   19.6    0.00   351    1    100.0   15 
 2/11/22   3.15   14.4   14.6   14.1    90   12.8   0.0   ---   0.00   0.0   ---   14.4   14.4   14.4   13.2   568.7  0.00   0.0     0     0.00      0     0.0  0.00   0.0   0.041   0.000   19.4    69   13.6   19.6    0.00   351    1    100.0   15 
 2/11/22   3.30   14.2   14.4   14.2    90   12.5   0.0   ---   0.00   0.0   ---   14.2   14.2   14.2   12.9   568.7  0.00   0.0     0     0.00      0     0.0  0.00   0.0   0.043   0.000   19.4    69   13.6   19.6    0.00   351    1    100.0   15 
 2/11/22   3.45   14.3   14.3   14.1    90   12.7   0.0   ---   0.00   0.0   ---   14.3   14.3   14.3   13.1   568.7  0.00   0.0     0     0.00      0     0.0  0.00   0.0   0.042   0.000   19.4    69   13.6   19.6    0.00   351    1    100.0   15 
 2/11/22   4.00   14.6   14.6   14.3    90   12.9   0.0   ---   0.00   0.0   ---   14.6   14.6   14.6   13.3   568.7  0.00   0.0     0     0.00      0     0.0  0.00   0.0   0.039   0.000   19.4    69   13.6   19.6    0.00   351    1    100.0   15 
 2/11/22   4.15   14.6   14.6   14.5    90   13.0   0.0   ---   0.00   0.0   ---   14.6   14.7   14.7   13.4   568.7  0.00   0.0     0     0.00      0     0.0  0.00   0.0   0.039   0.000   19.4    69   13.6   19.6    0.00   352    1    100.0   15 
 2/11/22   4.30   14.5   14.7   14.4    91   13.0   0.0   ---   0.00   0.0   ---   14.5   14.6   14.6   13.3   568.7  0.00   0.0     0     0.00      0     0.0  0.00   0.0   0.040   0.000   19.3    69   13.5   19.5    0.00   351    1    100.0   15 
 2/11/22   4.45   14.4   15.1   14.4    91   12.9   0.0   ---   0.00   0.0   ---   14.4   14.4   14.4   13.2   568.7  0.00   0.0     0     0.00      0     0.0  0.00   0.0   0.041   0.000   19.3    70   13.7   19.6    0.00   351    1    100.0   15 
 2/11/22   5.00   14.5   14.6   14.3    91   13.0   0.0   ---   0.00   0.0   ---   14.5   14.6   14.6   13.3   568.7  0.00   0.0     0     0.00      0     0.0  0.00   0.0   0.040   0.000   19.3    70   13.7   19.6    0.00   351    1    100.0   15 
 2/11/22   5.15   14.7   14.7   14.2    91   13.2   0.0   ---   0.00   0.0   ---   14.7   14.8   14.8   13.5   568.7  0.00   0.0     0     0.00      0     0.0  0.00   0.0   0.038   0.000   19.3    70   13.7   19.6    0.00   350    1    100.0   15 
 2/11/22   5.30   14.6   14.8   14.6    91   13.1   0.0   ---   0.00   0.0   ---   14.6   14.7   14.7   13.4   568.7  0.00   0.0     0     0.00      0     0.0  0.00   0.0   0.039   0.000   19.3    70   13.7   19.6    0.00   351    1    100.0   15 
 2/11/22   5.45   14.6   15.1   14.6    91   13.2   0.0   ---   0.00   0.0   ---   14.6   14.7   14.7   13.4   568.7  0.00   0.0     0     0.00      0     0.0  0.00   0.0   0.039   0.000   19.3    70   13.7   19.6    0.00   351    1    100.0   15 
 2/11/22   6.00   15.4   15.4   14.5    91   13.9   0.0   ---   0.00   0.0   ---   15.4   15.6   15.6   14.3   568.7  0.00   0.0     0     0.00      0     0.0  0.00   0.0   0.031   0.000   19.3    70   13.7   19.6    0.00   349    1    100.0   15 
 2/11/22   6.15   15.2   15.4   15.1    91   13.7   0.0   ---   0.00   0.0   ---   15.2   15.3   15.3   14.1   568.7  0.00   0.0     0     0.00      0     0.0  0.00   0.0   0.033   0.000   19.3    70   13.7   19.6    0.00   351    1    100.0   15 
 2/11/22   6.30   15.5   15.5   15.0    91   14.0   0.0   ---   0.00   0.0   ---   15.5   15.7   15.7   14.4   568.7  0.00   0.0     0     0.00      0     0.0  0.00   0.0   0.030   0.000   19.3    71   13.9   19.6    0.00   352    1    100.0   15 
 2/11/22   6.45   15.4   15.7   15.4    91   13.9   0.0   ---   0.00   0.0   ---   15.4   15.6   15.6   14.3   568.7  0.00   0.0     0     0.00      0     0.0  0.00   0.0   0.031   0.000   19.3    71   13.9   19.6    0.00   351    1    100.0   15 
 2/11/22   7.00   15.9   16.0   15.3    91   14.5   0.0   ---   0.00   0.0   ---   15.9   16.2   16.2   15.0   568.7  0.00   0.0     2     0.04      9     0.0  0.00   0.0   0.025   0.000   19.3    71   13.9   19.6    0.00   348    1    100.0   15 
 2/11/22   7.15   15.3   15.9   15.3    91   13.9   0.0   ---   0.00   0.0   ---   15.3   15.5   15.5   14.4   568.7  0.00   0.0    10     0.22     11     0.0  0.00   0.0   0.031   0.000   19.3    71   13.9   19.6    0.00   351    1    100.0   15 
 2/11/22   7.30   15.4   15.4   15.1    91   13.9   0.0   ---   0.00   0.0   ---   15.4   15.6   15.6   14.6   568.7  0.00   0.0    20     0.43     32     0.0  0.00   0.0   0.031   0.000   19.3    71   13.9   19.6    0.00   352    1    100.0   15 
 2/11/22   7.45   15.1   15.5   15.1    91   13.7   0.0   ---   0.00   0.0   ---   15.1   15.3   15.3   14.4   568.7  0.00   0.0    27     0.58     35     0.0  0.00   0.0   0.034   0.000   19.3    72   14.2   19.6    0.00   350    1    100.0   15 
 2/11/22   8.00   16.1   16.1   15.1    91   14.6   0.0   ---   0.00   0.0   ---   16.1   16.3   16.3   15.7   568.7  0.00   0.0    45     0.97    105     0.0  0.00   0.0   0.024   0.000   19.3    72   14.2   19.6    0.03   351    1    100.0   15 
 2/11/22   8.15   16.1   16.1   15.8    91   14.6   0.0   ---   0.00   0.0   ---   16.1   16.3   16.3   17.7   568.7  0.00   0.0    96     2.06    151     0.0  0.00   0.0   0.024   0.000   19.3    72   14.2   19.6    0.00   351    1    100.0   15 
 2/11/22   8.30   16.6   16.6   16.1    91   15.1   0.0   ---   0.00   0.0   ---   16.6   16.9   16.9   20.2   568.7  0.00   0.0   202     4.34    301     0.0  0.00   0.0   0.018   0.000   19.4    72   14.3   19.7    0.00   351    1    100.0   15 
 2/11/22   8.45   17.6   17.6   16.6    91   16.1   0.0   ---   0.00   0.0   ---   17.6   18.1   18.1   19.8   568.7  0.00   0.0   113     2.43    278     0.0  0.00   0.0   0.008   0.000   19.4    72   14.3   19.7    0.00   352    1    100.0   15 
 2/11/22   9.00   18.7   18.7   17.7    91   17.2   0.0     E   0.00   3.2     E   18.7   19.3   19.3   23.9   568.7  0.00   0.0   285     6.13    330     0.0  0.00   0.0   0.000   0.003   19.5    72   14.3   19.8    0.10   350    1    100.0   15 
 2/11/22   9.15   19.7   19.7   18.7    88   17.6   0.0   SSE   0.00  14.5   SSE   19.7   20.5   20.5   25.4   568.7  0.00   0.0   321     6.90    338     0.0  0.00   0.0   0.000   0.014   19.5    72   14.3   19.8    0.00   351    1    100.0   15 
 2/11/22   9.30   19.8   20.0   19.7    85   17.2   1.6    SE   0.40  11.3   SSE   19.8   20.6   20.6   23.2   568.7  0.00   0.0   164     3.53    336     0.0  0.00   0.0   0.000   0.016   19.6    72   14.4   19.9    0.00   351    1    100.0   15 
 2/11/22   9.45   20.2   20.2   19.8    85   17.6   1.6    SE   0.40  14.5   SSE   20.2   21.1   21.1   24.2   568.7  0.00   0.0   204     4.39    376     0.0  0.00   0.0   0.000   0.019   19.6    72   14.4   19.9    0.00   352    1    100.0   15 
 2/11/22  10.00   20.3   20.4   20.2    83   17.3   3.2    SE   0.80  17.7   SSE   20.3   21.2   21.2   25.6   568.7  0.00   0.0   291     6.26    404     0.0  0.00   0.0   0.000   0.021   19.7    72   14.5   20.1    0.15   351    1    100.0   15 
 2/11/22  10.15   20.6   20.6   20.2    84   17.8   1.6    SE   0.40  12.9    SE   20.6   21.5   21.5   26.3   568.7  0.00   0.0   329     7.07    540     0.0  0.00   0.0   0.000   0.023   19.7    72   14.5   20.1    0.00   350    1    100.0   15 
 2/11/22  10.30   20.6   20.8   20.4    83   17.6   3.2    SE   0.80  19.3    SE   20.6   21.5   21.5   25.7   568.7  0.00   0.0   299     6.43    522     0.0  0.00   0.0   0.000   0.023   19.8    72   14.6   20.1    0.00   349    1    100.0   15 
 2/11/22  10.45   20.8   20.8   20.5    83   17.8   4.8    SE   1.21  19.3    SE   20.8   21.7   21.7   26.7   568.7  0.00   0.0   373     8.02    715     0.0  0.00   0.0   0.000   0.026   19.9    72   14.7   20.3    0.00   352    1    100.0   15 
 2/11/22  11.00   21.1   21.2   20.8    82   17.9   8.0    SE   2.01  20.9   ESE   21.1   21.8   21.8   28.2   568.7  0.00   0.0   575    12.36    612     0.0  0.00   0.0   0.000   0.028   20.0    72   14.8   20.4    0.23   350    1    100.0   15 
 2/11/22  11.15   21.1   21.1   21.0    82   17.9   8.0    SE   2.01  20.9   ESE   21.1   21.8   21.8   27.8   568.7  0.00   0.0   489    10.51    545     0.0  0.00   0.0   0.000   0.029   20.1    72   14.9   20.4    0.00   351    1    100.0   15 
 2/11/22  11.30   20.8   21.1   20.8    82   17.6   6.4    SE   1.61  20.9   SSE   20.8   21.6   21.6   25.5   568.7  0.00   0.0   299     6.43    504     0.0  0.00   0.0   0.000   0.026   20.2    72   15.0   20.6    0.00   350    1    100.0   15 
 2/11/22  11.45   21.1   21.1   20.8    82   17.9   6.4    SE   1.61  17.7     S   21.1   21.8   21.8   26.9   568.7  0.00   0.0   405     8.71    531     0.0  0.00   0.0   0.000   0.029   20.2    73   15.2   20.6    0.00   352    1    100.0   15 
 2/11/22  12.00   21.2   21.2   21.0    82   18.0   4.8    SE   1.21  17.7    SE   21.2   21.9   21.9   26.4   568.7  0.00   0.0   352     7.57    531     0.0  0.00   0.0   0.000   0.030   20.3    72   15.1   20.7    0.25   351    1    100.0   15 
 2/11/22  12.15   21.2   21.4   21.2    82   18.0   6.4    SE   1.61  20.9   SSE   21.2   21.9   21.9   26.2   568.7  0.00   0.0   336     7.22    483     0.0  0.00   0.0   0.000   0.030   20.3    72   15.1   20.7    0.00   351    1    100.0   15 
 2/11/22  12.30   21.1   21.3   21.1    82   17.9   6.4   SSE   1.61  19.3   SSE   21.1   21.8   21.8   26.2   568.7  0.00   0.0   346     7.44    533     0.0  0.00   0.0   0.000   0.029   20.3    73   15.3   20.8    0.00   350    1    100.0   15 
 2/11/22  12.45   21.3   21.3   21.1    82   18.1   4.8   SSE   1.21  17.7   SSE   21.3   22.0   22.0   27.0   568.7  0.00   0.0   401     8.62    490     0.0  0.00   0.0   0.000   0.031   20.4    73   15.4   20.9    0.00   350    1    100.0   15 
 2/11/22  13.00   21.7   21.7   21.2    82   18.5   3.2    SE   0.80  16.1    SE   21.7   22.5   22.5   27.7   568.7  0.00   0.0   417     8.97    589     0.0  0.00   0.0   0.000   0.035   20.6    73   15.5   21.0    0.23   352    1    100.0   15 
 2/11/22  13.15   21.6   21.7   21.5    81   18.2   3.2   SSE   0.80  16.1     S   21.6   22.3   22.3   27.4   568.7  0.00   0.0   398     8.56    548     0.0  0.00   0.0   0.000   0.034   20.7    72   15.5   21.0    0.00   350    1    100.0   15 
 2/11/22  13.30   21.4   21.6   21.3    81   18.0   3.2   SSE   0.80  11.3   SSE   21.4   22.2   22.2   26.2   568.7  0.00   0.0   307     6.60    554     0.0  0.00   0.0   0.000   0.032   20.7    73   15.7   21.1    0.00   350    1    100.0   15 
 2/11/22  13.45   21.6   21.9   21.5    79   17.8   1.6   SSE   0.40  12.9    SE   21.6   22.2   22.2   27.9   568.7  0.00   0.0   456     9.81    538     0.0  0.00   0.0   0.000   0.034   20.9    72   15.7   21.2    0.00   350    1    100.0   15 
 2/11/22  14.00   21.7   21.9   21.6    79   17.9   1.6   SSE   0.40  14.5   SSE   21.7   22.3   22.3   27.8   568.7  0.00   0.0   417     8.97    480     0.0  0.00   0.0   0.000   0.035   21.1    72   15.9   21.3    0.23   352    1    100.0   15 
 2/11/22  14.15   21.6   21.8   21.5    80   18.0   0.0     S   0.00   8.0    SE   21.6   22.3   22.3   25.4   568.7  0.00   0.0   225     4.84    482     0.0  0.00   0.0   0.000   0.034   21.0    72   15.8   21.2    0.00   349    1    100.0   15 
 2/11/22  14.30   21.8   21.8   21.6    77   17.6   4.8   SSW   1.21  17.7     S   21.8   22.3   22.3   27.6   568.7  0.00   0.0   383     8.24    446     0.0  0.00   0.0   0.000   0.036   21.2    72   16.0   21.4    0.00   351    1    100.0   15 
 2/11/22  14.45   21.6   21.8   21.6    77   17.4   4.8   SSW   1.21  16.1   SSW   21.6   22.1   22.1   26.6   568.7  0.00   0.0   311     6.69    332     0.0  0.00   0.0   0.000   0.034   21.1    72   15.9   21.3    0.00   350    1    100.0   15 
 2/11/22  15.00   21.6   21.7   21.5    76   17.2   1.6     S   0.40  14.5   SSW   21.6   22.1   22.1   26.3   568.7  0.00   0.0   284     6.11    306     0.0  0.00   0.0   0.000   0.034   21.1    72   15.9   21.3    0.18   352    1    100.0   15 
 2/11/22  15.15   21.5   21.6   21.5    76   17.1   1.6   SSW   0.40   9.7   SSW   21.5   21.9   21.9   25.4   568.7  0.00   0.0   228     4.90    272     0.0  0.00   0.0   0.000   0.033   21.0    72   15.8   21.2    0.00   351    1    100.0   15 
 2/11/22  15.30   20.9   21.5   20.9    77   16.7   3.2   SSW   0.80  16.1     S   20.9   21.4   21.4   23.2   568.7  0.00   0.0   127     2.73    262     0.0  0.00   0.0   0.000   0.027   20.9    73   15.9   21.2    0.00   351    1    100.0   15 
 2/11/22  15.45   20.8   20.9   20.8    77   16.6   1.6     S   0.40  16.1     S   20.8   21.3   21.3   22.3   568.7  0.00   0.0    85     1.83    153     0.0  0.00   0.0   0.000   0.025   20.8    73   15.8   21.2    0.00   351    1    100.0   15 
 2/11/22  16.00   20.6   20.8   20.6    79   16.8   3.2     S   0.80  16.1   SSW   20.6   21.4   21.4   21.9   568.7  0.00   0.0    59     1.27     91     0.0  0.00   0.0   0.000   0.024   20.7    73   15.7   21.1    0.08   351    1    100.0   15 
 2/11/22  16.15   20.4   20.6   20.4    80   16.9   3.2     S   0.80  16.1     S   20.4   21.3   21.3   21.0   568.7  0.00   0.0    26     0.56     33     0.0  0.00   0.0   0.000   0.022   20.7    73   15.7   21.1    0.00   352    1    100.0   15 
 2/11/22  16.30   20.5   20.5   20.4    81   17.1   1.6     S   0.40  14.5   SSE   20.5   21.3   21.3   20.9   568.7  0.00   0.0    20     0.43     21     0.0  0.00   0.0   0.000   0.023   20.6    73   15.6   21.0    0.00   351    1    100.0   15 
 2/11/22  16.45   20.5   20.5   20.4    80   16.9   3.2     S   0.80  17.7   SSW   20.5   21.3   21.3   20.9   568.7  0.00   0.0    16     0.34     21     0.0  0.00   0.0   0.000   0.023   20.6    74   15.8   21.1    0.00   351    1    100.0   15 
 2/11/22  17.00   20.6   20.7   20.5    80   17.0   4.8     S   1.21  20.9   SSW   20.6   21.4   21.4   20.7   568.7  0.00   0.0     6     0.13     11     0.0  0.00   0.0   0.000   0.024   20.6    74   15.8   21.1    0.03   351    1    100.0   15 
 2/11/22  17.15   20.7   20.7   20.6    80   17.1   6.4     S   1.61  20.9   SSW   20.7   21.4   21.4   20.4   568.7  0.00   0.0     0     0.00      0     0.0  0.00   0.0   0.000   0.024   20.6    74   15.8   21.1    0.00   351    1    100.0   15 
 2/11/22  17.30   20.6   20.7   20.6    80   17.0   6.4   SSW   1.61  19.3     S   20.6   21.4   21.4   20.4   568.7  0.00   0.0     0     0.00      0     0.0  0.00   0.0   0.000   0.024   20.6    74   15.8   21.1    0.00   349    1    100.0   15 
 2/11/22  17.45   20.8   20.8   20.6    80   17.2   6.4   SSW   1.61  22.5   SSW   20.8   21.5   21.5   20.4   568.7  0.00   0.0     0     0.00      0     0.0  0.00   0.0   0.000   0.025   20.4    74   15.7   20.9    0.00   351    1    100.0   15 
 2/11/22  18.00   20.9   21.0   20.8    82   17.8   6.4     S   1.61  20.9    SW   20.9   21.7   21.7   20.7   568.7  0.00   0.0     0     0.00      0     0.0  0.00   0.0   0.000   0.027   20.4    74   15.7   20.9    0.03   351    1    100.0   15 
 2/11/22  18.15   20.9   20.9   20.8    82   17.7   4.8     S   1.21  19.3   SSW   20.9   21.7   21.7   20.6   568.7  0.00   0.0     0     0.00      0     0.0  0.00   0.0   0.000   0.027   20.4    75   15.9   21.0    0.00   351    1    100.0   15 
 2/11/22  18.30   21.0   21.1   20.8    82   17.8   3.2   SSW   0.80  19.3     S   21.0   21.7   21.7   20.7   568.7  0.00   0.0     0     0.00      0     0.0  0.00   0.0   0.000   0.028   20.4    75   15.9   21.0    0.00   351    1    100.0   15 
 2/11/22  18.45   21.1   21.2   21.0    83   18.1   3.2     S   0.80  20.9     S   21.1   21.8   21.8   20.8   568.7  0.00   0.0     0     0.00      0     0.0  0.00   0.0   0.000   0.029   20.4    75   15.9   21.0    0.00   351    1    100.0   15 
 2/11/22  19.00   21.3   21.3   21.1    83   18.3   4.8     S   1.21  25.7   SSE   21.3   22.1   22.1   21.1   568.7  0.00   0.0     0     0.00      0     0.0  0.00   0.0   0.000   0.031   20.3    75   15.8   20.9    0.03   351    1    100.0   15 
 2/11/22  19.15   21.4   21.4   21.3    82   18.2   6.4     S   1.61  24.1   SSE   21.4   22.2   22.2   21.2   568.7  0.00   0.0     0     0.00      0     0.0  0.00   0.0   0.000   0.032   20.4    75   15.9   21.0    0.00   352    1    100.0   15 
 2/11/22  19.30   21.5   21.5   21.4    83   18.5   9.7     S   2.41  27.4   SSE   21.5   22.3   22.3   21.3   568.7  0.00   0.0     0     0.00      0     0.0  0.00   0.0   0.000   0.033   20.4    75   15.9   21.0    0.00   350    1    100.0   15 
 2/11/22  19.45   21.6   21.6   21.4    83   18.5  11.3     S   2.82  29.0     S   21.6   22.4   22.4   21.4   568.7  0.00   0.0     0     0.00      0     0.0  0.00   0.0   0.000   0.034   20.3    76   16.0   20.9    0.00   351    1    100.0   15 
 2/11/22  20.00   21.6   21.6   21.5    83   18.5   8.0     S   2.01  30.6   SSE   21.6   22.4   22.4   21.4   568.7  0.00   0.0     0     0.00      0     0.0  0.00   0.0   0.000   0.034   20.4    76   16.1   21.1    0.03   351    1    100.0   15 
 2/11/22  20.15   21.5   21.6   21.5    83   18.5   8.0     S   2.01  29.0   SSW   21.5   22.3   22.3   21.3   568.7  0.00   0.0     0     0.00      0     0.0  0.00   0.0   0.000   0.033   20.4    76   16.1   21.1    0.00   351    1    100.0   15 
 2/11/22  20.30   21.5   21.6   21.5    83   18.5   8.0     S   2.01  24.1     S   21.5   22.3   22.3   21.3   568.7  0.00   0.0     0     0.00      0     0.0  0.00   0.0   0.000   0.033   20.4    76   16.1   21.1    0.00   351    1    100.0   15 
 2/11/22  20.45   21.6   21.6   21.5    84   18.8   8.0     S   2.01  30.6   SSE   21.6   22.6   22.6   21.6   568.7  0.00   0.0     0     0.00      0     0.0  0.00   0.0   0.000   0.034   20.4    76   16.1   21.1    0.00   351    1    100.0   15 
 2/11/22  21.00   21.6   21.7   21.6    84   18.8   6.4     S   1.61  25.7   SSW   21.6   22.6   22.6   21.6   568.7  0.00   0.0     0     0.00      0     0.0  0.00   0.0   0.000   0.034   20.4    76   16.1   21.1    0.03   351    1    100.0   15 
 2/11/22  21.15   21.6   21.7   21.6    84   18.8   8.0     S   2.01  27.4   SSW   21.6   22.6   22.6   21.6   568.7  0.00   0.0     0     0.00      0     0.0  0.00   0.0   0.000   0.034   20.4    76   16.1   21.1    0.00   351    1    100.0   15 
 2/11/22  21.30   21.6   21.7   21.6    84   18.8   8.0     S   2.01  24.1     S   21.6   22.6   22.6   21.6   568.7  0.00   0.0     0     0.00      0     0.0  0.00   0.0   0.000   0.034   20.4    76   16.1   21.1    0.00   351    1    100.0   15 
 2/11/22  21.45   21.7   21.7   21.6    84   18.8   9.7     S   2.41  30.6     S   21.7   22.6   22.6   21.6   568.7  0.00   0.0     0     0.00      0     0.0  0.00   0.0   0.000   0.035   20.4    76   16.1   21.1    0.00   351    1    100.0   15 
 2/11/22  22.00   21.7   21.7   21.6    84   18.8  11.3     S   2.82  33.8     S   21.7   22.6   22.6   21.6   568.7  0.00   0.0     0     0.00      0     0.0  0.00   0.0   0.000   0.035   20.4    77   16.3   21.1    0.03   351    1    100.0   15 
 2/11/22  22.15   21.7   21.8   21.6    84   18.9  11.3   SSW   2.82  30.6   SSW   21.7   22.7   22.7   21.7   568.7  0.00   0.0     0     0.00      0     0.0  0.00   0.0   0.000   0.035   20.6    77   16.4   21.2    0.00   351    1    100.0   15 
 2/11/22  22.30   21.7   21.8   21.7    84   18.9   9.7     S   2.41  27.4   SSE   21.7   22.7   22.7   21.7   568.7  0.00   0.0     0     0.00      0     0.0  0.00   0.0   0.000   0.035   20.6    77   16.4   21.2    0.00   352    1    100.0   15 
 2/11/22  22.45   21.8   21.8   21.7    83   18.8  11.3     S   2.82  27.4   SSE   21.8   22.7   22.7   21.7   568.7  0.00   0.0     0     0.00      0     0.0  0.00   0.0   0.000   0.036   20.6    77   16.4   21.2    0.00   351    1    100.0   15 
 2/11/22  23.00   21.8   21.8   21.8    84   19.0  11.3     S   2.82  29.0     S   21.8   22.7   22.7   21.8   568.7  0.00   0.0     0     0.00      0     0.0  0.00   0.0   0.000   0.036   20.4    77   16.3   21.1    0.03   350    1    100.0   15 
 2/11/22  23.15   21.6   21.8   21.6    85   18.9   8.0     S   2.01  25.7     S   21.6   22.5   22.5   21.6   568.7  0.00   0.0     0     0.00      0     0.0  0.00   0.0   0.000   0.034   20.6    77   16.4   21.2    0.00   351    1    100.0   15 
 2/11/22  23.30   21.5   21.6   21.4    86   19.1  12.9     S   3.22  33.8   SSW   21.2   22.5   22.2   21.3   568.7  0.00   0.0     0     0.00      0     0.0  0.00   0.0   0.000   0.033   20.6    77   16.4   21.2    0.00   351    1    100.0   15 
 3/11/22  11.58   13.9   22.2   19.9    71    8.9 104.3  Star   0.00  84.0   ENE    7.5   13.6    7.1  370.4  ------1579.881000.8   780     0.00    580    14.0  0.00   0.2   0.000   0.000   18.5    56    9.6   17.9    0.05   310    6      0.0    0 
 3/11/22-531.00   13.0  116.3    ---    57    4.6 111.7   WNW 474.68  89.6     N    6.2   12.2    5.4    6.1  ------2019.301353.8   573   209.46    653     3.0  5.46   6.0   0.944   0.000  -11.4    65  -16.8  -11.6    0.38   717    1     12.3  255 
 3/11/22   0.15   18.6   21.3   18.6    85   16.0   4.8   SSE   1.21  24.1   WSW   18.6   19.1   19.1   17.9   568.7  6.10 153.9     0     0.00      0     0.0  0.00   0.0   0.000   0.002   20.6    77   16.4   21.2    0.00   350    1    100.0   15 
 3/11/22   0.30   18.7   18.7   18.5    87   16.5   0.0   ---   0.00   0.0   ---   18.7   19.2   19.2   18.2   568.7  0.51   5.3     0     0.00      0     0.0  0.00   0.0   0.000   0.003   20.6    77   16.4   21.2    0.00   351    1    100.0   15 
 3/11/22   0.45   18.8   18.8   18.7    87   16.6   3.2   SSE   0.80   9.7   SSE   18.8   19.4   19.4   18.4   568.7  0.00   0.0     0     0.00      0     0.0  0.00   0.0   0.000   0.005   20.6    77   16.4   21.2    0.00   350    1    100.0   15 
 3/11/22   1.00   18.6   18.9   18.6    88   16.6   3.2     S   0.80   8.0   SSE   18.6   19.2   19.2   18.2   568.7  0.00   0.0     0     0.00      0     0.0  0.00   0.0   0.000   0.003   20.4    78   16.5   21.2    0.03   352    1    100.0   15 
 3/11/22   1.15   18.6   18.7   18.6    88   16.6   1.6     W   0.40   9.7     W   18.6   19.2   19.2   18.2   568.7  0.00   0.0     0     0.00      0     0.0  0.00   0.0   0.000   0.003   20.4    78   16.5   21.2    0.00   350    1    100.0   15 
 3/11/22   1.30   18.7   18.7   18.6    88   16.7   3.2     W   0.80   8.0     W   18.7   19.3   19.3   18.3   568.7  0.00   0.0     0     0.00      0     0.0  0.00   0.0   0.000   0.004   20.4    77   16.3   21.1    0.00   350    1    100.0   15 
 3/11/22   1.45   18.8   18.9   18.7    88   16.8   4.8   SSW   1.21  11.3    SW   18.8   19.5   19.5   18.4   568.7  0.00   0.0     0     0.00      0     0.0  0.00   0.0   0.000   0.005   20.4    77   16.3   21.1    0.00   351    1    100.0   15 
 3/11/22   2.00   18.5   18.8   18.5    88   16.5   1.6    SW   0.40   9.7   WSW   18.5   19.1   19.1   18.0   568.7  0.51   1.8     0     0.00      0     0.0  0.00   0.0   0.000   0.002   20.3    78   16.4   21.0    0.03   351    1    100.0   15 
 3/11/22   2.15   18.1   18.5   18.1    88   16.0   0.0   WSW   0.00   3.2   WSW   18.1   18.5   18.5   17.4   568.7  0.76   5.3     0     0.00      0     0.0  0.00   0.0   0.003   0.000   20.4    78   16.5   21.2    0.00   352    1    100.0   15 
 3/11/22   2.30   17.6   18.1   17.5    88   15.5   3.2   WNW   0.80  11.3     W   17.6   17.9   17.9   16.8   568.7  1.02   4.3     0     0.00      0     0.0  0.00   0.0   0.008   0.000   20.3    77   16.2   20.9    0.00   350    1    100.0   15 
 3/11/22   2.45   17.5   17.6   17.5    88   15.5   0.0     E   0.00   8.0     E   17.5   17.9   17.9   16.8   568.7  1.78  11.4     0     0.00      0     0.0  0.00   0.0   0.009   0.000   20.3    77   16.2   20.9    0.00   350    1    100.0   15 
 3/11/22   3.00   17.6   17.6   17.4    88   15.6   3.2     W   0.80  16.1    NW   17.6   18.0   18.0   16.9   568.7  0.25   3.8     0     0.00      0     0.0  0.00   0.0   0.008   0.000   20.3    77   16.2   20.9    0.00   349    1    100.0   15 
 3/11/22   3.15   17.5   17.6   17.4    87   15.3   4.8     W   1.21  16.1    SW   17.5   17.8   17.8   16.7   568.7  0.00   0.0     0     0.00      0     0.0  0.00   0.0   0.009   0.000   20.3    77   16.2   20.9    0.00   351    1    100.0   15 
 3/11/22   3.30   17.7   17.7   17.4    87   15.5   3.2   SSW   0.80   6.4   SSW   17.7   18.1   18.1   16.9   568.7  0.00   0.0     0     0.00      0     0.0  0.00   0.0   0.007   0.000   20.3    77   16.1   20.9    0.00   350    1    100.0   15 
 3/11/22   3.45   17.5   17.7   17.5    87   15.3   1.6   SSW   0.40   8.0   SSW   17.5   17.8   17.8   16.7   568.7  0.00   0.0     0     0.00      0     0.0  0.00   0.0   0.009   0.000   20.3    77   16.1   20.9    0.00   351    1    100.0   15 
 3/11/22   4.00   17.5   17.6   17.5    87   15.3   0.0   ---   0.00   0.0   ---   17.5   17.8   17.8   16.7   568.7  0.00   0.0     0     0.00      0     0.0  0.00   0.0   0.009   0.000   20.3    77   16.1   20.9    0.03   350    1    100.0   15 
 3/11/22   4.15   17.4   17.5   17.4    88   15.4   0.0   ---   0.00   0.0   ---   17.4   17.8   17.8   16.7   568.7  0.00   0.0     0     0.00      0     0.0  0.00   0.0   0.009   0.000   20.3    77   16.1   20.9    0.00   352    1    100.0   15 
 3/11/22   4.30   17.4   17.5   17.3    88   15.4   0.0   ---   0.00   0.0   ---   17.4   17.7   17.7   16.6   568.7  0.00   0.0     0     0.00      0     0.0  0.00   0.0   0.010   0.000   20.3    77   16.1   20.9    0.00   351    1    100.0   15 
 3/11/22   4.45   17.2   17.3   17.2    88   15.2   0.0   ---   0.00   0.0   ---   17.2   17.6   17.6   16.4   568.7  0.00   0.0     0     0.00      0     0.0  0.00   0.0   0.012   0.000   20.3    77   16.1   20.9    0.00   351    1    100.0   15 
 3/11/22   5.00   17.4   17.5   17.2    89   15.6   0.0   ---   0.00   0.0   ---   17.4   17.8   17.8   16.7   568.7  0.00   0.0     0     0.00      0     0.0  0.00   0.0   0.009   0.000   20.3    77   16.1   20.9    0.00   351    1    100.0   15 
 3/11/22   5.15   17.2   17.4   17.1    89   15.4   0.0   ---   0.00   0.0   ---   17.2   17.6   17.6   16.5   568.7  0.00   0.0     0     0.00      0     0.0  0.00   0.0   0.012   0.000   20.2    77   16.0   20.8    0.00   350    1    100.0   15 
 3/11/22   5.30   17.7   17.7   17.2    89   15.8   0.0   ---   0.00   0.0   ---   17.7   18.1   18.1   16.9   568.7  0.00   0.0     0     0.00      0     0.0  0.00   0.0   0.007   0.000   20.2    77   16.0   20.8    0.00   352    1    100.0   15 
 3/11/22   5.45   17.1   17.7   17.0    89   15.2   1.6     S   0.40   9.7    SW   17.1   17.4   17.4   16.3   568.7  0.00   0.0     0     0.00      0     0.0  0.00   0.0   0.013   0.000   20.2    77   16.0   20.8    0.00   351    1    100.0   15 
 3/11/22   6.00   16.6   17.1   16.6    87   14.4   0.0   ---   0.00   0.0   ---   16.6   16.8   16.8   15.6   568.7  0.00   0.0     0     0.00      0     0.0  0.00   0.0   0.019   0.000   20.2    77   16.0   20.8    0.00   351    1    100.0   15 
 3/11/22   6.15   16.3   16.5   16.2    84   13.6   3.2   SSW   0.80   8.0   SSW   16.3   16.4   16.4   15.2   568.7  0.00   0.0     0     0.00      0     0.0  0.00   0.0   0.021   0.000   20.2    77   16.0   20.8    0.00   350    1    100.0   15 
 3/11/22   6.30   17.8   17.8   16.3    71   12.4   6.4    SW   1.61  24.1   WSW   17.8   17.7   17.7   16.5   568.7  0.00   0.0     0     0.00      0     0.0  0.00   0.0   0.006   0.000   20.2    77   16.0   20.8    0.00   352    1    100.0   15 
 3/11/22   6.45   18.8   18.8   17.8    62   11.3   8.0   WSW   2.01  27.4     W   18.8   18.5   18.5   17.2   568.7  0.00   0.0     0     0.00      0     0.0  0.00   0.0   0.000   0.005   20.1    77   15.9   20.7    0.00   351    1    100.0   15 
 3/11/22   7.00   18.9   19.0   18.8    60   11.0   9.7     W   2.41  25.7   WNW   18.9   18.6   18.6   17.2   568.7  0.00   0.0     0     0.00      0     0.0  0.00   0.0   0.000   0.006   20.1    76   15.7   20.6    0.03   351    1    100.0   15 
 3/11/22   7.15   19.2   19.3   18.9    63   12.0   9.7   WNW   2.41  27.4   WSW   19.2   19.1   19.1   17.8   568.7  0.00   0.0     5     0.11      9     0.0  0.00   0.0   0.000   0.009   20.1    75   15.5   20.6    0.00   351    1    100.0   15 
 3/11/22   7.30   19.2   19.3   18.9    65   12.5   6.4   WNW   1.61  24.1    NW   19.2   19.2   19.2   18.1   568.7  0.00   0.0    15     0.32     26     0.0  0.00   0.0   0.000   0.009   20.1    75   15.5   20.6    0.00   351    1    100.0   15 
 3/11/22   7.45   19.4   19.6   19.2    67   13.1   6.4   WNW   1.61  27.4    NW   19.4   19.4   19.4   18.7   568.7  0.00   0.0    39     0.84     44     0.0  0.00   0.0   0.000   0.011   20.1    74   15.3   20.5    0.00   350    1    100.0   15 
 3/11/22   8.00   18.4   19.4   18.4    70   12.9   1.6    NE   0.40   9.7   NNE   18.4   18.4   18.4   17.9   568.7  0.00   0.0    52     1.12     62     0.0  0.00   0.0   0.000   0.001   20.1    74   15.3   20.5    0.05   351    1    100.0   15 
 3/11/22   8.15   17.7   18.4   17.7    73   12.8   0.0   ---   0.00   0.0   ---   17.7   17.7   17.7   18.6   568.7  0.00   0.0    71     1.53     90     0.0  0.00   0.0   0.006   0.000   20.0    73   15.0   20.4    0.00   350    1    100.0   15 
 3/11/22   8.30   17.8   17.8   17.7    73   12.9   0.0   ---   0.00   0.0   ---   17.8   17.8   17.8   19.1   568.7  0.00   0.0    89     1.91    102     0.0  0.00   0.0   0.005   0.000   20.0    73   15.0   20.4    0.00   351    1    100.0   15 
 3/11/22   8.45   18.7   18.7   17.8    71   13.3   0.0   ---   0.00   0.0   ---   18.7   18.8   18.8   20.8   568.7  0.00   0.0   131     2.82    202     0.0  0.00   0.0   0.000   0.003   20.0    73   15.0   20.4    0.00   351    1    100.0   15 
 3/11/22   9.00   18.8   18.9   18.7    72   13.6   0.0   ---   0.00   0.0   ---   18.8   18.9   18.9   20.9   568.7  0.00   0.0   130     2.80    167     0.0  0.00   0.0   0.000   0.005   20.1    73   15.1   20.5    0.05   351    1    100.0   15 
 3/11/22   9.15   18.9   19.0   18.8    72   13.8   0.0   ---   0.00   0.0   ---   18.9   19.1   19.1   20.8   568.7  0.00   0.0   123     2.64    128     0.0  0.00   0.0   0.000   0.006   20.1    73   15.1   20.5    0.00   351    1    100.0   15 
 3/11/22   9.30   18.9   19.0   18.8    73   13.9   0.0   ---   0.00   0.0   ---   18.9   19.1   19.1   20.3   568.7  0.00   0.0   101     2.17    116     0.0  0.00   0.0   0.000   0.006   20.1    73   15.1   20.5    0.00   351    1    100.0   15 
 3/11/22   9.45   18.8   18.9   18.7    74   14.1   0.0   ---   0.00   0.0   ---   18.8   19.1   19.1   20.7   568.7  0.00   0.0   126     2.71    169     0.0  0.00   0.0   0.000   0.005   20.1    73   15.1   20.5    0.00   352    1    100.0   15 
 3/11/22  10.00   19.0   19.0   18.8    74   14.3   0.0   ---   0.00   0.0   ---   19.0   19.3   19.3   20.7   568.7  0.00   0.0   120     2.58    186     0.0  0.00   0.0   0.000   0.007   20.1    74   15.3   20.5    0.08   351    1    100.0   15 
 3/11/22  10.15   19.4   19.4   19.0    75   14.8   0.0   ---   0.00   0.0   ---   19.4   19.8   19.8   23.7   568.7  0.00   0.0   272     5.85    471     0.0  0.00   0.0   0.000   0.011   20.2    74   15.4   20.7    0.00   351    1    100.0   15 
 3/11/22  10.30   20.4   20.4   19.4    68   14.3   0.0     E   0.00   6.4     E   20.4   20.6   20.6   26.1   568.7  0.00   0.0   480    10.32    496     0.0  0.00   0.0   0.000   0.021   20.3    74   15.5   20.8    0.00   350    1    100.0   15 
 3/11/22  10.45   20.9   21.0   20.4    48    9.5   1.6   NNW   0.40  22.5    NW   20.9   19.9   19.9   25.3   568.7  0.00   0.0   439     9.44    554     0.0  0.00   0.0   0.000   0.027   20.3    73   15.3   20.7    0.00   352    1    100.0   15 
 3/11/22  11.00   21.7   21.7   20.9    35    5.5   4.8    NW   1.21  27.4    NW   21.7   20.1   20.1   24.1   568.7  0.00   0.0   333     7.16    540     0.0  0.00   0.0   0.000   0.035   20.3    73   15.3   20.7    0.23   351    1    100.0   15 
 3/11/22  11.15   21.9   21.9   21.7    42    8.4   3.2     N   0.80  22.5   WSW   21.9   20.8   20.8   26.4   568.7  0.00   0.0   511    10.99    538     0.0  0.00   0.0   0.000   0.037   20.3    72   15.1   20.7    0.00   351    1    100.0   15 
 3/11/22  11.30   21.6   21.9   21.6    37    6.3  12.9   WNW   3.22  30.6   WNW   21.3   20.1   19.8   25.1   568.7  0.00   0.0   532    11.44    536     0.0  0.00   0.0   0.000   0.034   20.4    71   15.0   20.7    0.00   351    1    100.0   15 
 3/11/22  11.45   21.7   21.7   21.6    34    5.1  14.5   WNW   3.62  37.0    NW   20.9   20.1   19.3   24.2   568.7  0.00   0.0   539    11.59    541     0.0  0.00   0.0   0.000   0.035   20.6    71   15.2   20.9    0.00   351    1    100.0   15 
 3/11/22  12.00   21.6   21.7   21.5    38    6.6  16.1   WNW   4.02  32.2   WNW   20.4   20.1   18.9   23.8   568.7  0.00   0.0   541    11.63    545     0.0  0.00   0.0   0.000   0.034   20.7    70   15.1   20.9    0.43   351    1    100.0   15 
 3/11/22  12.15   21.6   21.6   21.4    44    8.8  14.5     W   3.62  35.4   WSW   20.8   20.5   19.7   24.8   568.7  0.00   0.0   539    11.59    541     0.0  0.00   0.0   0.000   0.034   20.9    70   15.3   21.1    0.00   351    1    100.0   15 
 3/11/22  12.30   21.7   21.7   21.6    39    7.2  14.5   WNW   3.62  46.7   NNW   20.9   20.4   19.6   24.7   568.7  0.00   0.0   537    11.55    540     0.0  0.00   0.0   0.000   0.035   21.0    69   15.1   21.1    0.00   351    1    100.0   15 
 3/11/22  12.45   21.6   21.8   21.6    37    6.3  16.1   WNW   4.02  43.5     W   20.4   20.1   18.9   23.8   568.7  0.00   0.0   528    11.35    534     0.0  0.00   0.0   0.000   0.034   21.2    68   15.1   21.2    0.00   351    1    100.0   15 
 3/11/22  13.00   21.7   21.7   21.6    37    6.3  17.7   WNW   4.43  37.0   WNW   20.2   20.2   18.8   23.4   568.7  0.00   0.0   518    11.14    526     0.0  0.00   0.0   0.000   0.035   21.4    67   15.0   21.4    0.46   351    1    100.0   15 
 3/11/22  13.15   22.0   22.0   21.7    34    5.4  16.1   WNW   4.02  41.8   WNW   20.8   20.5   19.3   24.0   568.7  0.00   0.0   506    10.88    512     0.0  0.00   0.0   0.000   0.038   21.5    66   14.9   21.4    0.00   351    1    100.0   15 
 3/11/22  13.30   22.1   22.1   21.9    31    4.1  16.1   WNW   4.02  37.0     W   20.9   20.4   19.3   23.9   568.7  0.00   0.0   489    10.51    499     0.0  0.00   0.0   0.000   0.039   21.7    66   15.0   21.7    0.00   351    1    100.0   15 
 3/11/22  13.45   21.8   22.1   21.8    35    5.6  16.1   WNW   4.02  38.6     W   20.6   20.3   19.1   23.7   568.7  0.00   0.0   469    10.08    478     0.0  0.00   0.0   0.000   0.036   21.8    65   15.0   21.8    0.00   351    1    100.0   15 
 3/11/22  14.00   21.8   21.8   21.6    35    5.6  16.1   WNW   4.02  43.5   WNW   20.6   20.3   19.1   23.6   568.7  0.00   0.0   445     9.57    455     0.0  0.00   0.0   0.000   0.036   22.1    64   14.9   22.1    0.43   352    1    100.0   15 
 3/11/22  14.15   21.6   21.8   21.6    37    6.2  17.7   WNW   4.43  57.9    NW   20.1   20.1   18.6   22.8   568.7  0.00   0.0   408     8.77    434     0.0  0.00   0.0   0.000   0.034   22.2    63   14.8   22.2    0.00   350    1    100.0   15 
 3/11/22  14.30   21.4   21.7   21.4    38    6.5  16.1   WNW   4.02  37.0     W   20.3   19.9   18.8   22.3   568.7  0.00   0.0   320     6.88    417     0.0  0.00   0.0   0.000   0.032   22.1    63   14.7   22.1    0.00   350    1    100.0   15 
 3/11/22  14.45   21.3   21.4   21.2    38    6.4  22.5   WNW   5.63  48.3   WNW   19.1   19.7   17.6   20.4   568.7  0.00   0.0   290     6.24    415     0.0  0.00   0.0   0.000   0.031   21.8    62   14.2   21.7    0.00   350    1    100.0   15 
 3/11/22  15.00   21.2   21.3   21.2    40    7.1  14.5   WNW   3.62  37.0   WNW   20.4   19.8   19.0   23.2   568.7  0.00   0.0   350     7.53    406     0.0  0.00   0.0   0.000   0.030   21.7    61   13.8   21.4    0.36   351    1    100.0   15 
 3/11/22  15.15   20.9   21.2   20.9    42    7.5  14.5   WNW   3.62  43.5   WNW   20.2   19.6   18.8   22.6   568.7  0.00   0.0   296     6.36    332     0.0  0.00   0.0   0.000   0.027   21.6    61   13.7   21.3    0.00   351    1    100.0   15 
 3/11/22  15.30   20.6   20.9   20.5    44    7.9  17.7   WNW   4.43  40.2    SW   19.2   19.5   18.1   21.3   568.7  0.00   0.0   269     5.78    287     0.0  0.00   0.0   0.000   0.024   21.4    61   13.6   21.1    0.00   351    1    100.0   15 
 3/11/22  15.45   20.3   20.6   20.3    48    9.0  12.9   WNW   3.22  37.0   WNW   19.9   19.4   19.1   22.1   568.7  0.00   0.0   215     4.62    234     0.0  0.00   0.0   0.000   0.021   21.3    61   13.5   20.9    0.00   350    1    100.0   15 
 3/11/22  16.00   20.1   20.3   20.1    49    9.1  19.3   WNW   4.83  51.5   WNW   18.4   19.3   17.6   19.9   568.7  0.00   0.0   186     4.00    229     0.0  0.00   0.0   0.000   0.019   21.2    61   13.4   20.9    0.28   351    1    100.0   15 
 3/11/22  16.15   20.0   20.1   19.9    48    8.7  19.3   WNW   4.83  41.8     W   18.3   19.2   17.4   18.8   568.7  0.00   0.0   125     2.69    163     0.0  0.00   0.0   0.000   0.017   21.1    60   13.0   20.7    0.00   352    1    100.0   15 
 3/11/22  16.30   19.6   20.0   19.6    51    9.1  12.9   WNW   3.22  30.6   WNW   19.2   18.8   18.5   18.8   568.7  0.00   0.0    56     1.20     81     0.0  0.00   0.0   0.000   0.013   21.0    60   12.9   20.6    0.00   351    1    100.0   15 
 3/11/22  16.45   19.3   19.6   19.2    53    9.5  11.3   WNW   2.82  27.4     W   19.3   18.6   18.6   17.9   568.7  0.00   0.0    16     0.34     19     0.0  0.00   0.0   0.000   0.010   20.9    60   12.9   20.6    0.00   351    1    100.0   15 
 3/11/22  17.00   19.1   19.3   19.0    55    9.8   9.7   WNW   2.41  27.4    SW   19.1   18.5   18.5   17.6   568.7  0.00   0.0     9     0.19     12     0.0  0.00   0.0   0.000   0.008   20.9    60   12.9   20.6    0.13   351    1    100.0   15 
 3/11/22  17.15   18.9   19.1   18.9    55    9.6  12.9   WNW   3.22  32.2     W   18.6   18.3   17.9   16.7   568.7  0.00   0.0     1     0.02      5     0.0  0.00   0.0   0.000   0.006   20.8    60   12.8   20.4    0.00   350    1    100.0   15 
 3/11/22  17.30   18.9   19.0   18.8    55    9.6  14.5   WNW   3.62  38.6     W   18.2   18.3   17.6   16.3   568.7  0.00   0.0     0     0.00      0     0.0  0.00   0.0   0.000   0.006   20.8    60   12.8   20.4    0.00   351    1    100.0   15 
 3/11/22  17.45   18.8   18.9   18.8    56    9.8   8.0   WNW   2.01  24.1   WSW   18.8   18.2   18.2   16.8   568.7  0.00   0.0     0     0.00      0     0.0  0.00   0.0   0.000   0.005   20.7    60   12.7   20.3    0.00   351    1    100.0   15 
 3/11/22  18.00   18.6   18.8   18.6    57    9.9   6.4   WNW   1.61  24.1   WNW   18.6   18.0   18.0   16.6   568.7  0.00   0.0     0     0.00      0     0.0  0.00   0.0   0.000   0.002   20.6    60   12.6   20.3    0.08   350    1    100.0   15 
 3/11/22  18.15   18.2   18.6   18.2    57    9.5   1.6   WNW   0.40  11.3   WNW   18.2   17.6   17.6   16.2   568.7  0.00   0.0     0     0.00      0     0.0  0.00   0.0   0.002   0.000   20.6    60   12.6   20.3    0.00   351    1    100.0   15 
 3/11/22  18.30   17.9   18.2   17.9    57    9.2   1.6   NNE   0.40  11.3   NNW   17.9   17.3   17.3   15.9   568.7  0.00   0.0     0     0.00      0     0.0  0.00   0.0   0.005   0.000   20.6    60   12.5   20.2    0.00   351    1    100.0   15 
 3/11/22  18.45   17.2   17.9   17.1    59    9.1   3.2    NE   0.80   8.0    NE   17.2   16.6   16.6   15.2   568.7  0.00   0.0     0     0.00      0     0.0  0.00   0.0   0.012   0.000   20.6    59   12.3   20.2    0.00   351    1    100.0   15 
 3/11/22  19.00   16.8   17.2   16.8    60    9.0   0.0    NE   0.00   6.4    NE   16.8   16.1   16.1   14.7   568.7  0.00   0.0     0     0.00      0     0.0  0.00   0.0   0.016   0.000   20.4    58   11.9   20.1    0.05   351    1    100.0   15 
 3/11/22  19.15   16.5   16.8   16.5    60    8.7   0.0   ---   0.00   0.0   ---   16.5   15.8   15.8   14.4   568.7  0.00   0.0     0     0.00      0     0.0  0.00   0.0   0.019   0.000   20.3    58   11.8   19.9    0.00   350    1    100.0   15 
 3/11/22  19.30   15.8   16.6   15.8    63    8.8   1.6   NNE   0.40   9.7   NNE   15.8   15.3   15.3   13.9   568.7  0.00   0.0     0     0.00      0     0.0  0.00   0.0   0.026   0.000   20.3    58   11.8   19.9    0.00   351    1    100.0   15 
 3/11/22  19.45   15.9   16.1   15.8    63    8.9   3.2    NE   0.80   8.0    NE   15.9   15.4   15.4   14.0   568.7  0.00   0.0     0     0.00      0     0.0  0.00   0.0   0.025   0.000   20.3    58   11.7   19.9    0.00   351    1    100.0   15 
 3/11/22  20.00   15.7   16.4   15.7    65    9.1   0.0   ---   0.00   0.0   ---   15.7   15.2   15.2   13.8   568.7  0.00   0.0     0     0.00      0     0.0  0.00   0.0   0.028   0.000   20.3    58   11.7   19.9    0.03   351    1    100.0   15 
 3/11/22  20.15   16.1   16.1   15.6    67   10.0   0.0   ---   0.00   0.0   ---   16.1   15.7   15.7   14.3   568.7  0.00   0.0     0     0.00      0     0.0  0.00   0.0   0.023   0.000   20.3    58   11.7   19.9    0.00   350    1    100.0   15 
 3/11/22  20.30   15.8   16.2   15.8    67    9.7   0.0    NE   0.00   4.8    NE   15.8   15.3   15.3   13.9   568.7  0.00   0.0     0     0.00      0     0.0  0.00   0.0   0.027   0.000   20.2    58   11.6   19.8    0.00   351    1    100.0   15 
 3/11/22  20.45   16.9   16.9   15.8    66   10.5   6.4    NE   1.61   9.7    NE   16.9   16.6   16.6   15.2   568.7  0.00   0.0     0     0.00      0     0.0  0.00   0.0   0.015   0.000   20.2    59   11.9   19.9    0.00   351    1    100.0   15 
 3/11/22  21.00   15.8   16.9   15.8    67    9.7   0.0   NNE   0.00   3.2   NNE   15.8   15.4   15.4   14.1   568.7  0.00   0.0     0     0.00      0     0.0  0.00   0.0   0.026   0.000   20.2    59   11.9   19.9    0.03   351    1    100.0   15 
 3/11/22  21.15   15.0   15.8   14.9    69    9.4   0.0   ---   0.00   0.0   ---   15.0   14.6   14.6   13.2   568.7  0.00   0.0     0     0.00      0     0.0  0.00   0.0   0.035   0.000   20.1    59   11.8   19.8    0.00   351    1    100.0   15 
 3/11/22  21.30   15.1   15.1   14.9    70    9.7   0.0   ---   0.00   0.0   ---   15.1   14.7   14.7   13.3   568.7  0.00   0.0     0     0.00      0     0.0  0.00   0.0   0.034   0.000   20.1    59   11.8   19.8    0.00   352    1    100.0   15 
 3/11/22  21.45   14.3   15.2   14.3    71    9.1   0.0   ---   0.00   0.0   ---   14.3   13.9   13.9   12.5   568.7  0.00   0.0     0     0.00      0     0.0  0.00   0.0   0.042   0.000   20.1    59   11.8   19.8    0.00   351    1    100.0   15 
 3/11/22  22.00   14.2   14.3   13.9    72    9.2   0.0   ---   0.00   0.0   ---   14.2   13.8   13.8   12.4   568.7  0.00   0.0     0     0.00      0     0.0  0.00   0.0   0.043   0.000   20.0    60   12.0   19.8    0.03   351    1    100.0   15 
 3/11/22  22.15   14.6   14.6   14.1    71    9.4   0.0   ---   0.00   0.0   ---   14.6   14.2   14.2   12.8   568.7  0.00   0.0     0     0.00      0     0.0  0.00   0.0   0.039   0.000   20.0    59   11.7   19.8    0.00   351    1    100.0   15 
 3/11/22  22.30   16.6   16.6   14.7    69   10.8   3.2   NNE   0.80  14.5     N   16.6   16.2   16.2   14.9   568.7  0.00   0.0     0     0.00      0     0.0  0.00   0.0   0.019   0.000   20.0    60   12.0   19.8    0.00   352    1    100.0   15 
 3/11/22  22.45   17.2   17.2   16.6    67   11.0   8.0     N   2.01  14.5     N   17.2   16.9   16.9   15.6   568.7  0.00   0.0     0     0.00      0     0.0  0.00   0.0   0.012   0.000   20.0    60   12.0   19.8    0.00   351    1    100.0   15 
 3/11/22  23.00   17.5   17.5   17.3    65   10.8   9.7   NNW   2.41  19.3     N   17.5   17.2   17.2   15.9   568.7  0.00   0.0     0     0.00      0     0.0  0.00   0.0   0.009   0.000   19.9    60   11.9   19.7    0.05   350    1    100.0   15 
 3/11/22  23.15   17.5   17.6   17.4    64   10.6   6.4   NNW   1.61  22.5   NNW   17.5   17.2   17.2   15.8   568.7  0.00   0.0     0     0.00      0     0.0  0.00   0.0   0.009   0.000   19.9    60   11.9   19.7    0.00   351    1    100.0   15 
 3/11/22  23.30   16.5   17.6   16.5    72   11.4   1.6    SE   0.40  12.9    SE   16.5   16.3   16.3   15.0   568.7  0.00   0.0     0     0.00      0     0.0  0.00   0.0   0.019   0.000   20.0    60   12.0   19.8    0.00   351    1    100.0   15 
 4/11/22  11.04   11.4   21.0   19.2    65    5.1  96.6         0.00  76.8   ENE    4.5   10.9    4.1  367.3  ------1361.441038.9   650     0.00    490    11.5  0.00   0.2   0.000   0.000   16.3    52    6.4   15.3    0.00   410    6      0.0    0 
 4/11/22-530.-58   12.0  132.7    ---    53    2.6 102.0  Rain 433.64  83.4     N    5.1   11.2    4.3   87.3  ------1793.241252.2   526   192.28    614     5.9 10.75  20.8   1.122   0.000  -10.3    60  -16.5  -10.4    0.76   664    1     11.4  255 
 4/11/22   0.15   14.2   14.3   13.8    78   10.4  19.3   NNE   4.83  37.0   NNE   11.6   14.0   11.4   10.3   568.7  4.57  51.1     0     0.00      0     0.0  0.00   0.0   0.043   0.000   19.9    63   12.6   19.9    0.00   346    1    100.0   15 
 4/11/22   0.30   13.4   14.2   13.1    79    9.8  16.1   ENE   4.02  35.4    NE   11.3   13.2   11.1    9.9   568.7  8.13  42.7     0     0.00      0     0.0  0.00   0.0   0.052   0.000   19.8    63   12.5   19.7    0.00   349    1    100.0   15 
 4/11/22   0.45   13.1   13.4   13.1    84   10.5   8.0   WNW   2.01  16.1   WNW   12.7   13.1   12.6   11.3   568.7  7.11  43.2     0     0.00      0     0.0  0.00   0.0   0.054   0.000   19.8    63   12.5   19.7    0.00   351    1    100.0   15 
 4/11/22   1.00   12.9   13.2   12.9    85   10.5   3.2    NE   0.80  20.9   NNE   12.9   12.9   12.9   11.6   568.7  1.52  32.3     0     0.00      0     0.0  0.00   0.0   0.056   0.000   19.8    64   12.8   19.8    0.03   350    1    100.0   15 
 4/11/22   1.15   12.3   12.9   12.3    84    9.7  11.3   NNE   2.82  27.4   NNE   11.2   12.3   11.2    9.8   568.7  0.25   1.3     0     0.00      0     0.0  0.00   0.0   0.062   0.000   19.8    64   12.8   19.8    0.00   350    1    100.0   15 
 4/11/22   1.30   12.1   12.4   12.1    85    9.6   4.8   WNW   1.21  11.3   WNW   12.1   12.0   12.0   10.6   568.7  0.76   6.3     0     0.00      0     0.0  0.00   0.0   0.065   0.000   19.7    64   12.7   19.7    0.00   351    1    100.0   15 
 4/11/22   1.45   11.9   12.1   11.9    86    9.6   6.4    NW   1.61  14.5    NW   11.6   11.8   11.5   10.1   568.7  1.52   8.6     0     0.00      0     0.0  0.00   0.0   0.067   0.000   19.7    64   12.7   19.7    0.00   351    1    100.0   15 
 4/11/22   2.00   11.8   11.9   11.8    86    9.5   8.0    NW   2.01  16.1   WNW   11.1   11.7   11.0    9.6   568.7  1.27   9.4     0     0.00      0     0.0  0.00   0.0   0.068   0.000   19.7    64   12.7   19.7    0.03   350    1    100.0   15 
 4/11/22   2.15   11.7   11.8   11.7    86    9.5   6.4   NNW   1.61  11.3   NNW   11.3   11.7   11.3    9.9   568.7  1.02   5.1     0     0.00      0     0.0  0.00   0.0   0.069   0.000   19.6    64   12.6   19.6    0.00   351    1    100.0   15 
 4/11/22   2.30   11.7   11.7   11.6    87    9.6   3.2   NNE   0.80   8.0     N   11.7   11.7   11.7   10.3   568.7  1.78  15.0     0     0.00      0     0.0  0.00   0.0   0.069   0.000   19.6    64   12.6   19.6    0.00   351    1    100.0   15 
 4/11/22   2.45   11.7   11.7   11.6    87    9.6   1.6   NNE   0.40   8.0   NNW   11.7   11.7   11.7   10.3   568.7  1.52  10.4     0     0.00      0     0.0  0.00   0.0   0.069   0.000   19.6    64   12.6   19.6    0.00   350    1    100.0   15 
 4/11/22   3.00   11.8   11.8   11.7    87    9.7   0.0   ESE   0.00   6.4   ESE   11.8   11.8   11.8   10.4   568.7  1.78  11.2     0     0.00      0     0.0  0.00   0.0   0.068   0.000   19.6    64   12.6   19.6    0.00   351    1    100.0   15 
 4/11/22   3.15   11.8   11.8   11.7    88    9.9   0.0     S   0.00   4.8   ESE   11.8   11.8   11.8   10.4   568.7  1.78   8.1     0     0.00      0     0.0  0.00   0.0   0.068   0.000   19.5    64   12.5   19.4    0.00   352    1    100.0   15 
 4/11/22   3.30   11.8   11.9   11.8    88    9.9   0.0   WSW   0.00   3.2   WSW   11.8   11.8   11.8   10.4   568.7  0.76   6.6     0     0.00      0     0.0  0.00   0.0   0.068   0.000   19.5    64   12.5   19.4    0.00   350    1    100.0   15 
 4/11/22   3.45   11.6   11.8   11.6    88    9.7   3.2   WNW   0.80   8.0   WNW   11.6   11.6   11.6   10.2   568.7  0.25   3.0     0     0.00      0     0.0  0.00   0.0   0.070   0.000   19.5    65   12.7   19.5    0.00   348    1    100.0   15 
 4/11/22   4.00   11.5   11.7   11.5    89    9.7   1.6   ENE   0.40   8.0   ENE   11.5   11.6   11.6   10.2   568.7  0.00   0.0     0     0.00      0     0.0  0.00   0.0   0.071   0.000   19.5    65   12.7   19.5    0.00   349    1    100.0   15 
 4/11/22   4.15   11.7   11.7   11.5    89    9.9   0.0   ---   0.00   0.0   ---   11.7   11.7   11.7   10.3   568.7  0.00   0.0     0     0.00      0     0.0  0.00   0.0   0.069   0.000   19.5    64   12.5   19.4    0.00   351    1    100.0   15 
 4/11/22   4.30   11.6   11.7   11.5    89    9.8   0.0     N   0.00   4.8     N   11.6   11.6   11.6   10.2   568.7  0.00   0.0     0     0.00      0     0.0  0.00   0.0   0.071   0.000   19.4    64   12.5   19.4    0.00   352    1    100.0   15 
 4/11/22   4.45   11.4   11.6   11.4    89    9.7   0.0    NE   0.00   8.0    NE   11.4   11.5   11.5   10.1   568.7  0.00   0.0     0     0.00      0     0.0  0.00   0.0   0.072   0.000   19.4    64   12.5   19.4    0.00   350    1    100.0   15 
 4/11/22   5.00   11.5   11.6   11.4    89    9.7   0.0   ---   0.00   0.0   ---   11.5   11.6   11.6   10.2   568.7  0.00   0.0     0     0.00      0     0.0  0.00   0.0   0.071   0.000   19.4    64   12.5   19.4    0.00   351    1    100.0   15 
 4/11/22   5.15   11.6   11.7   11.5    89    9.9   0.0   ---   0.00   0.0   ---   11.6   11.7   11.7   10.3   568.7  0.00   0.0     0     0.00      0     0.0  0.00   0.0   0.070   0.000   19.4    64   12.5   19.4    0.00   351    1    100.0   15 
 4/11/22   5.30   12.4   12.4   11.6    90   10.8   3.2     N   0.80  14.5     N   12.4   12.5   12.5   11.2   568.7  0.00   0.0     0     0.00      0     0.0  0.00   0.0   0.061   0.000   19.4    65   12.7   19.4    0.00   351    1    100.0   15 
 4/11/22   5.45   13.4   13.4   12.4    89   11.6   6.4     N   1.61  16.1     N   13.3   13.4   13.3   12.1   568.7  0.00   0.0     0     0.00      0     0.0  0.00   0.0   0.052   0.000   19.3    65   12.6   19.3    0.00   350    1    100.0   15 
 4/11/22   6.00   13.9   13.9   13.3    88   12.0   6.4   NNW   1.61  17.7   NNW   13.9   13.9   13.9   12.7   568.7  0.00   0.0     0     0.00      0     0.0  0.00   0.0   0.046   0.000   19.3    65   12.6   19.3    0.00   351    1    100.0   15 
 4/11/22   6.15   13.9   14.1   13.9    87   11.8   6.4   NNE   1.61  19.3   NNE   13.9   13.9   13.9   12.7   568.7  0.00   0.0     0     0.00      0     0.0  0.00   0.0   0.046   0.000   19.3    65   12.6   19.3    0.00   351    1    100.0   15 
 4/11/22   6.30   14.4   14.4   13.9    82   11.4  11.3   NNE   2.82  22.5   NNE   13.7   14.3   13.6   12.3   568.7  0.00   0.0     0     0.00      0     0.0  0.00   0.0   0.041   0.000   19.3    65   12.6   19.3    0.00   352    1    100.0   15 
 4/11/22   6.45   14.4   14.4   14.3    79   10.8   9.7   NNE   2.41  19.3   NNE   13.9   14.2   13.8   12.4   568.7  0.00   0.0     0     0.00      0     0.0  0.00   0.0   0.041   0.000   19.3    65   12.6   19.3    0.00   351    1    100.0   15 
 4/11/22   7.00   14.8   14.8   14.4    76   10.6  12.9   NNE   3.22  22.5   ENE   13.8   14.6   13.6   12.3   568.7  0.00   0.0     1     0.02      5     0.0  0.00   0.0   0.037   0.000   19.3    64   12.3   19.2    0.03   350    1    100.0   15 
 4/11/22   7.15   14.9   15.0   14.8    74   10.3  12.9   NNE   3.22  24.1     N   14.0   14.7   13.7   12.6   568.7  0.00   0.0    13     0.28     19     0.0  0.00   0.0   0.035   0.000   19.3    63   12.1   19.1    0.00   351    1    100.0   15 
 4/11/22   7.30   15.6   15.6   15.0    70   10.1  14.5   NNE   3.62  27.4     N   14.3   15.2   13.9   13.1   568.7  0.00   0.0    27     0.58     35     0.0  0.00   0.0   0.029   0.000   19.3    63   12.1   19.1    0.00   351    1    100.0   15 
 4/11/22   7.45   15.7   15.8   15.5    69   10.0  14.5   NNE   3.62  27.4   NNE   14.4   15.3   14.0   13.2   568.7  0.00   0.0    37     0.80     51     0.0  0.00   0.0   0.028   0.000   19.3    63   12.1   19.1    0.00   352    1    100.0   15 
 4/11/22   8.00   16.4   16.4   15.7    66   10.0  14.5   NNE   3.62  29.0   NNE   15.3   16.0   14.9   14.8   568.7  0.00   0.0    92     1.98    148     0.0  0.00   0.0   0.020   0.000   19.3    62   11.8   19.1    0.08   351    1    100.0   15 
 4/11/22   8.15   16.7   16.7   16.4    65   10.1  14.5   NNE   3.62  29.0   NNW   15.6   16.3   15.2   17.8   568.7  0.00   0.0   183     3.94    229     0.0  0.00   0.0   0.017   0.000   19.2    62   11.7   18.9    0.00   351    1    100.0   15 
 4/11/22   8.30   16.8   16.9   16.7    63    9.7  17.7   NNE   4.43  32.2    NE   14.9   16.3   14.4   16.4   568.7  0.00   0.0   161     3.46    257     0.0  0.00   0.0   0.016   0.000   19.3    61   11.6   19.0    0.00   350    1    100.0   15 
 4/11/22   8.45   16.4   16.8   16.4    65    9.8  16.1   NNE   4.02  35.4   NNE   14.9   16.1   14.5   15.3   568.7  0.00   0.0    85     1.83     98     0.0  0.00   0.0   0.020   0.000   19.2    61   11.5   18.9    0.00   352    1    100.0   15 
 4/11/22   9.00   16.8   16.8   16.4    65   10.2  14.5   NNE   3.62  27.4   NNE   15.8   16.4   15.4   18.9   568.7  0.00   0.0   268     5.76    311     0.0  0.00   0.0   0.016   0.000   19.3    61   11.6   19.0    0.18   351    1    100.0   15 
 4/11/22   9.15   16.9   16.9   16.8    65   10.3  17.7   NNE   4.43  29.0    NE   15.1   16.6   14.8   18.8   568.7  0.00   0.0   329     7.07    355     0.0  0.00   0.0   0.014   0.000   19.3    61   11.6   19.0    0.00   351    1    100.0   15 
 4/11/22   9.30   17.2   17.2   16.9    65   10.6  16.1     N   4.02  32.2   NNE   15.8   16.9   15.5   20.1   568.7  0.00   0.0   373     8.02    387     0.0  0.00   0.0   0.012   0.000   19.3    61   11.6   19.0    0.00   351    1    100.0   15 
 4/11/22   9.45   17.3   17.3   17.2    61    9.7  22.5   NNE   5.63  41.8    NE   14.7   16.7   14.1   18.0   568.7  0.00   0.0   395     8.49    403     0.0  0.00   0.0   0.011   0.000   19.3    60   11.3   18.9    0.00   352    1    100.0   15 
 4/11/22  10.00   17.5   17.5   17.3    61    9.9  17.7   NNE   4.43  35.4    NE   15.8   17.0   15.3   19.6   568.7  0.00   0.0   418     8.99    429     0.0  0.00   0.0   0.009   0.000   19.3    60   11.4   19.1    0.30   351    1    100.0   15 
 4/11/22  10.15   17.6   17.6   17.4    62   10.2  17.7   NNE   4.43  32.2   NNE   15.8   17.1   15.4   19.8   568.7  0.00   0.0   438     9.42    445     0.0  0.00   0.0   0.008   0.000   19.3    60   11.4   19.1    0.00   351    1    100.0   15 
 4/11/22  10.30   17.7   17.7   17.6    61   10.1  16.1     N   4.02  32.2     N   16.4   17.3   15.9   20.7   568.7  0.00   0.0   452     9.72    459     0.0  0.00   0.0   0.006   0.000   19.4    60   11.5   19.2    0.00   351    1    100.0   15 
 4/11/22  10.45   17.7   17.8   17.6    61   10.0  20.9     N   5.23  37.0     N   15.3   17.2   14.8   19.2   568.7  0.00   0.0   467    10.04    476     0.0  0.00   0.0   0.007   0.000   19.4    60   11.5   19.2    0.00   349    1    100.0   15 
 4/11/22  11.00   17.9   17.9   17.7    62   10.5  17.7     N   4.43  32.2     N   16.2   17.5   15.8   20.4   568.7  0.00   0.0   483    10.39    487     0.0  0.00   0.0   0.005   0.000   19.5    59   11.3   19.2    0.36   352    1    100.0   15 
 4/11/22  11.15   18.1   18.1   17.9    62   10.7  17.7     N   4.43  33.8   NNE   16.4   17.7   16.1   20.8   568.7  0.00   0.0   494    10.62    499     0.0  0.00   0.0   0.002   0.000   19.5    59   11.3   19.2    0.00   351    1    100.0   15 
 4/11/22  11.30   18.2   18.3   18.1    59   10.1  17.7     N   4.43  33.8     N   16.6   17.7   16.1   20.9   568.7  0.00   0.0   504    10.84    510     0.0  0.00   0.0   0.001   0.000   19.6    59   11.4   19.3    0.00   351    1    100.0   15 
 4/11/22  11.45   18.4   18.4   18.2    60   10.5  19.3     N   4.83  37.0   NNE   16.5   18.0   16.1   20.7   568.7  0.00   0.0   517    11.12    524     0.0  0.00   0.0   0.000   0.001   19.7    59   11.5   19.4    0.00   351    1    100.0   15 
 4/11/22  12.00   18.6   18.6   18.4    59   10.4  19.3     N   4.83  38.6   NNE   16.6   18.1   16.2   20.8   568.7  0.00   0.0   532    11.44    536     0.0  0.00   0.0   0.000   0.002   19.9    58   11.4   19.6    0.38   352    1    100.0   15 
 4/11/22  12.15   18.7   18.8   18.6    55    9.5  20.9     N   5.23  40.2   NNW   16.6   18.1   15.9   20.4   568.7  0.00   0.0   525    11.29    531     0.0  0.00   0.0   0.000   0.004   20.0    58   11.5   19.7    0.00   351    1    100.0   15 
 4/11/22  12.30   18.8   18.8   18.7    55    9.5  20.9     N   5.23  43.5   NNE   16.6   18.2   16.0   20.4   568.7  0.00   0.0   512    11.01    517     0.0  0.00   0.0   0.000   0.005   20.1    57   11.3   19.7    0.00   350    1    100.0   15 
 4/11/22  12.45   18.9   19.0   18.7    54    9.4  17.7     N   4.43  35.4     N   17.4   18.3   16.8   21.4   568.7  0.00   0.0   504    10.84    508     0.0  0.00   0.0   0.000   0.006   20.3    56   11.2   19.8    0.00   351    1    100.0   15 
 4/11/22  13.00   18.9   19.0   18.9    54    9.4  19.3     N   4.83  32.2     N   17.1   18.3   16.4   20.8   568.7  0.00   0.0   491    10.56    497     0.0  0.00   0.0   0.000   0.006   20.4    56   11.4   19.9    0.41   352    1    100.0   15 
 4/11/22  13.15   18.9   19.0   18.9    55    9.7  19.3   NNW   4.83  35.4   WNW   17.1   18.3   16.4   20.9   568.7  0.00   0.0   477    10.26    483     0.0  0.00   0.0   0.000   0.006   20.6    56   11.5   20.1    0.00   350    1    100.0   15 
 4/11/22  13.30   18.9   18.9   18.8    56   10.0  19.3     N   4.83  37.0   NNE   17.1   18.4   16.5   20.8   568.7  0.00   0.0   461     9.91    469     0.0  0.00   0.0   0.000   0.006   20.7    55   11.4   20.1    0.00   350    1    100.0   15 
 4/11/22  13.45   19.0   19.1   18.9    53    9.2  17.7     N   4.43  32.2    NE   17.5   18.3   16.8   21.2   568.7  0.00   0.0   447     9.61    455     0.0  0.00   0.0   0.000   0.007   20.8    55   11.5   20.2    0.00   351    1    100.0   15 
 4/11/22  14.00   18.9   19.0   18.9    55    9.6  17.7   NNW   4.43  33.8     N   17.4   18.3   16.8   21.2   568.7  0.00   0.0   430     9.25    436     0.0  0.00   0.0   0.000   0.006   20.9    54   11.3   20.2    0.38   352    1    100.0   15 
 4/11/22  14.15   18.9   18.9   18.8    53    9.1  19.3     N   4.83  37.0     N   17.1   18.2   16.3   20.8   568.7  0.00   0.0   457     9.83    483     0.0  0.00   0.0   0.000   0.006   21.0    54   11.3   20.3    0.00   351    1    100.0   15 
 4/11/22  14.30   19.1   19.1   18.9    54    9.5  19.3     N   4.83  37.0     N   17.2   18.4   16.6   20.9   568.7  0.00   0.0   482    10.36    489     0.0  0.00   0.0   0.000   0.008   21.0    54   11.3   20.3    0.00   350    1    100.0   15 
 4/11/22  14.45   18.9   19.1   18.9    53    9.1  19.3     N   4.83  35.4    NE   17.1   18.2   16.3   20.5   568.7  0.00   0.0   399     8.58    462     0.0  0.00   0.0   0.000   0.006   20.9    54   11.3   20.2    0.00   351    1    100.0   15 
 4/11/22  15.00   19.1   19.1   18.9    51    8.7  17.7     N   4.43  37.0     N   17.6   18.3   16.8   20.4   568.7  0.00   0.0   318     6.84    343     0.0  0.00   0.0   0.000   0.008   20.7    54   11.1   20.1    0.36   351    1    100.0   15 
 4/11/22  15.15   19.1   19.1   19.0    49    8.1  17.7   NNE   4.43  37.0   NNE   17.6   18.2   16.7   20.0   568.7  0.00   0.0   279     6.00    295     0.0  0.00   0.0   0.000   0.008   20.6    53   10.6   19.9    0.00   352    1    100.0   15 
 4/11/22  15.30   18.9   19.1   18.9    48    7.6  20.9   NNE   5.23  38.6   NNE   16.7   17.9   15.7   18.0   568.7  0.00   0.0   206     4.43    262     0.0  0.00   0.0   0.000   0.006   20.3    52   10.1   19.7    0.00   351    1    100.0   15 
 4/11/22  15.45   18.7   18.9   18.7    49    7.8  17.7   NNE   4.43  33.8   NNE   17.2   17.8   16.2   16.2   568.7  0.00   0.0    51     1.10    132     0.0  0.00   0.0   0.000   0.004   20.3    52   10.1   19.6    0.00   351    1    100.0   15 
 4/11/22  16.00   19.0   19.1   18.7    47    7.4  17.7   NNE   4.43  35.4   NNE   17.5   17.9   16.4   17.7   568.7  0.00   0.0   117     2.52    149     0.0  0.00   0.0   0.000   0.007   20.2    51    9.7   19.5    0.23   351    1    100.0   15 
 4/11/22  16.15   18.9   19.1   18.9    49    7.9  14.5   NNE   3.62  30.6     N   18.2   17.9   17.2   18.2   568.7  0.00   0.0    97     2.09    118     0.0  0.00   0.0   0.000   0.006   20.1    51    9.6   19.4    0.00   352    1    100.0   15 
 4/11/22  16.30   18.9   18.9   18.8    45    6.7  14.5   NNE   3.62  32.2   NNW   18.2   17.8   17.1   17.2   568.7  0.00   0.0    50     1.08     72     0.0  0.00   0.0   0.000   0.006   20.0    52    9.8   19.4    0.00   351    1    100.0   15 
 4/11/22  16.45   18.7   18.9   18.7    46    6.8  12.9   NNE   3.22  27.4     N   18.3   17.6   17.2   16.4   568.7  0.00   0.0    15     0.32     18     0.0  0.00   0.0   0.000   0.003   19.9    51    9.4   19.2    0.00   351    1    100.0   15 
 4/11/22  17.00   18.6   18.7   18.6    47    7.0  11.3   NNE   2.82  25.7   NNE   18.6   17.4   17.4   16.1   568.7  0.00   0.0     8     0.17     12     0.0  0.00   0.0   0.000   0.002   19.9    51    9.4   19.2    0.13   351    1    100.0   15 
 4/11/22  17.15   18.6   18.7   18.6    47    7.1  14.5   NNE   3.62  29.0     N   17.9   17.6   16.8   15.5   568.7  0.00   0.0     1     0.02      5     0.0  0.00   0.0   0.000   0.003   19.8    51    9.3   19.1    0.00   349    1    100.0   15 
 4/11/22  17.30   18.5   18.6   18.4    47    7.0  11.3   NNE   2.82  25.7   NNE   18.5   17.4   17.4   15.9   568.7  0.00   0.0     0     0.00      0     0.0  0.00   0.0   0.000   0.002   19.8    51    9.3   19.1    0.00   351    1    100.0   15 
 4/11/22  17.45   18.3   18.6   18.2    48    7.1   9.7   NNE   2.41  20.9   NNE   18.3   17.3   17.3   15.8   568.7  0.00   0.0     0     0.00      0     0.0  0.00   0.0   0.000   0.000   19.8    51    9.3   19.1    0.00   351    1    100.0   15 
 4/11/22  18.00   18.3   18.4   18.3    47    6.8   9.7   NNE   2.41  29.0   NNE   18.3   17.2   17.2   15.7   568.7  0.00   0.0     0     0.00      0     0.0  0.00   0.0   0.000   0.000   19.7    51    9.3   19.0    0.08   351    1    100.0   15 
 4/11/22  18.15   18.6   18.7   18.4    45    6.4  12.9   NNE   3.22  29.0     N   18.3   17.4   17.1   15.7   568.7  0.00   0.0     0     0.00      0     0.0  0.00   0.0   0.000   0.003   19.7    50    9.0   18.9    0.00   351    1    100.0   15 
 4/11/22  18.30   18.3   18.6   18.3    45    6.2   9.7   NNE   2.41  32.2   NNE   18.3   17.1   17.1   15.6   568.7  0.00   0.0     0     0.00      0     0.0  0.00   0.0   0.000   0.000   19.7    50    9.0   18.9    0.00   352    1    100.0   15 
 4/11/22  18.45   18.4   18.5   18.3    41    4.9  14.5   NNE   3.62  27.4    NE   17.7   17.1   16.3   14.8   568.7  0.00   0.0     0     0.00      0     0.0  0.00   0.0   0.000   0.001   19.7    50    9.0   18.9    0.00   351    1    100.0   15 
 4/11/22  19.00   18.2   18.5   18.2    44    5.7   9.7   NNE   2.41  22.5   NNE   18.2   16.9   16.9   15.4   568.7  0.00   0.0     0     0.00      0     0.0  0.00   0.0   0.002   0.000   19.6    49    8.6   18.8    0.10   351    1    100.0   15 
 4/11/22  19.15   17.9   18.2   17.9    45    5.8   6.4    NE   1.61  19.3   NNE   17.9   16.7   16.7   15.2   568.7  0.00   0.0     0     0.00      0     0.0  0.00   0.0   0.004   0.000   19.6    49    8.6   18.8    0.00   350    1    100.0   15 
 4/11/22  19.30   17.7   17.9   17.7    47    6.2   4.8   NNE   1.21  17.7    NE   17.7   16.5   16.5   15.0   568.7  0.00   0.0     0     0.00      0     0.0  0.00   0.0   0.007   0.000   19.6    49    8.6   18.8    0.00   352    1    100.0   15 
 4/11/22  19.45   17.6   17.7   17.5    48    6.5   6.4   NNE   1.61  17.7    NE   17.6   16.5   16.5   15.0   568.7  0.00   0.0     0     0.00      0     0.0  0.00   0.0   0.008   0.000   19.6    49    8.6   18.8    0.00   351    1    100.0   15 
 4/11/22  20.00   17.7   17.8   17.6    48    6.6   9.7   NNE   2.41  20.9   NNE   17.7   16.6   16.6   15.1   568.7  0.00   0.0     0     0.00      0     0.0  0.00   0.0   0.006   0.000   19.5    49    8.5   18.7    0.08   351    1    100.0   15 
 4/11/22  20.15   17.4   17.7   17.4    50    6.9   8.0   NNE   2.01  17.7     N   17.4   16.3   16.3   14.8   568.7  0.00   0.0     0     0.00      0     0.0  0.00   0.0   0.010   0.000   19.5    50    8.8   18.7    0.00   351    1    100.0   15 
 4/11/22  20.30   17.4   17.5   17.3    49    6.6   9.7   NNE   2.41  17.7   NNE   17.4   16.4   16.4   14.9   568.7  0.00   0.0     0     0.00      0     0.0  0.00   0.0   0.009   0.000   19.5    50    8.8   18.7    0.00   352    1    100.0   15 
 4/11/22  20.45   17.4   17.6   17.4    51    7.1   9.7   NNE   2.41  22.5   NNE   17.4   16.4   16.4   14.9   568.7  0.00   0.0     0     0.00      0     0.0  0.00   0.0   0.010   0.000   19.5    50    8.8   18.7    0.00   351    1    100.0   15 
 4/11/22  21.00   17.2   17.4   17.1    52    7.2   6.4   NNE   1.61  16.1   NNE   17.2   16.2   16.2   14.7   568.7  0.00   0.0     0     0.00      0     0.0  0.00   0.0   0.012   0.000   19.5    50    8.8   18.7    0.08   351    1    100.0   15 
 4/11/22  21.15   17.2   17.2   17.0    49    6.4   8.0   NNE   2.01  17.7     N   17.2   16.1   16.1   14.6   568.7  0.00   0.0     0     0.00      0     0.0  0.00   0.0   0.012   0.000   19.5    50    8.8   18.7    0.00   351    1    100.0   15 
 4/11/22  21.30   17.5   17.6   17.2    47    6.1   6.4   NNE   1.61  16.1    NE   17.5   16.3   16.3   14.8   568.7  0.00   0.0     0     0.00      0     0.0  0.00   0.0   0.009   0.000   19.5    50    8.8   18.7    0.00   351    1    100.0   15 
 4/11/22  21.45   17.5   17.6   17.4    47    6.1   4.8    NE   1.21  19.3   ENE   17.5   16.3   16.3   14.8   568.7  0.00   0.0     0     0.00      0     0.0  0.00   0.0   0.009   0.000   19.4    50    8.7   18.7    0.00   350    1    100.0   15 
 4/11/22  22.00   17.3   17.5   17.3    47    5.9   4.8   ENE   1.21  16.1    NE   17.3   16.2   16.2   14.7   568.7  0.00   0.0     0     0.00      0     0.0  0.00   0.0   0.010   0.000   19.4    50    8.7   18.7    0.08   351    1    100.0   15 
 4/11/22  22.15   17.8   17.8   17.3    46    6.0   9.7    NE   2.41  20.9    NE   17.8   16.6   16.6   15.1   568.7  0.00   0.0     0     0.00      0     0.0  0.00   0.0   0.006   0.000   19.4    50    8.7   18.7    0.00   350    1    100.0   15 
 4/11/22  22.30   17.7   17.8   17.6    45    5.6   9.7    NE   2.41  22.5     N   17.7   16.4   16.4   14.9   568.7  0.00   0.0     0     0.00      0     0.0  0.00   0.0   0.007   0.000   19.4    50    8.7   18.7    0.00   350    1    100.0   15 
 4/11/22  22.45   17.5   17.7   17.5    44    5.1   8.0    NE   2.01  19.3    NE   17.5   16.2   16.2   14.7   568.7  0.00   0.0     0     0.00      0     0.0  0.00   0.0   0.009   0.000   19.4    49    8.4   18.6    0.00   352    1    100.0   15 
 4/11/22  23.00   17.3   17.6   17.3    46    5.6   6.4   NNE   1.61  17.7     N   17.3   16.1   16.1   14.6   568.7  0.00   0.0     0     0.00      0     0.0  0.00   0.0   0.010   0.000   19.4    49    8.4   18.6    0.08   351    1    100.0   15 
 4/11/22  23.15   17.4   17.4   17.3    47    6.0   9.7    NE   2.41  19.3   NNE   17.4   16.2   16.2   14.7   568.7  0.00   0.0     0     0.00      0     0.0  0.00   0.0   0.010   0.000   19.4    49    8.4   18.6    0.00   351    1    100.0   15 
 4/11/22  23.30   17.3   17.4   17.2    48    6.2   8.0   NNE   2.01  20.9     N   17.3   16.1   16.1   14.6   568.7  0.00   0.0     0     0.00      0     0.0  0.00   0.0   0.011   0.000   19.3    49    8.3   18.5    0.00   351    1    100.0   15 
 5/11/22  11.14    8.9   20.8   18.6    67    3.2  95.4         0.00  72.9   ENE    1.5    8.6    1.2  364.4  ------1219.201107.4   560     0.00    490    10.1  0.00   0.2   0.000   0.000   15.2    48    4.3   14.0    0.00   430    6      0.0    0 
 5/11/22-530.-49   15.1  129.3    ---    48    4.2 104.9  LEAP 445.95  77.6     N    8.9   13.9    7.8    7.8  ------1884.681155.7   482   176.19    593     1.3  2.37   ---   0.571   0.000  -11.6    58  -18.1  -11.7    1.52   671    1     11.5  255 
 5/11/22   0.15   17.6   17.8   17.6    49    6.8   8.0   NNE   2.01  16.1   NNE   17.6   16.6   16.6   15.1   568.7  0.00   0.0     0     0.00      0     0.0  0.00   0.0   0.008   0.000   19.3    49    8.3   18.5    0.00   350    1    100.0   15 
 5/11/22   0.30   17.6   17.7   17.5    49    6.7  11.3   NNE   2.82  20.9    NE   17.6   16.5   16.5   15.0   568.7  0.00   0.0     0     0.00      0     0.0  0.00   0.0   0.008   0.000   19.3    49    8.3   18.5    0.00   350    1    100.0   15 
 5/11/22   0.45   17.3   17.6   17.3    50    6.8  11.3   NNE   2.82  24.1   NNE   17.3   16.3   16.2   14.7   568.7  0.00   0.0     0     0.00      0     0.0  0.00   0.0   0.010   0.000   19.3    49    8.3   18.5    0.00   351    1    100.0   15 
 5/11/22   1.00   17.5   17.6   17.3    50    7.0  12.9    NE   3.22  24.1   NNE   17.1   16.4   16.0   14.6   568.7  0.00   0.0     0     0.00      0     0.0  0.00   0.0   0.009   0.000   19.3    49    8.3   18.5    0.10   351    1    100.0   15 
 5/11/22   1.15   17.5   17.7   17.5    50    7.0  12.9   NNE   3.22  24.1   NNE   17.1   16.4   16.0   14.6   568.7  0.00   0.0     0     0.00      0     0.0  0.00   0.0   0.009   0.000   19.3    49    8.3   18.5    0.00   352    1    100.0   15 
 5/11/22   1.30   17.3   17.5   17.2    51    7.1   9.7   NNE   2.41  20.9   NNE   17.3   16.3   16.3   14.8   568.7  0.00   0.0     0     0.00      0     0.0  0.00   0.0   0.010   0.000   19.3    49    8.3   18.5    0.00   351    1    100.0   15 
 5/11/22   1.45   17.3   17.5   17.3    50    6.8  11.3   NNE   2.82  27.4   NNE   17.3   16.3   16.2   14.7   568.7  0.00   0.0     0     0.00      0     0.0  0.00   0.0   0.010   0.000   19.3    49    8.3   18.4    0.00   351    1    100.0   15 
 5/11/22   2.00   17.3   17.3   17.1    50    6.8   8.0   NNE   2.01  20.9   NNE   17.3   16.2   16.2   14.7   568.7  0.00   0.0     0     0.00      0     0.0  0.00   0.0   0.011   0.000   19.3    49    8.3   18.4    0.10   350    1    100.0   15 
 5/11/22   2.15   16.9   17.3   16.9    51    6.7   8.0     N   2.01  19.3   NNE   16.9   15.9   15.9   14.4   568.7  0.00   0.0     0     0.00      0     0.0  0.00   0.0   0.015   0.000   19.3    49    8.3   18.4    0.00   352    1    100.0   15 
 5/11/22   2.30   16.8   17.0   16.8    52    6.9   6.4   NNE   1.61  16.1   NNW   16.8   15.9   15.9   14.4   568.7  0.00   0.0     0     0.00      0     0.0  0.00   0.0   0.016   0.000   19.3    50    8.6   18.4    0.00   351    1    100.0   15 
 5/11/22   2.45   16.9   17.1   16.8    53    7.2   8.0     N   2.01  24.1   NNE   16.9   16.0   16.0   14.6   568.7  0.00   0.0     0     0.00      0     0.0  0.00   0.0   0.015   0.000   19.3    50    8.6   18.4    0.00   350    1    100.0   15 
 5/11/22   3.00   17.0   17.1   16.8    53    7.3   8.0   NNE   2.01  19.3     N   17.0   16.1   16.1   14.7   568.7  0.00   0.0     0     0.00      0     0.0  0.00   0.0   0.014   0.000   19.3    50    8.6   18.4    0.08   351    1    100.0   15 
 5/11/22   3.15   17.1   17.2   17.0    53    7.4   8.0   NNE   2.01  19.3   ENE   17.1   16.2   16.2   14.7   568.7  0.00   0.0     0     0.00      0     0.0  0.00   0.0   0.013   0.000   19.3    50    8.6   18.4    0.00   351    1    100.0   15 
 5/11/22   3.30   17.1   17.2   17.0    54    7.7   8.0   NNE   2.01  19.3   NNE   17.1   16.2   16.2   14.8   568.7  0.00   0.0     0     0.00      0     0.0  0.00   0.0   0.013   0.000   19.3    50    8.6   18.4    0.00   351    1    100.0   15 
 5/11/22   3.45   16.6   17.1   16.6    55    7.5   4.8    NE   1.21  16.1    NE   16.6   15.8   15.8   14.3   568.7  0.00   0.0     0     0.00      0     0.0  0.00   0.0   0.018   0.000   19.3    51    8.9   18.5    0.00   350    1    100.0   15 
 5/11/22   4.00   16.4   16.7   16.3    54    7.1   3.2    NE   0.80  14.5   NNE   16.4   15.6   15.6   14.1   568.7  0.00   0.0     0     0.00      0     0.0  0.00   0.0   0.020   0.000   19.3    51    8.9   18.5    0.08   351    1    100.0   15 
 5/11/22   4.15   15.6   16.4   15.6    58    7.3   0.0    NE   0.00   6.4    NE   15.6   14.8   14.8   13.3   568.7  0.00   0.0     0     0.00      0     0.0  0.00   0.0   0.029   0.000   19.3    52    9.2   18.6    0.00   350    1    100.0   15 
 5/11/22   4.30   14.7   15.6   14.7    62    7.5   3.2    NW   0.80   6.4    NW   14.7   14.0   14.0   12.6   568.7  0.00   0.0     0     0.00      0     0.0  0.00   0.0   0.038   0.000   19.3    52    9.2   18.6    0.00   352    1    100.0   15 
 5/11/22   4.45   13.9   14.7   13.9    65    7.5   3.2   WNW   0.80  12.9    NW   13.9   13.4   13.4   11.9   568.7  0.00   0.0     0     0.00      0     0.0  0.00   0.0   0.046   0.000   19.3    53    9.5   18.6    0.00   351    1    100.0   15 
 5/11/22   5.00   13.7   14.1   13.6    66    7.4   3.2   WNW   0.80   8.0   WNW   13.7   13.1   13.1   11.7   568.7  0.00   0.0     0     0.00      0     0.0  0.00   0.0   0.049   0.000   19.3    53    9.5   18.6    0.05   350    1    100.0   15 
 5/11/22   5.15   13.3   13.8   13.3    68    7.5   4.8   WNW   1.21   8.0   WNW   13.3   12.8   12.8   11.4   568.7  0.00   0.0     0     0.00      0     0.0  0.00   0.0   0.052   0.000   19.2    53    9.4   18.5    0.00   351    1    100.0   15 
 5/11/22   5.30   13.1   13.3   13.1    69    7.5   3.2   WNW   0.80   9.7   WNW   13.1   12.7   12.7   11.2   568.7  0.00   0.0     0     0.00      0     0.0  0.00   0.0   0.054   0.000   19.2    53    9.4   18.5    0.00   352    1    100.0   15 
 5/11/22   5.45   12.7   13.1   12.7    70    7.3   1.6   WNW   0.40   8.0     W   12.7   12.2   12.2   10.8   568.7  0.00   0.0     0     0.00      0     0.0  0.00   0.0   0.059   0.000   19.2    54    9.6   18.6    0.00   351    1    100.0   15 
 5/11/22   6.00   12.3   12.7   12.3    71    7.2   0.0   ---   0.00   0.0   ---   12.3   11.9   11.9   10.4   568.7  0.00   0.0     0     0.00      0     0.0  0.00   0.0   0.063   0.000   19.2    54    9.6   18.6    0.03   351    1    100.0   15 
 5/11/22   6.15   11.7   12.3   11.7    72    6.8   0.0   WNW   0.00   3.2   WNW   11.7   11.3   11.3    9.8   568.7  0.00   0.0     0     0.00      0     0.0  0.00   0.0   0.069   0.000   19.1    54    9.5   18.4    0.00   351    1    100.0   15 
 5/11/22   6.30   11.1   11.7   11.0    75    6.8   1.6   WNW   0.40   4.8   WNW   11.1   10.8   10.8    9.3   568.7  0.00   0.0     0     0.00      0     0.0  0.00   0.0   0.076   0.000   19.1    54    9.5   18.4    0.00   351    1    100.0   15 
 5/11/22   6.45   10.8   11.1   10.7    76    6.8   0.0   WNW   0.00   3.2   WNW   10.8   10.7   10.7    9.2   568.7  0.00   0.0     0     0.00      0     0.0  0.00   0.0   0.078   0.000   19.0    54    9.5   18.3    0.00   352    1    100.0   15 
 5/11/22   7.00   11.2   11.2   10.8    76    7.1   1.6   WNW   0.40   4.8   WNW   11.2   11.0   11.0    9.6   568.7  0.00   0.0     2     0.04      7     0.0  0.00   0.0   0.074   0.000   19.0    54    9.5   18.3    0.00   351    1    100.0   15 
 5/11/22   7.15   12.6   12.6   11.3    71    7.5   1.6   WNW   0.40   6.4   WNW   12.6   12.2   12.2   10.9   568.7  0.00   0.0    10     0.22     14     0.0  0.00   0.0   0.060   0.000   19.0    54    9.5   18.3    0.00   350    1    100.0   15 
 5/11/22   7.30   13.6   13.6   12.6    67    7.5   0.0   WNW   0.00   9.7   NNE   13.6   13.1   13.1   11.9   568.7  0.00   0.0    27     0.58     40     0.0  0.00   0.0   0.050   0.000   18.9    55    9.6   18.3    0.00   350    1    100.0   15 
 5/11/22   7.45   14.4   14.4   13.6    64    7.7   0.0   NNW   0.00   6.4    NW   14.4   13.8   13.8   13.1   568.7  0.00   0.0    59     1.27     77     0.0  0.00   0.0   0.041   0.000   18.9    55    9.6   18.3    0.00   352    1    100.0   15 
 5/11/22   8.00   14.8   14.8   14.4    63    7.9   0.0     W   0.00   3.2   WSW   14.8   14.2   14.2   14.1   568.7  0.00   0.0   101     2.17    123     0.0  0.00   0.0   0.036   0.000   18.9    55    9.6   18.3    0.03   351    1    100.0   15 
 5/11/22   8.15   15.8   15.8   14.9    60    8.0   0.0     N   0.00   4.8     N   15.8   15.1   15.1   16.9   568.7  0.00   0.0   148     3.18    171     0.0  0.00   0.0   0.027   0.000   18.9    56    9.9   18.3    0.00   351    1    100.0   15 
 5/11/22   8.30   16.8   16.8   15.8    59    8.8   0.0     N   0.00   8.0     N   16.8   16.2   16.2   19.1   568.7  0.00   0.0   199     4.28    223     0.0  0.00   0.0   0.016   0.000   18.9    56    9.9   18.3    0.00   351    1    100.0   15 
 5/11/22   8.45   17.2   17.2   16.8    56    8.4   3.2   NNE   0.80  11.3   NNW   17.2   16.5   16.5   20.4   568.7  0.00   0.0   254     5.46    278     0.0  0.00   0.0   0.012   0.000   19.0    56   10.0   18.4    0.00   352    1    100.0   15 
 5/11/22   9.00   17.6   17.6   17.2    55    8.4   6.4     N   1.61  16.1     N   17.6   16.8   16.8   21.3   568.7  0.00   0.0   295     6.34    309     0.0  0.00   0.0   0.008   0.000   19.0    56   10.0   18.4    0.15   349    1    100.0   15 
 5/11/22   9.15   17.8   17.8   17.6    53    8.1   9.7   NNE   2.41  19.3     N   17.8   16.9   16.9   21.6   568.7  0.00   0.0   326     7.01    341     0.0  0.00   0.0   0.006   0.000   19.0    55    9.8   18.4    0.00   351    1    100.0   15 
 5/11/22   9.30   17.9   17.9   17.8    52    7.9   9.7     N   2.41  22.5   NNE   17.9   17.1   17.1   21.9   568.7  0.00   0.0   356     7.65    369     0.0  0.00   0.0   0.004   0.000   19.1    54    9.5   18.4    0.00   351    1    100.0   15 
 5/11/22   9.45   18.1   18.1   17.9    48    6.9  11.3     N   2.82  25.7     N   18.1   17.0   17.0   21.8   568.7  0.00   0.0   385     8.28    399     0.0  0.00   0.0   0.003   0.000   19.1    53    9.3   18.4    0.00   351    1    100.0   15 
 5/11/22  10.00   18.3   18.3   18.1    50    7.7   9.7     N   2.41  20.9   NNE   18.3   17.3   17.3   22.3   568.7  0.00   0.0   412     8.86    424     0.0  0.00   0.0   0.001   0.000   19.1    53    9.3   18.4    0.28   351    1    100.0   15 
 5/11/22  10.15   18.3   18.3   18.2    47    6.8  11.3     N   2.82  19.3     N   18.3   17.2   17.2   22.2   568.7  0.00   0.0   435     9.35    448     0.0  0.00   0.0   0.000   0.000   19.2    52    9.1   18.4    0.00   351    1    100.0   15 
 5/11/22  10.30   18.6   18.6   18.3    48    7.3  11.3   NNW   2.82  22.5   NNW   18.6   17.5   17.5   22.6   568.7  0.00   0.0   460     9.89    473     0.0  0.00   0.0   0.000   0.002   19.3    52    9.2   18.6    0.00   351    1    100.0   15 
 5/11/22  10.45   18.5   18.7   18.5    48    7.3  11.3     N   2.82  24.1     N   18.5   17.4   17.4   22.6   568.7  0.00   0.0   487    10.47    503     0.0  0.00   0.0   0.000   0.002   19.3    51    8.9   18.5    0.00   351    1    100.0   15 
 5/11/22  11.00   18.6   18.7   18.5    48    7.4  12.9     N   3.22  27.4     N   18.3   17.6   17.3   22.3   568.7  0.00   0.0   519    11.16    543     0.0  0.00   0.0   0.000   0.003   19.3    51    8.9   18.6    0.36   352    1    100.0   15 
 5/11/22  11.15   18.6   18.7   18.4    50    7.9  11.3     N   2.82  29.0   NNE   18.6   17.6   17.6   22.7   568.7  0.00   0.0   437     9.40    557     0.0  0.00   0.0   0.000   0.002   19.4    51    9.0   18.7    0.00   351    1    100.0   15 
 5/11/22  11.30   18.8   18.8   18.6    49    7.8   9.7     N   2.41  17.7     N   18.8   17.8   17.8   22.7   568.7  0.00   0.0   408     8.77    548     0.0  0.00   0.0   0.000   0.005   19.5    51    9.1   18.8    0.00   350    1    100.0   15 
 5/11/22  11.45   18.8   18.9   18.7    48    7.6  11.3     N   2.82  22.5     N   18.8   17.8   17.8   22.7   568.7  0.00   0.0   434     9.33    564     0.0  0.00   0.0   0.000   0.005   19.6    51    9.2   18.9    0.00   350    1    100.0   15 
 5/11/22  12.00   19.1   19.2   18.8    48    7.8  12.9     N   3.22  24.1   NNW   18.7   18.1   17.8   23.1   568.7  0.00   0.0   533    11.46    592     0.0  0.00   0.0   0.000   0.008   19.7    51    9.3   19.0    0.33   352    1    100.0   15 
 5/11/22  12.15   19.1   19.2   19.0    49    8.1  12.9     N   3.22  22.5   NNW   18.8   18.2   17.9   22.9   568.7  0.00   0.0   484    10.41    550     0.0  0.00   0.0   0.000   0.008   19.8    51    9.3   19.1    0.00   350    1    100.0   15 
 5/11/22  12.30   19.3   19.3   19.1    44    6.8  12.9   NNW   3.22  22.5   NNE   19.0   18.2   17.8   22.9   568.7  0.00   0.0   493    10.60    538     0.0  0.00   0.0   0.000   0.010   19.9    51    9.4   19.2    0.00   350    1    100.0   15 
 5/11/22  12.45   19.4   19.5   19.3    46    7.5  12.9     N   3.22  29.0     N   19.1   18.4   18.1   23.3   568.7  0.00   0.0   515    11.07    550     0.0  0.00   0.0   0.000   0.012   20.1    51    9.6   19.4    0.00   351    1    100.0   15 
 5/11/22  13.00   19.3   19.5   19.3    47    7.7  12.9   NNW   3.22  24.1   NNW   18.9   18.3   17.9   22.7   568.7  0.00   0.0   449     9.65    506     0.0  0.00   0.0   0.000   0.010   20.3    51    9.8   19.6    0.38   352    1    100.0   15 
 5/11/22  13.15   19.3   19.3   19.2    47    7.7  11.3   NNW   2.82  22.5    NW   19.3   18.4   18.4   23.4   568.7  0.00   0.0   450     9.68    520     0.0  0.00   0.0   0.000   0.010   20.3    51    9.9   19.6    0.00   351    1    100.0   15 
 5/11/22  13.30   19.4   19.6   19.3    45    7.2   8.0     N   2.01  20.9     N   19.4   18.4   18.4   23.4   568.7  0.00   0.0   440     9.46    494     0.0  0.00   0.0   0.000   0.012   20.4    51   10.0   19.7    0.00   350    1    100.0   15 
 5/11/22  13.45   19.4   19.6   19.4    43    6.5   9.7     N   2.41  20.9   NNW   19.4   18.3   18.3   23.1   568.7  0.00   0.0   404     8.69    454     0.0  0.00   0.0   0.000   0.012   20.6    51   10.1   19.8    0.00   350    1    100.0   15 
 5/11/22  14.00   19.5   19.6   19.4    43    6.6   8.0   NNW   2.01  19.3   NNW   19.5   18.3   18.3   23.3   568.7  0.00   0.0   414     8.90    431     0.0  0.00   0.0   0.000   0.012   20.7    51   10.2   19.9    0.30   349    1    100.0   15 
 5/11/22  14.15   19.4   19.7   19.3    45    7.1   8.0     N   2.01  19.3   NNE   19.4   18.3   18.3   23.1   568.7  0.00   0.0   388     8.34    420     0.0  0.00   0.0   0.000   0.011   20.8    50   10.0   20.0    0.00   352    1    100.0   15 
 5/11/22  14.30   19.2   19.4   19.2    46    7.3   9.7     N   2.41  19.3     N   19.2   18.1   18.1   22.3   568.7  0.00   0.0   326     7.01    411     0.0  0.00   0.0   0.000   0.009   20.8    49    9.7   19.9    0.00   351    1    100.0   15 
 5/11/22  14.45   19.2   19.3   19.1    47    7.6   9.7   NNE   2.41  16.1   NNW   19.2   18.2   18.2   22.6   568.7  0.00   0.0   330     7.10    380     0.0  0.00   0.0   0.000   0.009   20.6    49    9.5   19.8    0.00   351    1    100.0   15 
 5/11/22  15.00   19.3   19.3   19.1    47    7.7   6.4   NNE   1.61  19.3    NE   19.3   18.3   18.3   22.3   568.7  0.00   0.0   293     6.30    323     0.0  0.00   0.0   0.000   0.010   20.4    49    9.4   19.6    0.25   350    1    100.0   15 
 5/11/22  15.15   19.3   19.3   19.2    48    8.0   4.8   NNE   1.21  17.7   NNE   19.3   18.4   18.4   22.5   568.7  0.00   0.0   284     6.11    325     0.0  0.00   0.0   0.000   0.010   20.3    49    9.3   19.5    0.00   351    1    100.0   15 
 5/11/22  15.30   19.2   19.3   19.1    47    7.6   6.4   NNW   1.61  17.7   WNW   19.2   18.2   18.2   21.4   568.7  0.00   0.0   221     4.75    271     0.0  0.00   0.0   0.000   0.009   20.3    50    9.5   19.5    0.00   351    1    100.0   15 
 5/11/22  15.45   19.1   19.2   19.0    48    7.8   3.2   NNW   0.80   9.7    NW   19.1   18.2   18.2   20.8   568.7  0.00   0.0   181     3.89    207     0.0  0.00   0.0   0.000   0.008   20.2    51    9.7   19.5    0.00   351    1    100.0   15 
 5/11/22  16.00   19.3   19.3   19.1    49    8.3   0.0     N   0.00   6.4     N   19.3   18.4   18.4   20.8   568.7  0.00   0.0   163     3.50    188     0.0  0.00   0.0   0.000   0.010   20.1    51    9.6   19.4    0.15   350    1    100.0   15 
 5/11/22  16.15   18.8   19.3   18.8    50    8.2   1.6    NW   0.40   6.4     W   18.8   17.9   17.9   19.2   568.7  0.00   0.0   102     2.19    139     0.0  0.00   0.0   0.000   0.005   20.0    52    9.8   19.4    0.00   352    1    100.0   15 
 5/11/22  16.30   18.1   18.8   18.1    54    8.6   0.0    NW   0.00   3.2    NW   18.1   17.3   17.3   17.4   568.7  0.00   0.0    49     1.05     84     0.0  0.00   0.0   0.003   0.000   20.0    52    9.8   19.4    0.00   351    1    100.0   15 
 5/11/22  16.45   16.7   18.1   16.7    60    8.9   1.6   WNW   0.40   4.8   WNW   16.7   16.0   16.0   15.4   568.7  0.00   0.0    21     0.45     26     0.0  0.00   0.0   0.017   0.000   19.9    52    9.7   19.3    0.00   351    1    100.0   15 
 5/11/22  17.00   15.8   16.7   15.8    63    8.8   1.6   WNW   0.40   6.4   WNW   15.8   15.3   15.3   14.0   568.7  0.00   0.0    13     0.28     18     0.0  0.00   0.0   0.026   0.000   19.8    53    9.9   19.2    0.05   351    1    100.0   15 
 5/11/22  17.15   15.3   15.8   15.3    64    8.6   0.0   WNW   0.00   3.2   WNW   15.3   14.8   14.8   13.4   568.7  0.00   0.0     5     0.11      7     0.0  0.00   0.0   0.031   0.000   19.8    53    9.9   19.2    0.00   351    1    100.0   15 
 5/11/22  17.30   15.2   15.3   15.2    64    8.4   0.0   WNW   0.00   3.2   WNW   15.2   14.6   14.6   13.2   568.7  0.00   0.0     0     0.00      0     0.0  0.00   0.0   0.033   0.000   19.7    54   10.1   19.2    0.00   350    1    100.0   15 
 5/11/22  17.45   14.3   15.2   14.3    67    8.3   0.0   WNW   0.00   3.2   WNW   14.3   13.8   13.8   12.4   568.7  0.00   0.0     0     0.00      0     0.0  0.00   0.0   0.042   0.000   19.6    54   10.0   19.1    0.00   351    1    100.0   15 
 5/11/22  18.00   13.9   14.3   13.9    69    8.3   0.0   WNW   0.00   1.6   WNW   13.9   13.4   13.4   12.0   568.7  0.00   0.0     0     0.00      0     0.0  0.00   0.0   0.046   0.000   19.6    54   10.0   19.1    0.00   351    1    100.0   15 
 5/11/22  18.15   13.2   13.9   13.2    70    7.9   0.0   WNW   0.00   1.6   WNW   13.2   12.8   12.8   11.3   568.7  0.00   0.0     0     0.00      0     0.0  0.00   0.0   0.053   0.000   19.5    54    9.9   18.9    0.00   351    1    100.0   15 
 5/11/22  18.30   12.7   13.2   12.7    72    7.8   0.0   WNW   0.00   3.2   WNW   12.7   12.3   12.3   10.9   568.7  0.00   0.0     0     0.00      0     0.0  0.00   0.0   0.058   0.000   19.4    55   10.2   18.9    0.00   351    1    100.0   15 
 5/11/22  18.45   12.1   12.7   12.1    73    7.4   1.6    NW   0.40   4.8    NW   12.1   11.8   11.8   10.3   568.7  0.00   0.0     0     0.00      0     0.0  0.00   0.0   0.065   0.000   19.4    55   10.2   18.9    0.00   351    1    100.0   15 
 5/11/22  19.00   11.6   12.1   11.5    75    7.3   1.6   NNW   0.40   4.8   NNW   11.6   11.3   11.3    9.8   568.7  0.00   0.0     0     0.00      0     0.0  0.00   0.0   0.071   0.000   19.3    55   10.1   18.8    0.03   351    1    100.0   15 
 5/11/22  19.15   11.3   11.6   11.3    76    7.2   0.0   NNW   0.00   3.2   NNW   11.3   11.1   11.1    9.6   568.7  0.00   0.0     0     0.00      0     0.0  0.00   0.0   0.073   0.000   19.3    55   10.0   18.7    0.00   351    1    100.0   15 
 5/11/22  19.30   10.8   11.3   10.8    77    6.9   1.6   NNW   0.40   3.2   NNW   10.8   10.6   10.6    9.1   568.7  0.00   0.0     0     0.00      0     0.0  0.00   0.0   0.079   0.000   19.3    55   10.0   18.7    0.00   352    1    100.0   15 
 5/11/22  19.45   10.8   10.9   10.7    78    7.1   0.0   NNW   0.00   3.2   NNW   10.8   10.7   10.7    9.2   568.7  0.00   0.0     0     0.00      0     0.0  0.00   0.0   0.078   0.000   19.2    55    9.9   18.6    0.00   351    1    100.0   15 
 5/11/22  20.00   10.8   10.9   10.8    79    7.3   0.0   NNW   0.00   3.2   NNW   10.8   10.7   10.7    9.2   568.7  0.00   0.0     0     0.00      0     0.0  0.00   0.0   0.079   0.000   19.2    55    9.9   18.6    0.03   351    1    100.0   15 
 5/11/22  20.15   10.6   10.8   10.6    79    7.1   1.6   NNW   0.40   6.4     N   10.6   10.5   10.5    9.0   568.7  0.00   0.0     0     0.00      0     0.0  0.00   0.0   0.080   0.000   19.1    55    9.8   18.5    0.00   351    1    100.0   15 
 5/11/22  20.30   10.6   10.7   10.3    80    7.2   1.6     N   0.40   4.8     N   10.6   10.5   10.5    9.1   568.7  0.00   0.0     0     0.00      0     0.0  0.00   0.0   0.081   0.000   19.1    55    9.8   18.5    0.00   351    1    100.0   15 
 5/11/22  20.45   10.1   10.7   10.1    80    6.8   0.0   NNW   0.00   1.6   NNW   10.1   10.1   10.1    8.6   568.7  0.00   0.0     0     0.00      0     0.0  0.00   0.0   0.086   0.000   19.0    55    9.8   18.4    0.00   351    1    100.0   15 
 5/11/22  21.00    9.9   10.2    9.9    81    6.8   1.6     N   0.40   4.8   NNW    9.9    9.9    9.9    8.4   568.7  0.00   0.0     0     0.00      0     0.0  0.00   0.0   0.087   0.000   19.0    55    9.8   18.4    0.03   351    1    100.0   15 
 5/11/22  21.15    9.9   10.1    9.9    81    6.8   3.2     N   0.80   4.8     N    9.9    9.9    9.9    8.4   568.7  0.00   0.0     0     0.00      0     0.0  0.00   0.0   0.087   0.000   18.9    55    9.6   18.3    0.00   351    1    100.0   15 
 5/11/22  21.30    9.7   10.0    9.7    82    6.8   1.6     N   0.40   3.2     N    9.7    9.7    9.7    8.2   568.7  0.00   0.0     0     0.00      0     0.0  0.00   0.0   0.090   0.000   18.9    55    9.6   18.3    0.00   351    1    100.0   15 
 5/11/22  21.45    9.6    9.7    9.5    82    6.6   3.2     N   0.80   4.8     N    9.6    9.6    9.6    8.1   568.7  0.00   0.0     0     0.00      0     0.0  0.00   0.0   0.091   0.000   18.8    55    9.6   18.2    0.00   352    1    100.0   15 
 5/11/22  22.00    9.6    9.7    9.5    83    6.8   3.2     N   0.80   4.8     N    9.6    9.6    9.6    8.1   568.7  0.00   0.0     0     0.00      0     0.0  0.00   0.0   0.091   0.000   18.8    55    9.6   18.2    0.03   351    1    100.0   15 
 5/11/22  22.15    9.6    9.6    9.3    83    6.8   3.2     N   0.80   4.8     N    9.6    9.6    9.6    8.1   568.7  0.00   0.0     0     0.00      0     0.0  0.00   0.0   0.091   0.000   18.8    55    9.6   18.2    0.00   350    1    100.0   15 
 5/11/22  22.30    9.6    9.8    9.6    83    6.9   3.2     N   0.80   6.4     N    9.6    9.6    9.6    8.1   568.7  0.00   0.0     0     0.00      0     0.0  0.00   0.0   0.091   0.000   18.7    55    9.5   18.1    0.00   351    1    100.0   15 
 5/11/22  22.45    9.3    9.6    9.3    83    6.6   1.6   NNE   0.40   6.4     N    9.3    9.3    9.3    7.8   568.7  0.00   0.0     0     0.00      0     0.0  0.00   0.0   0.094   0.000   18.7    55    9.5   18.1    0.00   351    1    100.0   15 
 5/11/22  23.00    9.2    9.4    9.2    84    6.7   3.2     N   0.80   6.4   NNE    9.2    9.2    9.2    7.7   568.7  0.00   0.0     0     0.00      0     0.0  0.00   0.0   0.095   0.000   18.6    55    9.4   18.0    0.03   351    1    100.0   15 
 5/11/22  23.15    9.2    9.4    9.2    84    6.6   3.2     N   0.80   6.4     N    9.2    9.2    9.2    7.7   568.7  0.00   0.0     0     0.00      0     0.0  0.00   0.0   0.095   0.000   18.6    55    9.4   18.0    0.00   350    1    100.0   15 
 5/11/22  23.30    9.4    9.4    9.0    85    7.0   1.6     N   0.40   4.8     N    9.4    9.5    9.5    8.0   568.7  0.00   0.0     0     0.00      0     0.0  0.00   0.0   0.093   0.000   18.6    55    9.4   18.0    0.00   351    1    100.0   15 
 6/11/22  11.54    8.8   20.4   17.8    71    3.9  97.5         0.00  88.7   ENE    1.3    8.6    1.1  364.3  ------1633.221112.5   730     0.00    550     5.8  0.00   0.3   0.000   0.000   15.9    48    4.9   14.7    0.00   600    7      0.0    0 
 6/11/22 369.39   23.6  271.9    ---    48   11.9 116.2  Long 493.83  77.4     N   19.2   23.4   19.0  517.4  ------2133.601153.2   481   175.83    606    10.4 18.94   0.0   0.000   0.925   -9.9    61  -16.0  -10.1    0.00   713    1     12.3  255 
 6/11/22   0.15    9.1    9.3    8.9    85    6.7   0.0   ---   0.00   0.0   ---    9.1    9.1    9.1    7.6   568.7  0.00   0.0     0     0.00      0     0.0  0.00   0.0   0.097   0.000   18.4    55    9.2   17.8    0.00   349    1    100.0   15 
 6/11/22   0.30    9.0    9.2    9.0    85    6.6   0.0   ---   0.00   0.0   ---    9.0    9.0    9.0    7.5   568.7  0.00   0.0     0     0.00      0     0.0  0.00   0.0   0.097   0.000   18.4    55    9.2   17.8    0.00   351    1    100.0   15 
 6/11/22   0.45    8.9    9.1    8.9    85    6.6   0.0     N   0.00   1.6     N    8.9    8.9    8.9    7.4   568.7  0.00   0.0     0     0.00      0     0.0  0.00   0.0   0.098   0.000   18.4    55    9.2   17.8    0.00   351    1    100.0   15 
 6/11/22   1.00    9.1    9.3    8.9    85    6.7   0.0     N   0.00   3.2     N    9.1    9.1    9.1    7.6   568.7  0.00   0.0     0     0.00      0     0.0  0.00   0.0   0.096   0.000   18.3    55    9.1   17.7    0.00   351    1    100.0   15 
 6/11/22   1.15    9.6    9.7    9.1    85    7.2   0.0     N   0.00   3.2     N    9.6    9.6    9.6    8.1   568.7  0.00   0.0     0     0.00      0     0.0  0.00   0.0   0.091   0.000   18.3    55    9.1   17.7    0.00   350    1    100.0   15 
 6/11/22   1.30    9.4    9.6    9.3    86    7.2   0.0   ---   0.00   0.0   ---    9.4    9.4    9.4    7.9   568.7  0.00   0.0     0     0.00      0     0.0  0.00   0.0   0.093   0.000   18.3    55    9.1   17.7    0.00   351    1    100.0   15 
 6/11/22   1.45    9.4    9.5    9.2    86    7.2   1.6     N   0.40   4.8     N    9.4    9.4    9.4    7.9   568.7  0.00   0.0     0     0.00      0     0.0  0.00   0.0   0.093   0.000   18.3    55    9.1   17.6    0.00   351    1    100.0   15 
 6/11/22   2.00    9.2    9.3    9.2    86    6.9   0.0     N   0.00   3.2     N    9.2    9.2    9.2    7.7   568.7  0.00   0.0     0     0.00      0     0.0  0.00   0.0   0.095   0.000   18.3    55    9.1   17.6    0.00   351    1    100.0   15 
 6/11/22   2.15    9.2    9.2    8.8    86    6.9   0.0     N   0.00   3.2     N    9.2    9.2    9.2    7.7   568.7  0.00   0.0     0     0.00      0     0.0  0.00   0.0   0.095   0.000   18.3    55    9.1   17.6    0.00   351    1    100.0   15 
 6/11/22   2.30    9.3    9.5    9.2    86    7.1   0.0     N   0.00   3.2     N    9.3    9.4    9.4    7.9   568.7  0.00   0.0     0     0.00      0     0.0  0.00   0.0   0.094   0.000   18.3    56    9.3   17.7    0.00   352    1    100.0   15 
 6/11/22   2.45    9.6    9.6    9.1    87    7.5   0.0     N   0.00   3.2     N    9.6    9.7    9.7    8.2   568.7  0.00   0.0     0     0.00      0     0.0  0.00   0.0   0.091   0.000   18.2    56    9.2   17.5    0.00   350    1    100.0   15 
 6/11/22   3.00    9.1    9.6    9.0    87    7.0   0.0     N   0.00   3.2     N    9.1    9.1    9.1    7.6   568.7  0.00   0.0     0     0.00      0     0.0  0.00   0.0   0.097   0.000   18.2    56    9.2   17.5    0.00   351    1    100.0   15 
 6/11/22   3.15    9.6    9.6    9.1    87    7.6   0.0     N   0.00   3.2     N    9.6    9.7    9.7    8.3   568.7  0.00   0.0     0     0.00      0     0.0  0.00   0.0   0.091   0.000   18.2    56    9.2   17.5    0.00   351    1    100.0   15 
 6/11/22   3.30    9.3    9.8    9.3    87    7.2   0.0     N   0.00   1.6     N    9.3    9.4    9.4    7.9   568.7  0.00   0.0     0     0.00      0     0.0  0.00   0.0   0.094   0.000   18.2    56    9.2   17.5    0.00   352    1    100.0   15 
 6/11/22   3.45    9.4    9.6    9.2    87    7.4   1.6     N   0.40   3.2     N    9.4    9.6    9.6    8.1   568.7  0.00   0.0     0     0.00      0     0.0  0.00   0.0   0.093   0.000   18.1    56    9.2   17.4    0.00   350    1    100.0   15 
 6/11/22   4.00    9.8   10.1    9.4    87    7.8   1.6     N   0.40   3.2     N    9.8    9.9    9.9    8.5   568.7  0.00   0.0     0     0.00      0     0.0  0.00   0.0   0.089   0.000   18.1    56    9.2   17.4    0.00   351    1    100.0   15 
 6/11/22   4.15    9.2    9.8    9.1    87    7.1   0.0   ---   0.00   0.0   ---    9.2    9.2    9.2    7.7   568.7  0.00   0.0     0     0.00      0     0.0  0.00   0.0   0.095   0.000   18.1    56    9.2   17.4    0.00   350    1    100.0   15 
 6/11/22   4.30    9.7    9.7    9.1    88    7.8   0.0   ---   0.00   0.0   ---    9.7    9.8    9.8    8.3   568.7  0.00   0.0     0     0.00      0     0.0  0.00   0.0   0.090   0.000   18.1    56    9.2   17.4    0.00   351    1    100.0   15 
 6/11/22   4.45    9.3    9.7    9.3    88    7.4   0.0   ---   0.00   0.0   ---    9.3    9.4    9.4    8.0   568.7  0.00   0.0     0     0.00      0     0.0  0.00   0.0   0.094   0.000   18.0    56    9.1   17.3    0.00   352    1    100.0   15 
 6/11/22   5.00    9.6    9.6    9.3    88    7.7   0.0     N   0.00   3.2     N    9.6    9.7    9.7    8.3   568.7  0.00   0.0     0     0.00      0     0.0  0.00   0.0   0.091   0.000   18.0    56    9.1   17.3    0.00   351    1    100.0   15 
 6/11/22   5.15    9.9    9.9    9.4    88    8.0   0.0     N   0.00   3.2     N    9.9   10.0   10.0    8.6   568.7  0.00   0.0     0     0.00      0     0.0  0.00   0.0   0.088   0.000   18.0    56    9.1   17.3    0.00   350    1    100.0   15 
 6/11/22   5.30    9.3   10.0    9.3    88    7.4   0.0   ---   0.00   0.0   ---    9.3    9.4    9.4    7.9   568.7  0.00   0.0     0     0.00      0     0.0  0.00   0.0   0.094   0.000   18.0    57    9.3   17.4    0.00   350    1    100.0   15 
 6/11/22   5.45   10.1   10.2    9.2    88    8.2   0.0   ---   0.00   0.0   ---   10.1   10.2   10.2    8.8   568.7  0.00   0.0     0     0.00      0     0.0  0.00   0.0   0.086   0.000   17.9    57    9.2   17.3    0.00   352    1    100.0   15 
 6/11/22   6.00   10.4   10.5    9.9    88    8.5   0.0   ---   0.00   0.0   ---   10.4   10.5   10.5    9.1   568.7  0.00   0.0     0     0.00      0     0.0  0.00   0.0   0.082   0.000   17.9    57    9.2   17.3    0.00   351    1    100.0   15 
 6/11/22   6.15    9.6   10.4    9.3    88    7.7   0.0   ---   0.00   0.0   ---    9.6    9.7    9.7    8.2   568.7  0.00   0.0     0     0.00      0     0.0  0.00   0.0   0.091   0.000   17.9    57    9.2   17.3    0.00   351    1    100.0   15 
 6/11/22   6.30   10.3   10.3    9.6    89    8.5   0.0   ---   0.00   0.0   ---   10.3   10.4   10.4    8.9   568.7  0.00   0.0     0     0.00      0     0.0  0.00   0.0   0.084   0.000   17.9    57    9.2   17.3    0.00   351    1    100.0   15 
 6/11/22   6.45   10.3   10.4    9.9    89    8.5   0.0     N   0.00   3.2     N   10.3   10.4   10.4    8.9   568.7  0.00   0.0     0     0.00      0     0.0  0.00   0.0   0.084   0.000   17.9    57    9.2   17.3    0.00   352    1    100.0   15 
 6/11/22   7.00   10.0   10.4   10.0    88    8.1   0.0   ---   0.00   0.0   ---   10.0   10.1   10.1    8.7   568.7  0.00   0.0     2     0.04      7     0.0  0.00   0.0   0.087   0.000   17.8    57    9.2   17.2    0.00   351    1    100.0   15 
 6/11/22   7.15   10.4   10.8   10.0    89    8.7   1.6     N   0.40   4.8     N   10.4   10.5   10.5    9.2   568.7  0.00   0.0    11     0.24     18     0.0  0.00   0.0   0.083   0.000   17.8    57    9.2   17.2    0.00   351    1    100.0   15 
 6/11/22   7.30   10.9   11.4   10.4    89    9.1   0.0     N   0.00   3.2     N   10.9   11.0   11.0   10.0   568.7  0.00   0.0    29     0.62     42     0.0  0.00   0.0   0.078   0.000   17.8    57    9.2   17.2    0.00   351    1    100.0   15 
 6/11/22   7.45   11.1   11.1   10.7    89    9.3   0.0     N   0.00   3.2     N   11.1   11.2   11.2   10.5   568.7  0.00   0.0    56     1.20     72     0.0  0.00   0.0   0.076   0.000   17.8    58    9.5   17.2    0.00   351    1    100.0   15 
 6/11/22   8.00   11.7   11.9   11.1    89   10.0   0.0     N   0.00   1.6     N   11.7   11.8   11.8   11.7   568.7  0.00   0.0    97     2.09    121     0.0  0.00   0.0   0.069   0.000   17.8    58    9.5   17.2    0.03   352    1    100.0   15 
 6/11/22   8.15   12.3   12.3   11.7    89   10.5   0.0     N   0.00   4.8     N   12.3   12.3   12.3   13.9   568.7  0.00   0.0   130     2.80    155     0.0  0.00   0.0   0.063   0.000   17.8    59    9.7   17.3    0.00   351    1    100.0   15 
 6/11/22   8.30   13.1   13.1   12.3    89   11.3   0.0   ---   0.00   0.0   ---   13.1   13.2   13.2   15.3   568.7  0.00   0.0   138     2.97    199     0.0  0.00   0.0   0.054   0.000   17.8    60   10.0   17.3    0.00   351    1    100.0   15 
 6/11/22   8.45   14.5   14.5   13.1    89   12.7   0.0     N   0.00   3.2     N   14.5   14.6   14.6   17.6   568.7  0.00   0.0   182     3.91    271     0.0  0.00   0.0   0.040   0.000   17.9    61   10.3   17.4    0.00   350    1    100.0   15 
 6/11/22   9.00   16.2   16.2   14.6    88   14.2   0.0     N   0.00   1.6     N   16.2   16.3   16.3   21.9   568.7  0.00   0.0   330     7.10    383     0.0  0.00   0.0   0.023   0.000   17.9    61   10.3   17.4    0.10   352    1    100.0   15 
 6/11/22   9.15   17.4   17.4   16.2    85   14.9   0.0   ---   0.00   0.0   ---   17.4   17.7   17.7   21.9   568.7  0.00   0.0   256     5.50    390     0.0  0.00   0.0   0.009   0.000   18.0    61   10.4   17.6    0.00   351    1    100.0   15 
 6/11/22   9.30   18.0   18.0   17.4    78   14.1   0.0   ---   0.00   0.0   ---   18.0   18.2   18.2   21.6   568.7  0.00   0.0   212     4.56    373     0.0  0.00   0.0   0.003   0.000   18.1    61   10.5   17.7    0.00   351    1    100.0   15 
 6/11/22   9.45   19.1   19.1   18.0    71   13.7   0.0   SSE   0.00   4.8   SSE   19.1   19.2   19.2   24.3   568.7  0.00   0.0   372     8.00    473     0.0  0.00   0.0   0.000   0.008   18.2    61   10.5   17.8    0.00   351    1    100.0   15 
 6/11/22  10.00   19.3   19.5   19.1    66   12.8   0.0   SSE   0.00   4.8    SE   19.3   19.3   19.3   23.7   568.7  0.00   0.0   302     6.49    475     0.0  0.00   0.0   0.000   0.010   18.2    61   10.5   17.8    0.15   352    1    100.0   15 
 6/11/22  10.15   20.1   20.1   19.3    63   12.8   0.0     S   0.00   3.2     S   20.1   20.1   20.1   25.7   568.7  0.00   0.0   457     9.83    582     0.0  0.00   0.0   0.000   0.018   18.3    61   10.6   17.9    0.00   350    1    100.0   15 
 6/11/22  10.30   20.1   20.1   19.8    63   12.8   0.0     S   0.00   3.2     S   20.1   20.1   20.1   25.0   568.7  0.00   0.0   362     7.78    550     0.0  0.00   0.0   0.000   0.018   18.3    61   10.7   17.9    0.00   351    1    100.0   15 
 6/11/22  10.45   20.5   20.6   20.0    61   12.7   0.0   ---   0.00   0.0   ---   20.5   20.2   20.2   25.8   568.7  0.00   0.0   468    10.06    526     0.0  0.00   0.0   0.000   0.023   18.4    61   10.8   18.1    0.00   351    1    100.0   15 
 6/11/22  11.00   20.2   20.5   20.2    61   12.4   0.0   ---   0.00   0.0   ---   20.2   20.0   20.0   24.7   568.7  0.00   0.0   363     7.81    538     0.0  0.00   0.0   0.000   0.019   18.6    61   10.9   18.2    0.25   351    1    100.0   15 
 6/11/22  11.15   20.3   20.3   20.1    61   12.5   1.6     S   0.40   8.0   SSE   20.3   20.1   20.1   25.6   568.7  0.00   0.0   525    11.29    570     0.0  0.00   0.0   0.000   0.020   18.6    61   10.9   18.3    0.00   351    1    100.0   15 
 6/11/22  11.30   20.7   20.7   20.3    60   12.6   0.0   SSW   0.00   9.7   SSE   20.7   20.3   20.3   27.0   568.7  0.00   0.0   624    13.42    719     0.0  0.00   0.0   0.000   0.024   18.8    61   11.1   18.5    0.00   350    1    100.0   15 
 6/11/22  11.45   20.6   20.9   20.5    60   12.6   1.6   SSW   0.40   8.0     S   20.6   20.3   20.3   26.8   568.7  0.00   0.0   630    13.55    744     0.0  0.00   0.0   0.000   0.024   18.9    61   11.2   18.6    0.00   351    1    100.0   15 
 6/11/22  12.00   20.4   20.7   20.4    62   12.9   1.6     S   0.40   9.7     S   20.4   20.3   20.3   26.1   568.7  0.00   0.0   543    11.68    715     0.0  0.00   0.0   0.000   0.022   19.1    61   11.4   18.8    0.33   350    1    100.0   15 
 6/11/22  12.15   20.3   20.4   20.3    62   12.8   1.6     S   0.40   8.0     S   20.3   20.1   20.1   24.9   568.7  0.00   0.0   398     8.56    538     0.0  0.00   0.0   0.000   0.020   19.2    61   11.5   18.9    0.00   352    1    100.0   15 
 6/11/22  12.30   20.4   20.4   20.2    63   13.1   1.6   SSW   0.40   9.7    SW   20.4   20.3   20.3   25.8   568.7  0.00   0.0   479    10.30    526     0.0  0.00   0.0   0.000   0.021   19.3    61   11.6   19.0    0.00   350    1    100.0   15 
 6/11/22  12.45   20.6   20.6   20.3    63   13.3   1.6   SSW   0.40  11.3     S   20.6   20.4   20.4   25.9   568.7  0.00   0.0   476    10.24    519     0.0  0.00   0.0   0.000   0.023   19.4    61   11.7   19.2    0.00   351    1    100.0   15 
 6/11/22  13.00   20.4   20.7   20.4    61   12.6   0.0     S   0.00   8.0     S   20.4   20.2   20.2   25.5   568.7  0.00   0.0   447     9.61    503     0.0  0.00   0.0   0.000   0.021   19.6    61   11.9   19.4    0.28   351    1    100.0   15 
 6/11/22  13.15   20.6   20.6   20.4    62   13.1   1.6     S   0.40   9.7     S   20.6   20.4   20.4   25.8   568.7  0.00   0.0   453     9.74    489     0.0  0.00   0.0   0.000   0.024   19.8    61   12.0   19.6    0.00   352    1    100.0   15 
 6/11/22  13.30   20.6   20.7   20.5    63   13.3   0.0     S   0.00   9.7     S   20.6   20.4   20.4   25.9   568.7  0.00   0.0   459     9.87    469     0.0  0.00   0.0   0.000   0.024   20.0    61   12.2   19.9    0.00   351    1    100.0   15 
 6/11/22  13.45   20.6   20.8   20.6    63   13.3   1.6   SSW   0.40  11.3   SSW   20.6   20.4   20.4   25.8   568.7  0.00   0.0   437     9.40    448     0.0  0.00   0.0   0.000   0.023   20.2    60   12.2   19.9    0.00   351    1    100.0   15 
 6/11/22  14.00   20.6   20.6   20.3    63   13.3   1.6     S   0.40  11.3     S   20.6   20.4   20.4   25.7   568.7  0.00   0.0   415     8.92    425     0.0  0.00   0.0   0.000   0.023   20.3    60   12.3   20.0    0.25   351    1    100.0   15 
 6/11/22  14.15   20.5   20.7   20.5    63   13.2   0.0     S   0.00   8.0    SW   20.5   20.3   20.3   25.4   568.7  0.00   0.0   390     8.39    403     0.0  0.00   0.0   0.000   0.023   20.3    60   12.3   20.1    0.00   351    1    100.0   15 
 6/11/22  14.30   20.4   20.5   20.3    66   13.9   1.6     S   0.40   9.7   SSW   20.4   20.5   20.5   25.4   568.7  0.00   0.0   362     7.78    374     0.0  0.00   0.0   0.000   0.022   20.3    60   12.3   20.1    0.00   347    1    100.0   15 
 6/11/22  14.45   20.4   20.6   20.4    65   13.6   0.0     S   0.00   9.7     S   20.4   20.4   20.4   25.1   568.7  0.00   0.0   333     7.16    346     0.0  0.00   0.0   0.000   0.022   20.3    60   12.3   20.0    0.00   351    1    100.0   15 
 6/11/22  15.00   20.3   20.6   20.3    68   14.2   0.0   SSW   0.00   6.4   SSW   20.3   20.4   20.4   24.9   568.7  0.00   0.0   302     6.49    316     0.0  0.00   0.0   0.000   0.020   20.1    61   12.3   19.9    0.20   351    1    100.0   15 
 6/11/22  15.15   20.1   20.3   20.1    69   14.2   0.0     S   0.00   8.0   SSW   20.1   20.3   20.3   24.4   568.7  0.00   0.0   267     5.74    281     0.0  0.00   0.0   0.000   0.018   19.9    61   12.1   19.8    0.00   349    1    100.0   15 
 6/11/22  15.30   20.2   20.2   19.9    69   14.3   0.0     S   0.00   6.4     S   20.2   20.4   20.4   24.1   568.7  0.00   0.0   229     4.92    250     0.0  0.00   0.0   0.000   0.019   19.7    61   12.0   19.6    0.00   352    1    100.0   15 
 6/11/22  15.45   19.9   20.2   19.9    69   14.0   0.0    SE   0.00   6.4    SE   19.9   20.2   20.2   23.1   568.7  0.00   0.0   180     3.87    202     0.0  0.00   0.0   0.000   0.016   19.7    62   12.2   19.6    0.00   351    1    100.0   15 
 6/11/22  16.00   19.8   19.9   19.8    69   14.0   0.0   SSW   0.00   1.6   SSW   19.8   20.1   20.1   22.2   568.7  0.00   0.0   132     2.84    155     0.0  0.00   0.0   0.000   0.016   19.6    62   12.1   19.5    0.13   350    1    100.0   15 
 6/11/22  16.15   19.7   19.8   19.7    69   13.8   0.0     S   0.00   3.2     S   19.7   19.9   19.9   21.1   568.7  0.00   0.0    88     1.89    107     0.0  0.00   0.0   0.000   0.014   19.5    62   12.0   19.3    0.00   351    1    100.0   15 
 6/11/22  16.30   19.2   19.7   19.2    70   13.6   0.0   SSW   0.00   4.8   SSW   19.2   19.4   19.4   19.6   568.7  0.00   0.0    45     0.97     67     0.0  0.00   0.0   0.000   0.009   19.4    62   12.0   19.3    0.00   352    1    100.0   15 
 6/11/22  16.45   18.8   19.2   18.8    71   13.5   0.0   ---   0.00   0.0   ---   18.8   18.9   18.9   18.4   568.7  0.00   0.0    16     0.34     19     0.0  0.00   0.0   0.000   0.005   19.3    63   12.1   19.2    0.00   350    1    100.0   15 
 6/11/22  17.00   18.3   18.8   18.3    71   13.0   0.0   ---   0.00   0.0   ---   18.3   18.4   18.4   17.3   568.7  0.00   0.0     9     0.19     12     0.0  0.00   0.0   0.000   0.000   19.3    63   12.1   19.2    0.03   349    1    100.0   15 
 6/11/22  17.15   17.6   18.3   17.6    73   12.7   0.0   ---   0.00   0.0   ---   17.6   17.5   17.5   16.2   568.7  0.00   0.0     0     0.00      5     0.0  0.00   0.0   0.008   0.000   19.3    63   12.1   19.1    0.00   351    1    100.0   15 
 6/11/22  17.30   16.2   17.6   16.2    76   12.0   0.0   ---   0.00   0.0   ---   16.2   16.1   16.1   14.8   568.7  0.00   0.0     0     0.00      0     0.0  0.00   0.0   0.022   0.000   19.2    63   12.0   19.0    0.00   352    1    100.0   15 
 6/11/22  17.45   15.5   16.2   15.5    78   11.7   0.0   ---   0.00   0.0   ---   15.5   15.4   15.4   14.1   568.7  0.00   0.0     0     0.00      0     0.0  0.00   0.0   0.030   0.000   19.2    64   12.2   19.1    0.00   349    1    100.0   15 
 6/11/22  18.00   15.3   15.5   15.3    80   11.8   0.0   ---   0.00   0.0   ---   15.3   15.2   15.2   13.9   568.7  0.00   0.0     0     0.00      0     0.0  0.00   0.0   0.032   0.000   19.2    64   12.2   19.1    0.00   351    1    100.0   15 
 6/11/22  18.15   14.9   15.3   14.9    80   11.5   0.0   ---   0.00   0.0   ---   14.9   14.8   14.8   13.5   568.7  0.00   0.0     0     0.00      0     0.0  0.00   0.0   0.035   0.000   19.1    64   12.1   18.9    0.00   351    1    100.0   15 
 6/11/22  18.30   14.4   14.9   14.4    80   11.0   0.0   ---   0.00   0.0   ---   14.4   14.3   14.3   12.9   568.7  0.00   0.0     0     0.00      0     0.0  0.00   0.0   0.041   0.000   19.0    65   12.3   18.9    0.00   351    1    100.0   15 
 6/11/22  18.45   14.2   14.4   14.2    81   11.0   0.0   ---   0.00   0.0   ---   14.2   14.1   14.1   12.7   568.7  0.00   0.0     0     0.00      0     0.0  0.00   0.0   0.043   0.000   19.0    65   12.3   18.9    0.00   351    1    100.0   15 
 6/11/22  19.00   13.9   14.2   13.9    82   10.9   0.0   ---   0.00   0.0   ---   13.9   13.8   13.8   12.5   568.7  0.00   0.0     0     0.00      0     0.0  0.00   0.0   0.046   0.000   18.9    65   12.2   18.8    0.03   351    1    100.0   15 
 6/11/22  19.15   13.8   14.0   13.8    82   10.8   0.0   ---   0.00   0.0   ---   13.8   13.7   13.7   12.3   568.7  0.00   0.0     0     0.00      0     0.0  0.00   0.0   0.047   0.000   18.9    65   12.2   18.8    0.00   351    1    100.0   15 
 6/11/22  19.30   13.4   13.8   13.4    83   10.6   0.0   ---   0.00   0.0   ---   13.4   13.3   13.3   12.0   568.7  0.00   0.0     0     0.00      0     0.0  0.00   0.0   0.051   0.000   18.8    65   12.1   18.7    0.00   350    1    100.0   15 
 6/11/22  19.45   13.3   13.4   13.2    84   10.6   0.0   ---   0.00   0.0   ---   13.3   13.2   13.2   11.9   568.7  0.00   0.0     0     0.00      0     0.0  0.00   0.0   0.053   0.000   18.8    64   11.9   18.7    0.00   352    1    100.0   15 
 6/11/22  20.00   13.3   13.5   13.3    84   10.6   0.0   ---   0.00   0.0   ---   13.3   13.2   13.2   11.9   568.7  0.00   0.0     0     0.00      0     0.0  0.00   0.0   0.053   0.000   18.8    64   11.9   18.7    0.03   351    1    100.0   15 
 6/11/22  20.15   13.2   13.3   13.1    85   10.8   0.0   ---   0.00   0.0   ---   13.2   13.2   13.2   11.8   568.7  0.00   0.0     0     0.00      0     0.0  0.00   0.0   0.053   0.000   18.7    64   11.8   18.6    0.00   351    1    100.0   15 
 6/11/22  20.30   12.9   13.2   12.9    85   10.5   0.0   ---   0.00   0.0   ---   12.9   12.9   12.9   11.6   568.7  0.00   0.0     0     0.00      0     0.0  0.00   0.0   0.056   0.000   18.6    64   11.7   18.4    0.00   349    1    100.0   15 
 6/11/22  20.45   12.8   13.0   12.8    85   10.4   0.0   ---   0.00   0.0   ---   12.8   12.8   12.8   11.4   568.7  0.00   0.0     0     0.00      0     0.0  0.00   0.0   0.057   0.000   18.6    64   11.7   18.4    0.00   352    1    100.0   15 
 6/11/22  21.00   12.8   12.8   12.7    86   10.5   0.0   ---   0.00   0.0   ---   12.8   12.7   12.7   11.4   568.7  0.00   0.0     0     0.00      0     0.0  0.00   0.0   0.058   0.000   18.6    64   11.7   18.4    0.00   350    1    100.0   15 
 6/11/22  21.15   13.2   13.2   12.7    86   10.9   0.0   ---   0.00   0.0   ---   13.2   13.2   13.2   11.8   568.7  0.00   0.0     0     0.00      0     0.0  0.00   0.0   0.053   0.000   18.6    63   11.4   18.3    0.00   351    1    100.0   15 
 6/11/22  21.30   13.3   13.4   13.2    86   11.0   0.0   ---   0.00   0.0   ---   13.3   13.3   13.3   11.9   568.7  0.00   0.0     0     0.00      0     0.0  0.00   0.0   0.052   0.000   18.6    63   11.4   18.3    0.00   350    1    100.0   15 
 6/11/22  21.45   13.1   13.4   13.1    86   10.8   0.0   ---   0.00   0.0   ---   13.1   13.0   13.0   11.7   568.7  0.00   0.0     0     0.00      0     0.0  0.00   0.0   0.055   0.000   18.4    63   11.3   18.2    0.00   351    1    100.0   15 
 6/11/22  22.00   12.7   13.1   12.7    86   10.4   0.0   ---   0.00   0.0   ---   12.7   12.6   12.6   11.3   568.7  0.00   0.0     0     0.00      0     0.0  0.00   0.0   0.059   0.000   18.4    63   11.3   18.2    0.00   352    1    100.0   15 
 6/11/22  22.15   12.5   12.7   12.4    87   10.4   0.0   ---   0.00   0.0   ---   12.5   12.5   12.5   11.2   568.7  0.00   0.0     0     0.00      0     0.0  0.00   0.0   0.061   0.000   18.4    63   11.3   18.2    0.00   350    1    100.0   15 
 6/11/22  22.30   12.8   12.8   12.5    87   10.7   0.0   ---   0.00   0.0   ---   12.8   12.8   12.8   11.5   568.7  0.00   0.0     0     0.00      0     0.0  0.00   0.0   0.057   0.000   18.3    63   11.2   18.1    0.00   351    1    100.0   15 
 6/11/22  22.45   13.1   13.1   12.5    87   11.0   0.0   ---   0.00   0.0   ---   13.1   13.1   13.1   11.8   568.7  0.00   0.0     0     0.00      0     0.0  0.00   0.0   0.054   0.000   18.3    63   11.2   18.1    0.00   350    1    100.0   15 
 6/11/22  23.00   12.8   13.2   12.8    87   10.7   0.0   ---   0.00   0.0   ---   12.8   12.8   12.8   11.4   568.7  0.00   0.0     0     0.00      0     0.0  0.00   0.0   0.058   0.000   18.3    62   10.9   18.0    0.00   352    1    100.0   15 
 6/11/22  23.15   12.8   12.8   12.7    87   10.7   0.0   ---   0.00   0.0   ---   12.8   12.8   12.8   11.4   568.7  0.00   0.0     0     0.00      0     0.0  0.00   0.0   0.058   0.000   18.3    62   10.9   17.9    0.00   351    1    100.0   15 
 6/11/22  23.30   12.7   12.8   12.7    87   10.6   0.0   ---   0.00   0.0   ---   12.7   12.7   12.7   11.3   568.7  0.00   0.0     0     0.00      0     0.0  0.00   0.0   0.059   0.000   18.3    62   10.9   17.9    0.00   351    1    100.0   15 
 7/11/22  11.42   11.9   19.3   18.1    70    6.6 102.5  Star   0.00  94.5   ENE    5.1   11.6    4.7  367.9  ------1590.041277.6   690     0.00    620     7.4  0.00   0.3   0.000   0.000   17.6    54    8.1   16.8    0.00   740    3      0.0    0 
 7/11/22 291.25   22.8   48.7    ---    54   13.0 113.9    NW 484.25  86.6     N   18.3   22.8   18.3  516.7  ------2133.601290.3   538   196.66    637     0.0  0.00   0.0   0.000   0.797  -16.1    64  -21.2  -16.2    0.00   699    1     12.0  255 
 7/11/22   0.15   12.4   12.5   12.2    88   10.5   0.0   ---   0.00   0.0   ---   12.4   12.4   12.4   11.1   568.7  0.00   0.0     0     0.00      0     0.0  0.00   0.0   0.061   0.000   18.2    62   10.8   17.8    0.00   349    1    100.0   15 
 7/11/22   0.30   12.4   12.6   12.4    88   10.5   0.0   ---   0.00   0.0   ---   12.4   12.4   12.4   11.1   568.7  0.00   0.0     0     0.00      0     0.0  0.00   0.0   0.062   0.000   18.2    62   10.8   17.8    0.00   352    1    100.0   15 
 7/11/22   0.45   12.1   12.4   11.9    88   10.2   0.0   ---   0.00   0.0   ---   12.1   12.1   12.1   10.8   568.7  0.00   0.0     0     0.00      0     0.0  0.00   0.0   0.065   0.000   18.2    62   10.8   17.8    0.00   350    1    100.0   15 
 7/11/22   1.00   12.6   12.7   12.0    89   10.8   0.0   ---   0.00   0.0   ---   12.6   12.7   12.7   11.3   568.7  0.00   0.0     0     0.00      0     0.0  0.00   0.0   0.060   0.000   18.1    62   10.7   17.7    0.00   349    1    100.0   15 
 7/11/22   1.15   12.7   12.8   12.4    89   11.0   0.0   ---   0.00   0.0   ---   12.7   12.8   12.8   11.4   568.7  0.00   0.0     0     0.00      0     0.0  0.00   0.0   0.058   0.000   18.1    62   10.7   17.7    0.00   351    1    100.0   15 
 7/11/22   1.30   13.3   13.3   12.7    89   11.5   0.0   ---   0.00   0.0   ---   13.3   13.3   13.3   12.0   568.7  0.00   0.0     0     0.00      0     0.0  0.00   0.0   0.053   0.000   18.1    62   10.7   17.7    0.00   351    1    100.0   15 
 7/11/22   1.45   13.8   13.8   13.1    89   12.1   0.0   ---   0.00   0.0   ---   13.8   13.9   13.9   12.6   568.7  0.00   0.0     0     0.00      0     0.0  0.00   0.0   0.047   0.000   18.1    63   11.0   17.8    0.00   351    1    100.0   15 
 7/11/22   2.00   14.1   14.3   13.9    89   12.3   0.0   ---   0.00   0.0   ---   14.1   14.2   14.2   12.9   568.7  0.00   0.0     0     0.00      0     0.0  0.00   0.0   0.044   0.000   18.1    63   11.0   17.8    0.00   351    1    100.0   15 
 7/11/22   2.15   15.2   15.4   14.1    89   13.4   0.0   ---   0.00   0.0   ---   15.2   15.3   15.3   14.1   568.7  0.00   0.0     0     0.00      0     0.0  0.00   0.0   0.033   0.000   18.1    63   11.0   17.8    0.00   351    1    100.0   15 
 7/11/22   2.30   14.2   15.2   14.1    89   12.4   0.0   ---   0.00   0.0   ---   14.2   14.2   14.2   12.9   568.7  0.00   0.0     0     0.00      0     0.0  0.00   0.0   0.043   0.000   18.1    64   11.2   17.8    0.00   351    1    100.0   15 
 7/11/22   2.45   14.6   14.6   14.2    89   12.8   0.0   ---   0.00   0.0   ---   14.6   14.7   14.7   13.4   568.7  0.00   0.0     0     0.00      0     0.0  0.00   0.0   0.039   0.000   18.1    65   11.4   17.9    0.00   351    1    100.0   15 
 7/11/22   3.00   15.4   15.5   14.6    89   13.6   0.0   ---   0.00   0.0   ---   15.4   15.5   15.5   14.3   568.7  0.00   0.0     0     0.00      0     0.0  0.00   0.0   0.031   0.000   18.1    65   11.4   17.9    0.00   351    1    100.0   15 
 7/11/22   3.15   15.7   15.8   15.4    89   13.9   0.0   ---   0.00   0.0   ---   15.7   15.8   15.8   14.6   568.7  0.00   0.0     0     0.00      0     0.0  0.00   0.0   0.028   0.000   18.1    66   11.7   17.9    0.00   351    1    100.0   15 
 7/11/22   3.30   16.3   16.3   15.6    89   14.5   0.0   ---   0.00   0.0   ---   16.3   16.6   16.6   15.4   568.7  0.00   0.0     0     0.00      0     0.0  0.00   0.0   0.021   0.000   18.1    66   11.7   17.9    0.00   351    1    100.0   15 
 7/11/22   3.45   16.6   16.6   16.3    89   14.7   0.0   ---   0.00   0.0   ---   16.6   16.8   16.8   15.6   568.7  0.00   0.0     0     0.00      0     0.0  0.00   0.0   0.019   0.000   18.1    66   11.7   17.9    0.00   351    1    100.0   15 
 7/11/22   4.00   16.8   16.8   16.6    89   15.0   0.0   ---   0.00   0.0   ---   16.8   17.1   17.1   15.9   568.7  0.00   0.0     0     0.00      0     0.0  0.00   0.0   0.016   0.000   18.2    67   11.9   18.1    0.00   351    1    100.0   15 
 7/11/22   4.15   16.9   16.9   16.8    89   15.1   0.0   ---   0.00   0.0   ---   16.9   17.3   17.3   16.1   568.7  0.00   0.0     0     0.00      0     0.0  0.00   0.0   0.014   0.000   18.2    67   11.9   18.1    0.00   350    1    100.0   15 
 7/11/22   4.30   17.3   17.3   16.9    89   15.4   0.0    SE   0.00   8.0   ESE   17.3   17.7   17.7   16.5   568.7  0.00   0.0     0     0.00      0     0.0  0.00   0.0   0.011   0.000   18.2    67   11.9   18.1    0.00   350    1    100.0   15 
 7/11/22   4.45   17.3   17.3   17.3    88   15.3   0.0   ESE   0.00   6.4     E   17.3   17.7   17.7   16.5   568.7  0.00   0.0     0     0.00      0     0.0  0.00   0.0   0.010   0.000   18.2    67   11.9   18.1    0.00   352    1    100.0   15 
 7/11/22   5.00   17.5   17.5   17.3    87   15.3   1.6    SE   0.40   9.7    SE   17.5   17.8   17.8   16.7   568.7  0.00   0.0     0     0.00      0     0.0  0.00   0.0   0.009   0.000   18.3    67   12.0   18.2    0.00   351    1    100.0   15 
 7/11/22   5.15   17.6   17.7   17.5    87   15.4   1.6    SE   0.40  17.7    SE   17.6   18.0   18.0   16.8   568.7  0.00   0.0     0     0.00      0     0.0  0.00   0.0   0.008   0.000   18.3    67   12.0   18.2    0.00   351    1    100.0   15 
 7/11/22   5.30   17.7   17.7   17.6    86   15.3   1.6    SE   0.40  20.9   ESE   17.7   18.0   18.0   16.8   568.7  0.00   0.0     0     0.00      0     0.0  0.00   0.0   0.007   0.000   18.3    68   12.3   18.2    0.00   351    1    100.0   15 
 7/11/22   5.45   17.7   17.7   17.7    86   15.3   1.6   ESE   0.40   9.7     E   17.7   18.1   18.1   16.9   568.7  0.00   0.0     0     0.00      0     0.0  0.00   0.0   0.006   0.000   18.3    68   12.3   18.2    0.00   352    1    100.0   15 
 7/11/22   6.00   17.8   17.9   17.7    86   15.5   1.6    SE   0.40  14.5    SE   17.8   18.2   18.2   17.1   568.7  0.00   0.0     0     0.00      0     0.0  0.00   0.0   0.005   0.000   18.3    68   12.3   18.2    0.03   351    1    100.0   15 
 7/11/22   6.15   17.8   17.9   17.8    85   15.3   3.2   ESE   0.80  16.1   ESE   17.8   18.2   18.2   17.0   568.7  0.00   0.0     0     0.00      0     0.0  0.00   0.0   0.005   0.000   18.3    68   12.3   18.3    0.00   350    1    100.0   15 
 7/11/22   6.30   17.9   17.9   17.8    85   15.3   1.6    SE   0.40  11.3    SE   17.9   18.2   18.2   17.1   568.7  0.00   0.0     0     0.00      0     0.0  0.00   0.0   0.005   0.000   18.3    68   12.3   18.3    0.00   351    1    100.0   15 
 7/11/22   6.45   18.1   18.1   17.9    85   15.5   1.6    SE   0.40  11.3    SE   18.1   18.4   18.4   17.3   568.7  0.00   0.0     0     0.00      0     0.0  0.00   0.0   0.003   0.000   18.3    68   12.3   18.3    0.00   351    1    100.0   15 
 7/11/22   7.00   18.2   18.2   18.1    85   15.6   1.6   ESE   0.40  11.3   ESE   18.2   18.6   18.6   17.4   568.7  0.00   0.0     0     0.00      0     0.0  0.00   0.0   0.002   0.000   18.3    68   12.3   18.3    0.00   352    1    100.0   15 
 7/11/22   7.15   17.9   18.2   17.9    85   15.4   0.0   SSE   0.00   3.2   ESE   17.9   18.3   18.3   17.3   568.7  0.00   0.0     6     0.13      9     0.0  0.00   0.0   0.004   0.000   18.3    68   12.3   18.3    0.00   351    1    100.0   15 
 7/11/22   7.30   18.2   18.2   17.9    85   15.6   1.6    SE   0.40  17.7    SE   18.2   18.6   18.6   17.6   568.7  0.00   0.0    15     0.32     28     0.0  0.00   0.0   0.002   0.000   18.3    68   12.3   18.3    0.00   351    1    100.0   15 
 7/11/22   7.45   18.6   18.6   18.2    85   16.0   3.2   ESE   0.80  16.1   ESE   18.6   19.1   19.1   18.3   568.7  0.00   0.0    31     0.67     40     0.0  0.00   0.0   0.000   0.002   18.4    68   12.4   18.4    0.00   351    1    100.0   15 
 7/11/22   8.00   18.7   18.7   18.6    84   16.0   1.6   ESE   0.40  14.5   ESE   18.7   19.2   19.2   18.6   568.7  0.00   0.0    37     0.80     60     0.0  0.00   0.0   0.000   0.004   18.4    68   12.4   18.4    0.03   352    1    100.0   15 
 7/11/22   8.15   18.9   19.0   18.7    84   16.2   0.0   SSW   0.00  16.1     S   18.9   19.5   19.5   19.5   568.7  0.00   0.0    32     0.69     44     0.0  0.00   0.0   0.000   0.006   18.4    68   12.4   18.4    0.00   351    1    100.0   15 
 7/11/22   8.30   18.9   19.0   18.9    84   16.2   0.0   SSE   0.00   3.2   SSE   18.9   19.5   19.5   19.9   568.7  0.00   0.0    47     1.01     77     0.0  0.00   0.0   0.000   0.006   18.4    68   12.4   18.4    0.00   351    1    100.0   15 
 7/11/22   8.45   19.3   19.3   18.9    84   16.5   0.0   SSE   0.00   6.4   SSE   19.3   19.9   19.9   22.1   568.7  0.00   0.0   126     2.71    179     0.0  0.00   0.0   0.000   0.010   18.4    68   12.4   18.4    0.00   350    1    100.0   15 
 7/11/22   9.00   19.7   19.7   19.3    83   16.8   0.0     S   0.00   8.0   SSE   19.7   20.4   20.4   24.1   568.7  0.00   0.0   208     4.47    425     0.0  0.00   0.0   0.000   0.014   18.6    68   12.5   18.5    0.08   352    1    100.0   15 
 7/11/22   9.15   20.0   20.0   19.7    81   16.6   0.0     S   0.00   8.0   SSW   20.0   20.7   20.7   24.5   568.7  0.00   0.0   222     4.77    512     0.0  0.00   0.0   0.000   0.017   18.6    68   12.5   18.5    0.00   349    1    100.0   15 
 7/11/22   9.30   20.1   20.3   20.0    80   16.5   1.6     S   0.40  14.5     S   20.1   20.8   20.8   24.8   568.7  0.00   0.0   245     5.27    522     0.0  0.00   0.0   0.000   0.018   18.6    68   12.5   18.5    0.00   351    1    100.0   15 
 7/11/22   9.45   20.3   20.4   20.0    80   16.8   1.6     S   0.40  11.3   SSE   20.3   21.1   21.1   26.3   568.7  0.00   0.0   368     7.91    499     0.0  0.00   0.0   0.000   0.021   18.6    69   12.8   18.6    0.00   351    1    100.0   15 
 7/11/22  10.00   21.0   21.0   20.3    78   17.0   1.6     S   0.40   9.7     S   21.0   21.6   21.6   28.9   568.7  0.00   0.0   515    11.07    566     0.0  0.00   0.0   0.000   0.028   18.7    69   12.9   18.8    0.20   351    1    100.0   15 
 7/11/22  10.15   20.9   21.1   20.8    76   16.5   3.2     S   0.80  16.1   SSW   20.9   21.4   21.4   28.0   568.7  0.00   0.0   498    10.71    557     0.0  0.00   0.0   0.000   0.027   18.8    69   13.0   18.9    0.00   350    1    100.0   15 
 7/11/22  10.30   20.8   21.1   20.8    76   16.4   1.6     S   0.40  14.5   SSE   20.8   21.3   21.3   27.4   568.7  0.00   0.0   488    10.49    533     0.0  0.00   0.0   0.000   0.026   18.8    69   13.0   18.9    0.00   351    1    100.0   15 
 7/11/22  10.45   20.9   20.9   20.8    76   16.5   0.0   SSW   0.00   8.0   SSW   20.9   21.4   21.4   26.2   568.7  0.00   0.0   350     7.53    610     0.0  0.00   0.0   0.000   0.027   18.8    69   13.0   18.9    0.00   349    1    100.0   15 
 7/11/22  11.00   21.0   21.2   20.9    74   16.2   1.6   SSW   0.40   9.7   SSW   21.0   21.3   21.3   27.2   568.7  0.00   0.0   464     9.98    624     0.0  0.00   0.0   0.000   0.028   19.0    69   13.2   19.1    0.25   351    1    100.0   15 
 7/11/22  11.15   20.7   21.0   20.6    75   16.1   3.2   SSW   0.80  17.7   SSW   20.7   21.2   21.2   26.1   568.7  0.00   0.0   365     7.85    645     0.0  0.00   0.0   0.000   0.025   19.0    69   13.2   19.1    0.00   352    1    100.0   15 
 7/11/22  11.30   20.7   20.8   20.7    76   16.3   1.6     S   0.40  11.3     S   20.7   21.2   21.2   24.1   568.7  0.00   0.0   224     4.82    642     0.0  0.00   0.0   0.000   0.024   19.1    69   13.2   19.2    0.00   351    1    100.0   15 
 7/11/22  11.45   20.8   20.8   20.6    77   16.6   1.6   SSW   0.40  14.5     S   20.8   21.3   21.3   25.3   568.7  0.00   0.0   300     6.45    687     0.0  0.00   0.0   0.000   0.025   19.1    69   13.2   19.2    0.00   351    1    100.0   15 
 7/11/22-546.-8    ---    ---    ---   ---    ---   ---     N    ---   ---          ---    ---    ---    ---  ------    ---8322.8   ---      ---    ---     0.0  0.00  12.8   0.000   0.000    ---  3277    ---    ---    3.25 32767    1      0.0    0 
 7/11/22-546.-8    ---    ---    ---  3277    ---   ---     N    ---5273.3          ---    ---    ---    ---  ------    ---8322.8   ---      ---    ---     0.0  0.00   0.0     ---     ---    ---   ---    ---    ---    0.00   ---    1      ---  255 
 7/11/22   0.15   11.6   11.8   11.6    83    8.8   0.0   ---   0.00   0.0   ---   11.6   11.5   11.5   10.1   568.7  0.00   0.0     0     0.00      0     0.0  0.00   0.0   0.070   0.000   19.7    60   11.7   19.5    0.00   350    1    100.0   15 
 7/11/22   0.30   11.1   11.7   11.1    84    8.5   0.0   ---   0.00   0.0   ---   11.1   11.1   11.1    9.7   568.7  0.00   0.0     0     0.00      0     0.0  0.00   0.0   0.075   0.000   19.6    60   11.6   19.4    0.00   349    1    100.0   15 
 7/11/22   0.45   11.3   11.3   10.9    84    8.7   0.0   ---   0.00   0.0   ---   11.3   11.2   11.2    9.8   568.7  0.00   0.0     0     0.00      0     0.0  0.00   0.0   0.073   0.000   19.6    59   11.4   19.3    0.00   351    1    100.0   15 
 7/11/22   1.00   11.2   11.3   11.1    85    8.8   0.0   ---   0.00   0.0   ---   11.2   11.2   11.2    9.8   568.7  0.00   0.0     0     0.00      0     0.0  0.00   0.0   0.074   0.000   19.6    59   11.4   19.3    0.00   351    1    100.0   15 
 7/11/22   1.15   11.4   11.6   11.2    84    8.8   0.0   ---   0.00   0.0   ---   11.4   11.4   11.4    9.9   568.7  0.00   0.0     0     0.00      0     0.0  0.00   0.0   0.072   0.000   19.5    59   11.3   19.2    0.00   351    1    100.0   15 
 7/11/22   1.30   11.1   11.5   11.1    84    8.5   0.0   ---   0.00   0.0   ---   11.1   11.1   11.1    9.7   568.7  0.00   0.0     0     0.00      0     0.0  0.00   0.0   0.075   0.000   19.5    59   11.3   19.2    0.00   351    1    100.0   15 
 7/11/22   1.45   11.1   11.2   11.0    85    8.7   0.0   ---   0.00   0.0   ---   11.1   11.1   11.1    9.7   568.7  0.00   0.0     0     0.00      0     0.0  0.00   0.0   0.075   0.000   19.5    59   11.3   19.2    0.00   351    1    100.0   15 
 7/11/22   2.00   10.8   11.2   10.8    85    8.4   0.0   ---   0.00   0.0   ---   10.8   10.8   10.8    9.4   568.7  0.00   0.0     0     0.00      0     0.0  0.00   0.0   0.078   0.000   19.4    59   11.2   19.1    0.00   352    1    100.0   15 
 7/11/22   2.15   11.1   11.2   10.8    85    8.6   0.0   ---   0.00   0.0   ---   11.1   11.1   11.1    9.6   568.7  0.00   0.0     0     0.00      0     0.0  0.00   0.0   0.076   0.000   19.4    59   11.2   19.1    0.00   351    1    100.0   15 
 7/11/22   2.30   11.9   12.3   10.9    86    9.6   0.0   ---   0.00   0.0   ---   11.9   11.8   11.8   10.4   568.7  0.00   0.0     0     0.00      0     0.0  0.00   0.0   0.067   0.000   19.4    59   11.2   19.1    0.00   351    1    100.0   15 
 7/11/22   2.45   11.3   11.9   11.2    86    9.0   0.0   ---   0.00   0.0   ---   11.3   11.3   11.3    9.9   568.7  0.00   0.0     0     0.00      0     0.0  0.00   0.0   0.073   0.000   19.3    59   11.1   19.0    0.00   351    1    100.0   15 
 7/11/22   3.00   11.1   11.2   10.8    86    8.8   0.0   ---   0.00   0.0   ---   11.1   11.1   11.1    9.6   568.7  0.00   0.0     0     0.00      0     0.0  0.00   0.0   0.076   0.000   19.3    58   10.9   18.9    0.00   352    1    100.0   15 
 7/11/22   3.15   11.9   11.9   11.1    86    9.6   0.0   ---   0.00   0.0   ---   11.9   11.8   11.8   10.4   568.7  0.00   0.0     0     0.00      0     0.0  0.00   0.0   0.067   0.000   19.3    58   10.9   18.9    0.00   351    1    100.0   15 
 7/11/22   3.30   12.3   12.4   11.9    85    9.8   0.0   ---   0.00   0.0   ---   12.3   12.2   12.2   10.8   568.7  0.00   0.0     0     0.00      0     0.0  0.00   0.0   0.063   0.000   19.3    59   11.1   19.0    0.00   351    1    100.0   15 
 7/11/22   3.45   11.8   12.2   11.8    85    9.4   0.0   ---   0.00   0.0   ---   11.8   11.8   11.8   10.4   568.7  0.00   0.0     0     0.00      0     0.0  0.00   0.0   0.068   0.000   19.3    59   11.1   18.9    0.00   350    1    100.0   15 
 7/11/22   4.00   11.9   12.2   11.7    85    9.5   0.0   ---   0.00   0.0   ---   11.9   11.9   11.9   10.5   568.7  0.00   0.0     0     0.00      0     0.0  0.00   0.0   0.067   0.000   19.3    59   11.1   18.9    0.00   351    1    100.0   15 
 7/11/22   4.15   11.3   12.1   11.3    85    8.9   0.0   ---   0.00   0.0   ---   11.3   11.3   11.3    9.9   568.7  0.00   0.0     0     0.00      0     0.0  0.00   0.0   0.073   0.000   19.3    59   11.1   18.9    0.00   350    1    100.0   15 
 7/11/22   4.30   12.1   12.1   11.1    87   10.0   0.0   ---   0.00   0.0   ---   12.1   12.1   12.1   10.7   568.7  0.00   0.0     0     0.00      0     0.0  0.00   0.0   0.065   0.000   19.2    59   11.0   18.8    0.00   351    1    100.0   15 
 7/11/22   4.45   12.1   12.3   11.8    86    9.8   0.0   ---   0.00   0.0   ---   12.1   12.1   12.1   10.7   568.7  0.00   0.0     0     0.00      0     0.0  0.00   0.0   0.065   0.000   19.2    59   11.0   18.8    0.00   351    1    100.0   15 
 7/11/22   5.00   11.8   12.1   11.8    87    9.7   0.0   ---   0.00   0.0   ---   11.8   11.8   11.8   10.4   568.7  0.00   0.0     0     0.00      0     0.0  0.00   0.0   0.068   0.000   19.2    59   11.0   18.8    0.00   351    1    100.0   15 
 7/11/22   5.15   12.4   12.7   11.7    87   10.3   0.0   ---   0.00   0.0   ---   12.4   12.4   12.4   11.0   568.7  0.00   0.0     0     0.00      0     0.0  0.00   0.0   0.062   0.000   19.2    59   11.0   18.8    0.00   351    1    100.0   15 
 7/11/22   5.30   12.6   12.6   12.2    88   10.6   0.0   ---   0.00   0.0   ---   12.6   12.6   12.6   11.2   568.7  0.00   0.0     0     0.00      0     0.0  0.00   0.0   0.060   0.000   19.2    59   11.0   18.8    0.00   351    1    100.0   15 
 7/11/22   5.45   12.3   12.6   12.2    88   10.4   0.0   ---   0.00   0.0   ---   12.3   12.3   12.3   10.9   568.7  0.00   0.0     0     0.00      0     0.0  0.00   0.0   0.062   0.000   19.1    59   10.9   18.7    0.00   351    1    100.0   15 
 7/11/22   6.00   12.2   12.4   12.2    88   10.3   0.0   ---   0.00   0.0   ---   12.2   12.2   12.2   10.8   568.7  0.00   0.0     0     0.00      0     0.0  0.00   0.0   0.064   0.000   19.1    59   10.9   18.7    0.00   351    1    100.0   15 
 7/11/22   6.15   11.7   12.2   11.7    88    9.7   0.0   ---   0.00   0.0   ---   11.7   11.7   11.7   10.3   568.7  0.00   0.0     0     0.00      0     0.0  0.00   0.0   0.069   0.000   19.1    59   10.9   18.7    0.00   352    1    100.0   15 
 7/11/22   6.30   12.1   12.1   11.7    89   10.4   0.0   ---   0.00   0.0   ---   12.1   12.2   12.2   10.8   568.7  0.00   0.0     0     0.00      0     0.0  0.00   0.0   0.065   0.000   19.0    59   10.8   18.6    0.00   351    1    100.0   15 
 7/11/22   6.45   11.7   12.1   11.4    88    9.7   0.0   ---   0.00   0.0   ---   11.7   11.7   11.7   10.3   568.7  0.00   0.0     0     0.00      0     0.0  0.00   0.0   0.069   0.000   19.0    59   10.8   18.6    0.00   351    1    100.0   15 
 7/11/22   7.00   12.4   12.4   11.7    89   10.7   0.0   ---   0.00   0.0   ---   12.4   12.5   12.5   11.3   568.7  0.00   0.0     9     0.19     14     0.0  0.00   0.0   0.061   0.000   19.0    59   10.8   18.6    0.00   351    1    100.0   15 
 7/11/22   7.15   12.2   12.6   12.1    89   10.5   0.0   ---   0.00   0.0   ---   12.2   12.3   12.3   11.2   568.7  0.00   0.0    20     0.43     28     0.0  0.00   0.0   0.064   0.000   19.0    60   11.1   18.6    0.00   349    1    100.0   15 
 7/11/22   7.30   12.6   12.7   12.2    89   10.8   0.0   ---   0.00   0.0   ---   12.6   12.7   12.7   11.8   568.7  0.00   0.0    37     0.80     44     0.0  0.00   0.0   0.060   0.000   19.0    60   11.1   18.6    0.00   352    1    100.0   15 
 7/11/22   7.45   12.9   12.9   12.6    89   11.1   0.0     N   0.00   1.6     N   12.9   12.9   12.9   12.3   568.7  0.00   0.0    49     1.05     58     0.0  0.00   0.0   0.057   0.000   19.0    60   11.1   18.6    0.00   351    1    100.0   15 
 7/11/22   8.00   13.2   13.2   12.9    89   11.4   0.0   ---   0.00   0.0   ---   13.2   13.2   13.2   13.8   568.7  0.00   0.0    65     1.40    127     0.0  0.00   0.0   0.054   0.000   19.0    61   11.3   18.7    0.03   351    1    100.0   15 
 7/11/22   8.15   13.6   13.6   13.0    90   11.9   0.0    NE   0.00   1.6    NE   13.6   13.6   13.6   14.5   568.7  0.00   0.0    76     1.63    118     0.0  0.00   0.0   0.050   0.000   19.0    61   11.3   18.7    0.00   350    1    100.0   15 
 7/11/22   8.30   14.2   14.2   13.5    90   12.6   0.0   ---   0.00   0.0   ---   14.2   14.3   14.3   15.8   568.7  0.00   0.0   107     2.30    186     0.0  0.00   0.0   0.043   0.000   19.0    62   11.6   18.7    0.00   351    1    100.0   15 
 7/11/22   8.45   15.2   15.2   14.2    90   13.6   0.0   ---   0.00   0.0   ---   15.2   15.3   15.3   16.9   568.7  0.00   0.0   109     2.34    167     0.0  0.00   0.0   0.032   0.000   19.0    62   11.6   18.7    0.00   350    1    100.0   15 
 7/11/22   9.00   16.2   16.2   15.2    90   14.5   0.0   ---   0.00   0.0   ---   16.2   16.4   16.4   18.6   568.7  0.00   0.0   140     3.01    190     0.0  0.00   0.0   0.023   0.000   19.1    63   11.8   18.9    0.05   351    1    100.0   15 
 7/11/22   9.15   17.9   17.9   16.2    90   16.3   0.0   ---   0.00   0.0   ---   17.9   18.4   18.4   21.9   568.7  0.00   0.0   212     4.56    406     0.0  0.00   0.0   0.004   0.000   19.1    64   12.1   18.9    0.00   351    1    100.0   15 
 7/11/22   9.30   19.2   19.2   17.9    90   17.5   0.0   ---   0.00   0.0   ---   19.2   20.0   20.0   24.3   568.7  0.00   0.0   270     5.81    446     0.0  0.00   0.0   0.000   0.009   19.2    64   12.2   19.1    0.00   351    1    100.0   15 
 7/11/22   9.45   20.0   20.0   19.2    88   18.0   1.6    SE   0.40   9.7    SE   20.0   20.9   20.9   24.9   568.7  0.00   0.0   261     5.61    378     0.0  0.00   0.0   0.000   0.017   19.3    64   12.3   19.2    0.00   350    1    100.0   15 
 7/11/22  10.00   20.5   20.6   20.0    84   17.7   3.2    SE   0.80   8.0    SE   20.5   21.4   21.4   26.2   568.7  0.00   0.0   323     6.95    496     0.0  0.00   0.0   0.000   0.023   19.3    64   12.3   19.3    0.15   351    1    100.0   15 
 7/11/22  10.15   20.9   21.0   20.4    82   17.7   1.6    SE   0.40   9.7   ESE   20.9   21.7   21.7   27.3   568.7  0.00   0.0   413     8.88    529     0.0  0.00   0.0   0.000   0.027   19.4    64   12.5   19.4    0.00   351    1    100.0   15 
 7/11/22  10.30   20.6   20.9   20.6    83   17.6   4.8    SE   1.21  14.5   ESE   20.6   21.5   21.5   25.6   568.7  0.00   0.0   290     6.24    383     0.0  0.00   0.0   0.000   0.024   19.5    64   12.5   19.4    0.00   350    1    100.0   15 
 7/11/22  10.45   20.8   20.8   20.6    82   17.6   6.4    SE   1.61  14.5   SSE   20.8   21.6   21.6   27.1   568.7  0.00   0.0   414     8.90    483     0.0  0.00   0.0   0.000   0.026   19.6    65   12.8   19.7    0.00   352    1    100.0   15 
 7/11/22  11.00   20.8   20.9   20.8    82   17.6   3.2   SSE   0.80  11.3    SE   20.8   21.6   21.6   25.7   568.7  0.00   0.0   302     6.49    396     0.0  0.00   0.0   0.000   0.026   19.7    65   13.0   19.8    0.20   351    1    100.0   15 
 7/11/22  11.15   20.6   20.8   20.5    83   17.6   3.2    SE   0.80  14.5    SE   20.6   21.5   21.5   25.1   568.7  0.00   0.0   275     5.91    330     0.0  0.00   0.0   0.000   0.024   19.8    65   13.0   19.8    0.00   350    1    100.0   15 
 7/11/22  11.30   20.7   20.7   20.5    83   17.7   4.8    SE   1.21   9.7    SE   20.7   21.6   21.6   24.9   568.7  0.00   0.0   262     5.63    339     0.0  0.00   0.0   0.000   0.024   19.8    65   13.0   19.8    0.00   351    1    100.0   15 
 7/11/22  11.45   20.6   20.7   20.6    83   17.6   4.8   SSE   1.21  11.3   SSE   20.6   21.5   21.5   23.5   568.7  0.00   0.0   173     3.72    218     0.0  0.00   0.0   0.000   0.023   19.9    66   13.3   20.0    0.00   352    1    100.0   15 
 7/11/22  12.00   20.7   20.7   20.6    82   17.5   3.2     S   0.80  11.3   SSE   20.7   21.6   21.6   24.1   568.7  0.00   0.0   214     4.60    232     0.0  0.00   0.0   0.000   0.025   19.8    66   13.2   19.9    0.15   350    1    100.0   15 
 7/11/22  12.15   20.8   20.8   20.7    82   17.6   3.2   SSE   0.80   9.7   SSE   20.8   21.6   21.6   24.6   568.7  0.00   0.0   238     5.12    258     0.0  0.00   0.0   0.000   0.026   19.9    66   13.3   20.0    0.00   351    1    100.0   15 
 7/11/22  12.30   20.9   20.9   20.8    81   17.6   3.2   SSE   0.80   9.7    SE   20.9   21.7   21.7   24.5   568.7  0.00   0.0   232     4.99    257     0.0  0.00   0.0   0.000   0.027   19.9    67   13.6   20.1    0.00   351    1    100.0   15 
 7/11/22  12.45   20.8   20.9   20.8    81   17.5   3.2    SE   0.80   9.7     S   20.8   21.6   21.6   24.0   568.7  0.00   0.0   204     4.39    281     0.0  0.00   0.0   0.000   0.026   19.9    67   13.6   20.1    0.00   352    1    100.0   15 
 7/11/22  13.00   20.8   20.9   20.8    81   17.5   4.8   SSE   1.21   9.7   SSE   20.8   21.6   21.6   24.2   568.7  0.00   0.0   214     4.60    302     0.0  0.00   0.0   0.000   0.026   20.0    67   13.7   20.2    0.15   351    1    100.0   15 
 7/11/22  13.15   21.3   21.3   20.8    80   17.7   3.2   SSE   0.80   9.7     S   21.3   21.9   21.9   25.9   568.7  0.00   0.0   310     6.67    390     0.0  0.00   0.0   0.000   0.031   20.1    68   14.0   20.3    0.00   350    1    100.0   15 
 7/11/22  13.30   21.5   21.5   21.3    78   17.5   4.8   SSE   1.21  14.5   ESE   21.5   22.1   22.1   26.8   568.7  0.00   0.0   371     7.98    432     0.0  0.00   0.0   0.000   0.033   20.2    68   14.1   20.4    0.00   350    1    100.0   15 
 7/11/22  13.45   21.6   21.7   21.5    76   17.2   0.0     S   0.00   8.0     S   21.6   22.1   22.1   26.7   568.7  0.00   0.0   356     7.65    387     0.0  0.00   0.0   0.000   0.034   20.3    68   14.2   20.5    0.00   351    1    100.0   15 
 7/11/22  14.00   21.8   21.9   21.6    75   17.2   0.0   ---   0.00   0.0   ---   21.8   22.3   22.3   26.6   568.7  0.00   0.0   325     6.99    475     0.0  0.00   0.0   0.000   0.036   20.4    68   14.3   20.6    0.20   351    1    100.0   15 
 7/11/22  14.15   21.7   21.8   21.6    75   17.0   0.0   ---   0.00   0.0   ---   21.7   22.1   22.1   25.9   568.7  0.00   0.0   281     6.04    415     0.0  0.00   0.0   0.000   0.035   20.4    68   14.3   20.6    0.00   351    1    100.0   15 
 7/11/22  14.30   21.7   21.7   21.5    75   17.0   0.0    SE   0.00   6.4    SE   21.7   22.1   22.1   25.6   568.7  0.00   0.0   253     5.44    294     0.0  0.00   0.0   0.000   0.035   20.4    68   14.3   20.6    0.00   350    1    100.0   15 
 7/11/22  14.45   21.6   21.8   21.6    75   17.0   0.0   ---   0.00   0.0   ---   21.6   22.1   22.1   25.1   568.7  0.00   0.0   214     4.60    315     0.0  0.00   0.0   0.000   0.034   20.4    69   14.6   20.6    0.00   351    1    100.0   15 
 7/11/22  15.00   21.4   21.7   21.4    74   16.6   0.0   ---   0.00   0.0   ---   21.4   21.8   21.8   25.1   568.7  0.00   0.0   229     4.92    260     0.0  0.00   0.0   0.000   0.032   20.4    69   14.6   20.6    0.15   350    1    100.0   15 
 7/11/22  15.15   21.2   21.4   21.2    76   16.8   0.0   ---   0.00   0.0   ---   21.2   21.6   21.6   23.4   568.7  0.00   0.0   136     2.92    192     0.0  0.00   0.0   0.000   0.030   20.3    69   14.5   20.6    0.00   350    1    100.0   15 
 7/11/22  15.30   21.1   21.2   21.1    77   16.9   0.0   ---   0.00   0.0   ---   21.1   21.5   21.5   22.7   568.7  0.00   0.0    99     2.13    118     0.0  0.00   0.0   0.000   0.028   20.3    69   14.5   20.6    0.00   351    1    100.0   15 
 7/11/22  15.45   20.9   21.1   20.8    78   16.9   0.0     S   0.00   3.2     S   20.9   21.5   21.5   22.2   568.7  0.00   0.0    70     1.51     83     0.0  0.00   0.0   0.000   0.027   20.3    69   14.4   20.5    0.00   351    1    100.0   15 
 7/11/22  16.00   20.7   20.9   20.7    78   16.7   0.0   ---   0.00   0.0   ---   20.7   21.4   21.4   21.8   568.7  0.00   0.0    58     1.25     62     0.0  0.00   0.0   0.000   0.025   20.3    69   14.4   20.5    0.05   351    1    100.0   15 
 7/11/22  16.15   20.7   20.8   20.7    78   16.7   0.0   ---   0.00   0.0   ---   20.7   21.3   21.3   21.6   568.7  0.00   0.0    48     1.03     53     0.0  0.00   0.0   0.000   0.024   20.3    69   14.4   20.5    0.00   351    1    100.0   15 
 7/11/22  16.30   20.6   20.7   20.6    78   16.6   0.0   ---   0.00   0.0   ---   20.6   21.3   21.3   21.1   568.7  0.00   0.0    26     0.56     37     0.0  0.00   0.0   0.000   0.023   20.3    69   14.4   20.5    0.00   351    1    100.0   15 
 7/11/22  16.45   20.3   20.6   20.3    79   16.6   0.0   ---   0.00   0.0   ---   20.3   21.1   21.1   20.5   568.7  0.00   0.0    14     0.30     18     0.0  0.00   0.0   0.000   0.021   20.2    69   14.3   20.4    0.00   351    1    100.0   15 
 7/11/22  17.00   20.2   20.4   20.2    80   16.6   0.0   ---   0.00   0.0   ---   20.2   20.9   20.9   20.2   568.7  0.00   0.0     8     0.17     12     0.0  0.00   0.0   0.000   0.019   20.2    70   14.5   20.4    0.03   351    1    100.0   15 
 7/11/22  17.15   19.8   20.2   19.8    81   16.5   0.0   ---   0.00   0.0   ---   19.8   20.6   20.6   19.5   568.7  0.00   0.0     0     0.00      0     0.0  0.00   0.0   0.000   0.016   20.2    70   14.5   20.4    0.00   351    1    100.0   15 
 7/11/22  17.30   19.6   19.9   19.6    82   16.4   0.0   ---   0.00   0.0   ---   19.6   20.2   20.2   19.2   568.7  0.00   0.0     0     0.00      0     0.0  0.00   0.0   0.000   0.013   20.1    69   14.2   20.3    0.00   351    1    100.0   15 
 7/11/22  17.45   19.1   19.6   19.1    83   16.2   0.0   ---   0.00   0.0   ---   19.1   19.7   19.7   18.7   568.7  0.00   0.0     0     0.00      0     0.0  0.00   0.0   0.000   0.008   20.1    70   14.4   20.4    0.00   351    1    100.0   15 
 7/11/22  18.00   18.6   19.1   18.6    83   15.7   0.0   ---   0.00   0.0   ---   18.6   19.1   19.1   18.0   568.7  0.00   0.0     0     0.00      0     0.0  0.00   0.0   0.000   0.003   20.1    70   14.4   20.4    0.00   349    1    100.0   15 
 7/11/22  18.15   18.4   18.6   18.4    84   15.6   0.0   ---   0.00   0.0   ---   18.4   18.8   18.8   17.7   568.7  0.00   0.0     0     0.00      0     0.0  0.00   0.0   0.000   0.001   20.1    70   14.4   20.4    0.00   351    1    100.0   15 
 7/11/22  18.30   18.3   18.4   18.3    84   15.6   0.0   ---   0.00   0.0   ---   18.3   18.8   18.8   17.7   568.7  0.00   0.0     0     0.00      0     0.0  0.00   0.0   0.000   0.000   20.1    70   14.4   20.4    0.00   351    1    100.0   15 
 7/11/22  18.45   18.4   18.5   18.3    84   15.7   0.0   ---   0.00   0.0   ---   18.4   18.9   18.9   17.8   568.7  0.00   0.0     0     0.00      0     0.0  0.00   0.0   0.000   0.001   20.0    71   14.6   20.4    0.00   351    1    100.0   15 
 7/11/22  19.00   18.3   18.5   18.3    84   15.6   0.0   ---   0.00   0.0   ---   18.3   18.8   18.8   17.7   568.7  0.00   0.0     0     0.00      0     0.0  0.00   0.0   0.000   0.000   20.0    70   14.4   20.3    0.03   351    1    100.0   15 
 7/11/22  19.15   18.2   18.4   18.2    84   15.5   0.0   ---   0.00   0.0   ---   18.2   18.6   18.6   17.5   568.7  0.00   0.0     0     0.00      0     0.0  0.00   0.0   0.001   0.000   20.0    71   14.6   20.4    0.00   352    1    100.0   15 
 7/11/22  19.30   18.2   18.3   18.2    85   15.6   0.0   ---   0.00   0.0   ---   18.2   18.6   18.6   17.4   568.7  0.00   0.0     0     0.00      0     0.0  0.00   0.0   0.002   0.000   20.0    71   14.6   20.4    0.00   351    1    100.0   15 
 7/11/22  19.45   18.3   18.3   17.9    85   15.7   0.0   ---   0.00   0.0   ---   18.3   18.7   18.7   17.6   568.7  0.00   0.0     0     0.00      0     0.0  0.00   0.0   0.001   0.000   20.0    71   14.6   20.4    0.00   351    1    100.0   15 
 7/11/22  20.00   18.2   18.3   18.1    85   15.6   0.0   ---   0.00   0.0   ---   18.2   18.6   18.6   17.4   568.7  0.00   0.0     0     0.00      0     0.0  0.00   0.0   0.002   0.000   20.0    71   14.6   20.4    0.03   351    1    100.0   15 
 7/11/22  20.15   18.1   18.3   18.0    85   15.5   0.0   ---   0.00   0.0   ---   18.1   18.5   18.5   17.4   568.7  0.00   0.0     0     0.00      0     0.0  0.00   0.0   0.002   0.000   20.0    71   14.6   20.4    0.00   351    1    100.0   15 
 7/11/22  20.30   18.0   18.2   17.9    86   15.6   0.0   ---   0.00   0.0   ---   18.0   18.4   18.4   17.3   568.7  0.00   0.0     0     0.00      0     0.0  0.00   0.0   0.003   0.000   19.9    71   14.5   20.2    0.00   351    1    100.0   15 
 7/11/22  20.45   17.9   18.1   17.9    86   15.6   0.0   ---   0.00   0.0   ---   17.9   18.3   18.3   17.2   568.7  0.00   0.0     0     0.00      0     0.0  0.00   0.0   0.004   0.000   19.9    71   14.5   20.2    0.00   351    1    100.0   15 
 7/11/22  21.00   17.8   18.0   17.8    86   15.5   0.0   ---   0.00   0.0   ---   17.8   18.2   18.2   17.1   568.7  0.00   0.0     0     0.00      0     0.0  0.00   0.0   0.005   0.000   19.9    71   14.5   20.2    0.00   351    1    100.0   15 
 7/11/22  21.15   17.8   17.8   17.7    86   15.4   0.0   ---   0.00   0.0   ---   17.8   18.1   18.1   17.0   568.7  0.00   0.0     0     0.00      0     0.0  0.00   0.0   0.006   0.000   19.9    72   14.7   20.3    0.00   351    1    100.0   15 
 7/11/22  21.30   17.7   17.7   17.7    86   15.3   0.0   ---   0.00   0.0   ---   17.7   18.0   18.0   16.9   568.7  0.00   0.0     0     0.00      0     0.0  0.00   0.0   0.007   0.000   19.9    72   14.7   20.3    0.00   352    1    100.0   15 
 7/11/22  21.45   17.5   17.7   17.4    87   15.3   0.0   ---   0.00   0.0   ---   17.5   17.8   17.8   16.7   568.7  0.00   0.0     0     0.00      0     0.0  0.00   0.0   0.009   0.000   19.9    72   14.7   20.3    0.00   351    1    100.0   15 
 7/11/22  22.00   17.3   17.5   17.3    87   15.1   0.0   ---   0.00   0.0   ---   17.3   17.7   17.7   16.6   568.7  0.00   0.0     0     0.00      0     0.0  0.00   0.0   0.010   0.000   19.9    72   14.7   20.3    0.00   351    1    100.0   15 
 7/11/22  22.15   17.1   17.3   17.1    87   14.9   0.0   ---   0.00   0.0   ---   17.1   17.3   17.3   16.2   568.7  0.00   0.0     0     0.00      0     0.0  0.00   0.0   0.013   0.000   19.9    72   14.7   20.3    0.00   351    1    100.0   15 
 7/11/22  22.30   17.1   17.2   17.1    88   15.1   0.0   ---   0.00   0.0   ---   17.1   17.4   17.4   16.3   568.7  0.00   0.0     0     0.00      0     0.0  0.00   0.0   0.013   0.000   19.9    72   14.7   20.3    0.00   352    1    100.0   15 
 7/11/22  22.45   16.9   17.1   16.9    87   14.8   0.0   ---   0.00   0.0   ---   16.9   17.2   17.2   16.1   568.7  0.00   0.0     0     0.00      0     0.0  0.00   0.0   0.014   0.000   19.8    73   14.8   20.2    0.00   351    1    100.0   15 
 7/11/22  23.00   16.7   16.9   16.7    88   14.7   0.0   ---   0.00   0.0   ---   16.7   16.9   16.9   15.8   568.7  0.00   0.0     0     0.00      0     0.0  0.00   0.0   0.017   0.000   19.8    73   14.8   20.2    0.00   351    1    100.0   15 
 7/11/22  23.15   16.3   16.7   16.2    88   14.3   0.0   ---   0.00   0.0   ---   16.3   16.6   16.6   15.4   568.7  0.00   0.0     0     0.00      0     0.0  0.00   0.0   0.021   0.000   19.8    73   14.8   20.2    0.00   350    1    100.0   15 
 7/11/22  23.30   16.3   16.4   16.2    88   14.3   0.0   ---   0.00   0.0   ---   16.3   16.6   16.6   15.4   568.7  0.00   0.0     0     0.00      0     0.0  0.00   0.0   0.021   0.000   19.7    73   14.7   20.1    0.00   351    1    100.0   15 
 7/11/22  23.45   16.3   16.4   16.2    88   14.3   0.0   ---   0.00   0.0   ---   16.3   16.6   16.6   15.4   568.7  0.00   0.0     0     0.00      0     0.0  0.00   0.0   0.021   0.000   19.7    73   14.7   20.1    0.00   351    1    100.0   15 
 8/11/22  00.00   16.1   16.4   16.1    88   14.1   0.0   ---   0.00   0.0   ---   16.1   16.2   16.2   15.1   568.7  0.00   0.0     0     0.00      0     0.0  0.00   0.0   0.024   0.000   19.7    72   14.5   20.1    0.00   351    1    100.0   15 
 7/11/22   0.15   15.6   16.1   15.6    88   13.6   0.0   ---   0.00   0.0   ---   15.6   15.7   15.7   14.5   568.7  0.00   0.0     0     0.00      0     0.0  0.00   0.0   0.028   0.000   19.7    72   14.5   20.1    0.00   348    1    100.0   15 
 7/11/22   0.30   15.4   15.7   15.4    88   13.4   0.0   ---   0.00   0.0   ---   15.4   15.5   15.5   14.3   568.7  0.00   0.0     0     0.00      0     0.0  0.00   0.0   0.031   0.000   19.7    72   14.5   20.1    0.00   351    1    100.0   15 
 7/11/22   0.45   15.2   15.4   15.1    88   13.2   0.0   ---   0.00   0.0   ---   15.2   15.2   15.2   14.0   568.7  0.00   0.0     0     0.00      0     0.0  0.00   0.0   0.033   0.000   19.6    72   14.4   19.9    0.00   351    1    100.0   15 
 7/11/22   1.00   15.3   15.5   15.0    89   13.5   0.0   ---   0.00   0.0   ---   15.3   15.4   15.4   14.2   568.7  0.00   0.0     0     0.00      0     0.0  0.00   0.0   0.031   0.000   19.6    72   14.4   19.9    0.00   352    1    100.0   15 
 7/11/22   1.15   15.1   15.3   14.9    89   13.3   0.0   ---   0.00   0.0   ---   15.1   15.2   15.2   14.0   568.7  0.00   0.0     0     0.00      0     0.0  0.00   0.0   0.034   0.000   19.6    72   14.4   19.9    0.00   350    1    100.0   15 
 7/11/22   1.30   14.7   15.2   14.7    88   12.8   0.0   ---   0.00   0.0   ---   14.7   14.8   14.8   13.5   568.7  0.00   0.0     0     0.00      0     0.0  0.00   0.0   0.038   0.000   19.6    72   14.4   19.9    0.00   351    1    100.0   15 
 7/11/22   1.45   14.9   14.9   14.6    89   13.1   0.0   ---   0.00   0.0   ---   14.9   14.9   14.9   13.7   568.7  0.00   0.0     0     0.00      0     0.0  0.00   0.0   0.036   0.000   19.6    71   14.2   19.9    0.00   351    1    100.0   15 
 7/11/22   2.00   15.0   15.1   14.9    89   13.2   0.0   ---   0.00   0.0   ---   15.0   15.1   15.1   13.9   568.7  0.00   0.0     0     0.00      0     0.0  0.00   0.0   0.035   0.000   19.5    71   14.1   19.8    0.00   352    1    100.0   15 
 7/11/22   2.15   14.4   15.2   14.4    89   12.7   0.0   ---   0.00   0.0   ---   14.4   14.5   14.5   13.2   568.7  0.00   0.0     0     0.00      0     0.0  0.00   0.0   0.041   0.000   19.5    71   14.1   19.8    0.00   351    1    100.0   15 
 7/11/22   2.30   14.6   14.7   14.3    89   12.8   0.0   ---   0.00   0.0   ---   14.6   14.7   14.7   13.4   568.7  0.00   0.0     0     0.00      0     0.0  0.00   0.0   0.039   0.000   19.5    71   14.1   19.8    0.00   351    1    100.0   15 
 7/11/22   2.45   14.2   14.6   14.2    89   12.4   0.0   ---   0.00   0.0   ---   14.2   14.3   14.3   13.0   568.7  0.00   0.0     0     0.00      0     0.0  0.00   0.0   0.043   0.000   19.5    70   13.9   19.7    0.00   350    1    100.0   15 
 8/11/22   3.30   14.9   14.9   14.8    89   13.1   0.0   ---   0.00   0.0   ---   14.9   14.9   14.9   13.7   568.7  0.00   0.0     0     0.00      0     0.0  0.00   0.0   0.036   0.000   19.4    70   13.8   19.7    0.00   351    1    100.0   15 
 8/11/22   3.45   14.6   14.9   14.1    89   12.8   0.0   ---   0.00   0.0   ---   14.6   14.6   14.6   13.3   568.7  0.00   0.0     0     0.00      0     0.0  0.00   0.0   0.039   0.000   19.4    69   13.6   19.6    0.00   351    1    100.0   15 
 8/11/22   4.00   14.1   14.8   14.1    89   12.3   0.0   ---   0.00   0.0   ---   14.1   14.2   14.2   12.9   568.7  0.00   0.0     0     0.00      0     0.0  0.00   0.0   0.044   0.000   19.4    69   13.6   19.6    0.00   351    1    100.0   15 
 8/11/22   4.15   14.8   14.8   14.1    90   13.2   0.0   ---   0.00   0.0   ---   14.8   14.9   14.9   13.7   568.7  0.00   0.0     0     0.00      0     0.0  0.00   0.0   0.036   0.000   19.3    69   13.5   19.5    0.00   351    1    100.0   15 
 8/11/22   4.30   15.2   15.3   14.8    90   13.6   0.0   ---   0.00   0.0   ---   15.2   15.3   15.3   14.1   568.7  0.00   0.0     0     0.00      0     0.0  0.00   0.0   0.032   0.000   19.3    69   13.5   19.5    0.00   351    1    100.0   15 
 8/11/22   4.45   14.7   15.2   14.6    90   13.0   0.0   ---   0.00   0.0   ---   14.7   14.7   14.7   13.5   568.7  0.00   0.0     0     0.00      0     0.0  0.00   0.0   0.038   0.000   19.3    69   13.5   19.5    0.00   351    1    100.0   15 
 8/11/22   5.00   15.5   15.5   14.7    90   13.9   0.0   ---   0.00   0.0   ---   15.5   15.7   15.7   14.4   568.7  0.00   0.0     0     0.00      0     0.0  0.00   0.0   0.030   0.000   19.3    69   13.5   19.5    0.00   350    1    100.0   15 
 8/11/22   5.15   15.6   15.6   15.4    90   13.9   0.0   ---   0.00   0.0   ---   15.6   15.7   15.7   14.6   568.7  0.00   0.0     0     0.00      0     0.0  0.00   0.0   0.029   0.000   19.3    69   13.5   19.5    0.00   350    1    100.0   15 
 8/11/22   5.30   15.4   15.9   15.4    90   13.8   0.0   ---   0.00   0.0   ---   15.4   15.6   15.6   14.4   568.7  0.00   0.0     0     0.00      0     0.0  0.00   0.0   0.030   0.000   19.3    69   13.5   19.5    0.00   350    1    100.0   15 
 8/11/22   5.45   15.1   15.5   15.1    90   13.4   0.0   ---   0.00   0.0   ---   15.1   15.2   15.2   13.9   568.7  0.00   0.0     0     0.00      0     0.0  0.00   0.0   0.034   0.000   19.3    69   13.5   19.5    0.00   351    1    100.0   15 
 8/11/22   6.00   15.7   15.7   14.9    90   14.0   0.0   ---   0.00   0.0   ---   15.7   15.8   15.8   14.7   568.7  0.00   0.0     0     0.00      0     0.0  0.00   0.0   0.028   0.000   19.3    69   13.4   19.4    0.00   350    1    100.0   15 
 8/11/22   6.15   15.9   16.0   15.7    91   14.5   0.0   ---   0.00   0.0   ---   15.9   16.2   16.2   15.0   568.7  0.00   0.0     0     0.00      0     0.0  0.00   0.0   0.025   0.000   19.3    68   13.2   19.4    0.00   351    1    100.0   15 
 8/11/22   6.30   15.7   16.1   15.7    90   14.1   0.0   ---   0.00   0.0   ---   15.7   15.9   15.9   14.7   568.7  0.00   0.0     0     0.00      0     0.0  0.00   0.0   0.027   0.000   19.3    68   13.2   19.4    0.00   352    1    100.0   15 
 8/11/22   6.45   15.4   15.7   14.9    90   13.8   0.0   ---   0.00   0.0   ---   15.4   15.6   15.6   14.4   568.7  0.00   0.0     1     0.02      7     0.0  0.00   0.0   0.031   0.000   19.3    68   13.2   19.4    0.00   351    1    100.0   15 
 8/11/22   7.00   15.4   15.4   15.1    90   13.8   0.0   ---   0.00   0.0   ---   15.4   15.6   15.6   14.5   568.7  0.00   0.0    11     0.24     12     0.0  0.00   0.0   0.031   0.000   19.3    68   13.2   19.4    0.00   350    1    100.0   15 
 8/11/22   7.15   15.4   15.6   15.4    91   14.0   0.0   ---   0.00   0.0   ---   15.4   15.6   15.6   14.7   568.7  0.00   0.0    16     0.34     21     0.0  0.00   0.0   0.030   0.000   19.3    68   13.2   19.4    0.00   351    1    100.0   15 
 8/11/22   7.30   15.4   15.7   15.4    91   13.9   0.0   ---   0.00   0.0   ---   15.4   15.6   15.6   14.8   568.7  0.00   0.0    30     0.65     35     0.0  0.00   0.0   0.031   0.000   19.3    69   13.4   19.4    0.00   352    1    100.0   15 
 8/11/22   7.45   15.4   15.4   15.2    91   14.0   0.0   ---   0.00   0.0   ---   15.4   15.6   15.6   15.2   568.7  0.00   0.0    58     1.25     69     0.0  0.00   0.0   0.030   0.000   19.3    69   13.4   19.4    0.00   350    1    100.0   15 
 8/11/22   8.00   16.8   16.8   15.4    91   15.3   0.0   ---   0.00   0.0   ---   16.8   17.1   17.1   18.1   568.7  0.00   0.0    79     1.70     97     0.0  0.00   0.0   0.016   0.000   19.3    69   13.4   19.4    0.03   351    1    100.0   15 
 8/11/22   8.15   16.6   16.9   16.4    91   15.1   0.0   ---   0.00   0.0   ---   16.6   16.8   16.8   17.8   568.7  0.00   0.0    74     1.59    130     0.0  0.00   0.0   0.019   0.000   19.3    70   13.7   19.4    0.00   351    1    100.0   15 
 8/11/22   8.30   17.5   17.5   16.5    91   16.0   0.0   ---   0.00   0.0   ---   17.5   17.9   17.9   19.3   568.7  0.00   0.0    92     1.98    179     0.0  0.00   0.0   0.009   0.000   19.3    70   13.7   19.4    0.00   352    1    100.0   15 
 8/11/22   8.45   18.7   18.7   17.4    91   17.2   0.0    SE   0.00   6.4     E   18.7   19.3   19.3   22.1   568.7  0.00   0.0   157     3.38    251     0.0  0.00   0.0   0.000   0.003   19.3    70   13.7   19.6    0.00   350    1    100.0   15 
 8/11/22   9.00   19.7   19.7   18.7    91   18.2   3.2    SE   0.80  16.1    SE   19.7   20.6   20.6   24.4   568.7  0.00   0.0   222     4.77    301     0.0  0.00   0.0   0.000   0.014   19.4    71   14.0   19.7    0.08   351    1    100.0   15 
 8/11/22   9.15   20.2   20.2   19.7    90   18.5   6.4    SE   1.61  19.3   SSE   20.2   21.2   21.2   25.5   568.7  0.00   0.0   256     5.50    288     0.0  0.00   0.0   0.000   0.019   19.4    71   14.0   19.7    0.00   350    1    100.0   15 
 8/11/22   9.30   20.6   20.6   20.2    87   18.3   6.4   SSE   1.61  16.1    SE   20.6   21.6   21.6   26.5   568.7  0.00   0.0   309     6.64    359     0.0  0.00   0.0   0.000   0.023   19.5    70   13.9   19.7    0.00   351    1    100.0   15 
 8/11/22   9.45   21.1   21.1   20.6    84   18.2   4.8    SE   1.21  16.1    SE   21.1   21.9   21.9   27.3   568.7  0.00   0.0   366     7.87    383     0.0  0.00   0.0   0.000   0.028   19.6    70   14.0   19.9    0.00   352    1    100.0   15 
 8/11/22  10.00   21.1   21.2   21.0    83   18.1   4.8    SE   1.21  17.7    SE   21.1   21.8   21.8   27.1   568.7  0.00   0.0   361     7.76    394     0.0  0.00   0.0   0.000   0.029   19.6    71   14.2   19.9    0.20   351    1    100.0   15 
 8/11/22  10.15   20.7   21.1   20.7    83   17.7   4.8    SE   1.21  14.5    SE   20.7   21.6   21.6   24.4   568.7  0.00   0.0   204     4.39    343     0.0  0.00   0.0   0.000   0.024   19.7    71   14.3   20.1    0.00   351    1    100.0   15 
 8/11/22  10.30   20.9   20.9   20.7    83   17.9   4.8    SE   1.21  16.1    SE   20.9   21.7   21.7   26.2   568.7  0.00   0.0   316     6.79    485     0.0  0.00   0.0   0.000   0.027   19.7    71   14.3   20.1    0.00   350    1    100.0   15 
 8/11/22  10.45   20.9   21.0   20.9    82   17.8   4.8   SSE   1.21  16.1   ESE   20.9   21.7   21.7   26.7   568.7  0.00   0.0   368     7.91    459     0.0  0.00   0.0   0.000   0.027   19.8    71   14.4   20.1    0.00   352    1    100.0   15 
 8/11/22  11.00   20.6   20.9   20.6    83   17.6   4.8    SE   1.21  14.5    SE   20.6   21.5   21.5   23.2   568.7  0.00   0.0   143     3.07    271     0.0  0.00   0.0   0.000   0.024   19.8    71   14.4   20.1    0.15   350    1    100.0   15 
 8/11/22  11.15   20.6   20.8   20.6    82   17.4   6.4    SE   1.61  16.1    SE   20.6   21.5   21.5   23.7   568.7  0.00   0.0   180     3.87    295     0.0  0.00   0.0   0.000   0.024   19.9    71   14.5   20.2    0.00   351    1    100.0   15 
 8/11/22  11.30   20.7   20.9   20.6    82   17.5   6.4    SE   1.61  14.5   ESE   20.7   21.6   21.6   24.1   568.7  0.00   0.0   204     4.39    589     0.0  0.00   0.0   0.000   0.025   19.9    72   14.7   20.3    0.00   351    1    100.0   15 
 8/11/22  11.45   21.4   21.4   20.7    81   18.0   4.8    SE   1.21  14.5    SE   21.4   22.1   22.1   27.7   568.7  0.00   0.0   453     9.74    649     0.0  0.00   0.0   0.000   0.032   20.0    72   14.8   20.4    0.00   352    1    100.0   15 
 8/11/22  12.00   21.4   21.6   21.4    80   17.8   4.8   SSE   1.21  11.3    SE   21.4   22.1   22.1   25.7   568.7  0.00   0.0   285     6.13    577     0.0  0.00   0.0   0.000   0.032   20.1    72   14.9   20.4    0.18   351    1    100.0   15 
 8/11/22  12.15   21.8   21.8   21.4    79   18.0   6.4   SSE   1.61  14.5    SE   21.8   22.5   22.5   28.0   568.7  0.00   0.0   450     9.68    608     0.0  0.00   0.0   0.000   0.036   20.2    72   15.0   20.6    0.00   351    1    100.0   15 
© www.elbaexplorer.com